[[{"header":{"parameterUnit":"m.s-1","parameterCategory":1,"la1":30.6,"la2":29.2853,"lo1":-89.7004,"lo2":-87.6739,"dy":0.0162,"dx":0.0183,"nx":112,"ny":82,"refTime":"2023-05-14T06:00:00:Z","depth":0,"parameterNumber":2,"parameterNumberName":"U-component_of_WINDS"},"data":[0.0,0.0,0.0,0.0,0.0,0.0,0.0,0.0,0.0,0.0,0.0,0.0,0.0,0.0,0.0,0.0,0.0,0.0,0.0,0.0,0.0,0.0,0.0,0.0,0.0,0.0,0.0,0.0,0.0,0.0,0.0,0.0,0.0,0.0,0.0,0.0,0.0,0.0,0.0,0.0,0.0,0.0,0.0,0.0,0.0,0.0,0.0,0.0,0.0,0.0,0.0,0.0,0.0,0.0,0.0,0.0,0.0,0.0,0.0,0.0,0.0,0.0,0.0,0.0,0.0,0.0,0.0,0.0,0.0,0.0,0.0,0.0,0.0,0.0,0.0,0.0,0.0,0.0,0.0,0.0,0.0,0.0,0.0,0.0,0.0,0.0,0.0,0.0,0.0,0.0,-2.2612,-2.3141,-2.5187,-2.6303,-2.5775,-2.5591,-2.4047,-2.0614,0.0,0.0,0.0,0.0,0.0,0.0,0.0,0.0,0.0,0.0,0.0,0.0,0.0,0.0,0.0,0.0,0.0,0.0,0.0,0.0,0.0,0.0,0.0,0.0,0.0,0.0,0.0,0.0,0.0,0.0,0.0,0.0,0.0,0.0,0.0,0.0,0.0,0.0,0.0,0.0,0.0,0.0,0.0,0.0,0.0,0.0,0.0,0.0,0.0,0.0,0.0,0.0,0.0,0.0,0.0,0.0,0.0,0.0,0.0,0.0,0.0,0.0,0.0,0.0,0.0,0.0,0.0,0.0,0.0,0.0,0.0,0.0,0.0,0.0,0.0,0.0,0.0,0.0,0.0,0.0,0.0,0.0,0.0,0.0,0.0,0.0,0.0,0.0,0.0,0.0,0.0,0.0,0.0,0.0,0.0,0.0,0.0,0.0,0.0,0.0,0.0,0.0,0.0,0.0,-2.3231,-2.6474,-2.6682,-2.652,-2.637,-2.587,-2.4102,-2.0623,0.0,0.0,0.0,0.0,0.0,0.0,0.0,0.0,0.0,0.0,0.0,0.0,0.0,0.0,0.0,0.0,0.0,0.0,0.0,0.0,0.0,0.0,0.0,0.0,0.0,0.0,0.0,0.0,0.0,0.0,0.0,0.0,0.0,0.0,0.0,0.0,0.0,0.0,0.0,0.0,0.0,0.0,0.0,0.0,0.0,0.0,0.0,0.0,0.0,0.0,0.0,0.0,0.0,0.0,0.0,0.0,0.0,0.0,0.0,0.0,0.0,0.0,0.0,0.0,0.0,0.0,0.0,0.0,0.0,0.0,0.0,0.0,0.0,0.0,0.0,0.0,0.0,0.0,0.0,0.0,0.0,0.0,0.0,0.0,0.0,0.0,0.0,0.0,0.0,0.0,0.0,0.0,0.0,0.0,0.0,0.0,0.0,0.0,0.0,0.0,0.0,0.0,0.0,-2.1745,-2.3385,-2.7586,-2.7467,-2.7133,-2.7251,-2.6242,-2.4315,-2.1296,-2.0561,0.0,0.0,0.0,0.0,0.0,0.0,0.0,0.0,0.0,0.0,0.0,0.0,0.0,0.0,0.0,0.0,0.0,0.0,0.0,0.0,0.0,0.0,0.0,0.0,0.0,0.0,0.0,0.0,0.0,0.0,0.0,0.0,0.0,0.0,0.0,0.0,0.0,0.0,0.0,0.0,0.0,0.0,0.0,0.0,0.0,0.0,0.0,0.0,0.0,0.0,0.0,0.0,0.0,0.0,0.0,0.0,0.0,0.0,0.0,0.0,0.0,0.0,0.0,0.0,0.0,0.0,0.0,0.0,0.0,0.0,0.0,0.0,0.0,0.0,0.0,0.0,0.0,0.0,0.0,0.0,0.0,0.0,0.0,0.0,0.0,0.0,0.0,0.0,0.0,0.0,0.0,0.0,0.0,0.0,0.0,0.0,0.0,0.0,0.0,0.0,0.0,0.0,-2.3045,-2.4597,-2.8147,-2.7953,-2.7635,-2.7795,-2.6762,-2.4764,-2.1593,-2.0931,0.0,0.0,0.0,0.0,0.0,0.0,0.0,0.0,0.0,0.0,0.0,0.0,0.0,0.0,0.0,0.0,0.0,0.0,0.0,0.0,0.0,0.0,0.0,0.0,0.0,0.0,0.0,0.0,0.0,0.0,0.0,0.0,0.0,0.0,0.0,0.0,0.0,0.0,0.0,0.0,0.0,0.0,0.0,0.0,0.0,0.0,0.0,0.0,0.0,0.0,0.0,0.0,0.0,0.0,0.0,0.0,0.0,0.0,0.0,0.0,0.0,0.0,0.0,0.0,0.0,0.0,0.0,0.0,0.0,0.0,0.0,0.0,0.0,0.0,0.0,0.0,0.0,0.0,0.0,0.0,0.0,0.0,0.0,0.0,0.0,0.0,0.0,0.0,0.0,0.0,0.0,0.0,0.0,0.0,0.0,0.0,0.0,0.0,0.0,0.0,0.0,0.0,-2.5747,-2.8105,-2.8782,-2.8209,-2.7711,-2.7536,-2.7602,-2.5595,-2.0798,-2.1071,0.0,0.0,0.0,0.0,0.0,0.0,0.0,0.0,0.0,0.0,0.0,0.0,0.0,0.0,0.0,0.0,0.0,0.0,0.0,0.0,0.0,0.0,0.0,0.0,0.0,0.0,0.0,0.0,0.0,0.0,0.0,0.0,0.0,0.0,0.0,0.0,0.0,0.0,0.0,0.0,0.0,0.0,0.0,0.0,0.0,0.0,0.0,0.0,0.0,0.0,0.0,0.0,0.0,0.0,0.0,0.0,0.0,0.0,0.0,0.0,0.0,0.0,0.0,0.0,0.0,0.0,0.0,0.0,0.0,0.0,0.0,0.0,0.0,0.0,0.0,0.0,0.0,0.0,0.0,0.0,0.0,0.0,0.0,0.0,0.0,0.0,0.0,0.0,0.0,0.0,0.0,0.0,0.0,0.0,0.0,0.0,0.0,0.0,0.0,0.0,0.0,0.0,-2.3868,-2.6064,0.0,-2.7926,-2.7997,-2.8459,-2.795,-2.5919,-2.1957,0.0,0.0,0.0,0.0,0.0,0.0,0.0,0.0,0.0,0.0,0.0,0.0,0.0,0.0,0.0,0.0,0.0,0.0,0.0,0.0,0.0,0.0,0.0,0.0,0.0,0.0,0.0,0.0,0.0,0.0,0.0,0.0,0.0,0.0,0.0,0.0,0.0,0.0,0.0,0.0,0.0,0.0,0.0,0.0,0.0,0.0,0.0,0.0,0.0,0.0,0.0,0.0,0.0,0.0,0.0,0.0,0.0,0.0,0.0,0.0,0.0,0.0,0.0,0.0,0.0,0.0,0.0,0.0,0.0,0.0,0.0,0.0,0.0,0.0,0.0,0.0,0.0,0.0,0.0,0.0,0.0,0.0,0.0,0.0,0.0,0.0,0.0,0.0,0.0,0.0,0.0,0.0,0.0,0.0,0.0,0.0,0.0,0.0,0.0,0.0,0.0,0.0,-2.0693,-2.2907,-2.5141,0.0,-2.7476,-2.7826,-2.8548,-2.8252,-2.6313,-2.231,0.0,0.0,0.0,0.0,0.0,0.0,0.0,0.0,0.0,0.0,0.0,0.0,0.0,0.0,0.0,0.0,0.0,0.0,0.0,0.0,0.0,0.0,0.0,0.0,0.0,0.0,0.0,0.0,0.0,0.0,0.0,0.0,0.0,0.0,0.0,0.0,0.0,0.0,0.0,0.0,0.0,0.0,0.0,0.0,0.0,0.0,0.0,0.0,0.0,0.0,0.0,0.0,0.0,0.0,0.0,0.0,0.0,0.0,0.0,0.0,0.0,0.0,0.0,0.0,0.0,0.0,0.0,0.0,0.0,0.0,0.0,0.0,0.0,0.0,0.0,0.0,0.0,0.0,0.0,0.0,0.0,0.0,0.0,0.0,0.0,0.0,0.0,0.0,0.0,0.0,0.0,0.0,0.0,0.0,0.0,0.0,0.0,0.0,0.0,0.0,0.0,0.0,-2.0329,-2.3621,-2.6229,-2.6817,-2.6897,-2.7069,-2.7546,-2.8513,-2.6819,0.0,0.0,0.0,0.0,0.0,0.0,0.0,0.0,0.0,0.0,0.0,0.0,0.0,0.0,0.0,0.0,0.0,0.0,0.0,0.0,0.0,0.0,0.0,0.0,0.0,0.0,0.0,0.0,0.0,0.0,0.0,0.0,0.0,0.0,0.0,0.0,0.0,0.0,0.0,0.0,0.0,0.0,0.0,0.0,0.0,0.0,0.0,0.0,0.0,0.0,0.0,0.0,0.0,0.0,0.0,0.0,0.0,0.0,0.0,0.0,0.0,0.0,0.0,0.0,0.0,0.0,0.0,0.0,0.0,0.0,0.0,0.0,0.0,0.0,0.0,0.0,0.0,0.0,0.0,0.0,0.0,0.0,0.0,0.0,0.0,0.0,0.0,0.0,0.0,0.0,0.0,0.0,0.0,0.0,0.0,0.0,0.0,0.0,0.0,0.0,0.0,0.0,0.0,-1.9118,-2.2854,-2.5663,-2.5819,-2.6472,-2.6964,-2.708,-2.8171,-2.667,-2.1633,0.0,0.0,0.0,0.0,0.0,0.0,0.0,0.0,0.0,0.0,0.0,0.0,0.0,0.0,0.0,0.0,0.0,0.0,0.0,0.0,0.0,0.0,0.0,0.0,0.0,0.0,0.0,0.0,0.0,0.0,0.0,0.0,0.0,0.0,0.0,0.0,0.0,0.0,0.0,0.0,0.0,0.0,0.0,0.0,0.0,0.0,0.0,0.0,0.0,0.0,0.0,0.0,0.0,0.0,0.0,0.0,0.0,0.0,0.0,0.0,0.0,0.0,0.0,0.0,0.0,0.0,0.0,0.0,0.0,0.0,0.0,0.0,0.0,0.0,0.0,0.0,0.0,0.0,0.0,0.0,0.0,0.0,0.0,0.0,0.0,0.0,0.0,0.0,0.0,0.0,0.0,0.0,0.0,0.0,0.0,0.0,0.0,0.0,0.0,0.0,0.0,0.0,-1.8779,-2.2912,-2.5869,-2.5797,-2.6339,-2.679,-2.7113,-2.7636,-2.6415,-2.2872,0.0,0.0,0.0,0.0,0.0,0.0,0.0,0.0,0.0,0.0,0.0,0.0,0.0,0.0,0.0,0.0,0.0,0.0,0.0,0.0,0.0,0.0,0.0,0.0,0.0,0.0,0.0,0.0,0.0,0.0,0.0,0.0,0.0,0.0,0.0,0.0,0.0,0.0,0.0,0.0,0.0,0.0,0.0,0.0,0.0,0.0,0.0,0.0,0.0,0.0,0.0,0.0,0.0,0.0,0.0,0.0,0.0,0.0,0.0,0.0,0.0,0.0,0.0,0.0,0.0,0.0,0.0,0.0,0.0,0.0,0.0,0.0,0.0,0.0,0.0,0.0,0.0,0.0,0.0,0.0,0.0,0.0,0.0,0.0,0.0,0.0,0.0,0.0,0.0,0.0,0.0,0.0,0.0,0.0,0.0,0.0,0.0,0.0,0.0,0.0,0.0,0.0,-1.9008,-2.344,-2.6468,-2.6227,-2.6293,-2.6636,-2.7297,-2.7114,-2.6316,-2.4729,0.0,0.0,0.0,0.0,0.0,0.0,0.0,0.0,0.0,0.0,0.0,0.0,0.0,0.0,0.0,0.0,0.0,0.0,0.0,0.0,0.0,0.0,0.0,0.0,0.0,0.0,0.0,0.0,0.0,0.0,0.0,0.0,0.0,0.0,0.0,0.0,0.0,0.0,0.0,0.0,0.0,0.0,0.0,0.0,0.0,0.0,0.0,0.0,0.0,0.0,0.0,0.0,0.0,0.0,0.0,0.0,0.0,0.0,0.0,0.0,-1.2666,0.0,0.0,0.0,0.0,0.0,0.0,0.0,0.0,0.0,0.0,0.0,0.0,0.0,0.0,0.0,0.0,0.0,0.0,0.0,0.0,0.0,0.0,0.0,0.0,0.0,0.0,0.0,0.0,0.0,0.0,0.0,0.0,0.0,0.0,0.0,0.0,0.0,0.0,0.0,0.0,0.0,-1.8671,-2.2784,-2.5431,-2.4815,-2.5953,-2.6661,-2.6365,-2.7482,-2.7471,-2.5703,-2.4694,0.0,0.0,0.0,0.0,0.0,0.0,0.0,0.0,0.0,0.0,0.0,0.0,0.0,0.0,0.0,0.0,0.0,0.0,0.0,0.0,0.0,0.0,0.0,0.0,0.0,0.0,0.0,0.0,0.0,0.0,0.0,0.0,0.0,0.0,0.0,0.0,0.0,0.0,0.0,0.0,0.0,0.0,0.0,0.0,0.0,0.0,0.0,0.0,0.0,0.0,0.0,0.0,0.0,0.0,0.0,0.0,0.0,0.0,0.0,0.0,-1.2711,0.0,0.0,0.0,0.0,0.0,0.0,0.0,0.0,0.0,0.0,0.0,0.0,0.0,0.0,0.0,0.0,0.0,0.0,0.0,0.0,0.0,0.0,0.0,0.0,0.0,0.0,0.0,0.0,0.0,0.0,0.0,0.0,0.0,0.0,0.0,0.0,0.0,0.0,0.0,0.0,-1.884,-2.2833,-2.5561,-2.532,-2.5849,-2.6273,-2.6336,-2.7105,-2.7316,-2.6659,-2.5563,0.0,0.0,0.0,0.0,0.0,0.0,0.0,0.0,0.0,0.0,0.0,0.0,0.0,0.0,0.0,0.0,0.0,0.0,0.0,0.0,0.0,0.0,0.0,0.0,0.0,0.0,0.0,0.0,0.0,0.0,0.0,0.0,0.0,0.0,0.0,0.0,0.0,0.0,0.0,0.0,0.0,0.0,0.0,0.0,0.0,0.0,0.0,0.0,0.0,0.0,0.0,0.0,0.0,-1.211,-1.2215,-1.2367,-1.2262,-1.279,-1.3738,-1.3222,-1.3668,-1.4704,-1.2674,0.0,0.0,0.0,0.0,0.0,0.0,0.0,0.0,0.0,0.0,0.0,0.0,0.0,0.0,0.0,0.0,0.0,0.0,0.0,0.0,0.0,0.0,0.0,0.0,-1.856,-1.9224,-1.7824,0.0,0.0,0.0,0.0,0.0,0.0,0.0,0.0,0.0,0.0,0.0,-1.9496,-2.3208,-2.5823,-2.5837,-2.5649,-2.5821,-2.6406,-2.6517,-2.6878,-2.7666,-2.6336,-2.573,0.0,0.0,0.0,0.0,0.0,0.0,0.0,0.0,0.0,0.0,0.0,0.0,0.0,0.0,0.0,0.0,0.0,0.0,0.0,0.0,0.0,0.0,0.0,0.0,0.0,0.0,0.0,0.0,0.0,0.0,0.0,0.0,-1.2883,-1.3026,0.0,0.0,0.0,0.0,0.0,0.0,0.0,0.0,0.0,0.0,0.0,0.0,0.0,-1.1431,-1.188,-1.283,-1.3497,-1.3791,-1.4762,-1.5345,-1.5487,-1.5487,-1.5581,-1.5732,-1.5624,0.0,-1.3406,-1.3879,0.0,0.0,0.0,0.0,0.0,0.0,0.0,0.0,0.0,0.0,0.0,0.0,0.0,0.0,0.0,0.0,0.0,0.0,0.0,0.0,0.0,0.0,-2.017,-1.9978,-2.0837,-2.1614,0.0,-1.8685,-1.6659,-1.7463,-1.6943,0.0,0.0,0.0,0.0,0.0,0.0,0.0,-2.103,-2.342,-2.4708,-2.4015,-2.4885,-2.5504,-2.5504,-2.6269,-2.7406,-2.8962,-2.8404,-2.7657,-2.6914,-2.5993,0.0,0.0,0.0,0.0,0.0,0.0,0.0,0.0,0.0,0.0,0.0,0.0,0.0,0.0,0.0,0.0,0.0,0.0,0.0,0.0,0.0,0.0,0.0,0.0,0.0,0.0,0.0,0.0,0.0,-1.2174,-1.2196,-1.2539,-1.185,-1.1113,0.0,0.0,0.0,0.0,0.0,0.0,0.0,0.0,0.0,-1.2702,-1.281,-1.3187,-1.3837,-1.4486,-1.4837,-1.5013,-1.5369,-1.5624,-1.5698,-1.556,-1.5753,-1.6138,-1.6138,-1.5865,-1.5454,-1.508,-1.4746,-1.438,0.0,0.0,0.0,0.0,-1.3643,-1.3705,-1.5186,-1.5733,-1.5697,-1.4918,0.0,0.0,0.0,0.0,0.0,0.0,0.0,0.0,0.0,0.0,-2.0509,-2.161,-2.2231,-2.2575,-2.2523,-2.114,-1.984,0.0,-1.8726,-1.7646,-1.6531,0.0,0.0,0.0,0.0,-2.1111,-2.1484,-2.3139,-2.4274,-2.4131,-2.4355,-2.4614,-2.4854,-2.5713,-2.6524,-2.73,-2.7919,-2.8271,-2.8165,-2.6742,-2.5125,0.0,0.0,0.0,0.0,0.0,0.0,0.0,0.0,0.0,0.0,0.0,0.0,0.0,0.0,0.0,0.0,0.0,0.0,0.0,0.0,0.0,0.0,0.0,0.0,0.0,0.0,0.0,0.0,-1.2213,-1.2125,-1.2413,-1.2071,-1.1446,0.0,0.0,0.0,0.0,0.0,0.0,-1.2494,-1.2442,-1.2945,-1.4168,-1.4392,-1.4816,-1.5473,-1.577,-1.5936,-1.59,-1.6044,-1.612,-1.612,-1.616,-1.6485,-1.6949,-1.6949,-1.7353,-1.7883,-1.6576,-1.6383,-1.6802,-1.5635,-1.4962,-1.4654,-1.5026,-1.5045,-1.5088,-1.6586,-1.7085,-1.7039,-1.6633,-1.6454,-1.6163,-1.5258,0.0,0.0,0.0,0.0,-1.7263,-1.9911,-2.0541,-2.0832,-2.2371,-2.2683,-2.2724,-2.3018,-2.2684,-2.215,0.0,-2.0927,-1.9749,-1.8353,0.0,0.0,0.0,0.0,-2.2315,-2.2166,-2.3088,-2.3878,-2.4189,-2.3813,-2.3695,-2.415,-2.4924,-2.5522,-2.5795,-2.7115,-2.8209,-2.8963,-2.7483,-2.6536,-2.6265,0.0,0.0,0.0,0.0,0.0,0.0,0.0,0.0,0.0,0.0,0.0,0.0,0.0,0.0,0.0,0.0,0.0,0.0,0.0,0.0,0.0,0.0,0.0,0.0,0.0,0.0,0.0,0.0,0.0,-1.3078,-1.3299,0.0,0.0,0.0,0.0,-1.23,-1.2314,-1.2914,-1.4218,-1.4114,-1.438,-1.5267,-1.5719,-1.5845,-1.572,-1.6232,-1.6586,-1.6564,-1.7611,-1.8055,-1.8055,-1.8822,-1.9102,-1.8967,-1.8967,-1.9265,-1.9646,-1.85,-1.7589,-1.6946,-1.7444,-1.6849,-1.5889,-1.7276,-1.7364,-1.7003,-1.8449,-1.9029,-1.8861,-1.7582,-1.6692,-1.6153,-1.6494,-1.6455,0.0,0.0,-1.8559,-1.9888,-2.0452,-2.1352,-2.2146,-2.1976,-2.1862,-2.2049,-2.3157,-2.2298,-2.193,0.0,-2.3878,-2.3521,-2.3093,0.0,-2.2941,-2.2338,-2.2517,-2.2967,-2.3887,-2.3649,-2.3463,-2.3463,-2.3042,-2.2896,-2.3314,-2.3975,-2.4768,-2.5741,-2.6724,-2.7705,-2.8685,-2.893,-2.7945,-2.5589,-2.5793,0.0,0.0,0.0,0.0,0.0,0.0,0.0,0.0,0.0,0.0,0.0,0.0,0.0,0.0,0.0,0.0,0.0,0.0,0.0,0.0,0.0,0.0,0.0,0.0,0.0,0.0,0.0,0.0,-1.2939,-1.3521,0.0,-1.2859,-1.3351,-1.3672,-1.3672,-1.4181,-1.4799,-1.5398,-1.5622,-1.6314,-1.7587,-1.7907,-1.8386,-1.9154,-1.9551,-1.956,-1.9211,-1.9529,-1.9457,-1.9195,-1.9311,-1.9591,-1.9971,-1.9971,-2.041,-2.0956,-2.0568,-1.9846,-1.8957,-1.8956,-1.8538,-1.8013,-1.8497,-1.8532,-1.8521,-1.9855,-2.0086,-1.9765,-1.9699,-1.9534,-1.932,-1.9483,-1.9472,-1.9669,-2.0794,-2.1259,-2.1716,-2.2977,-2.3339,-2.3366,-2.3579,-2.3617,-2.3681,-2.4093,-2.3681,-2.3566,-2.4792,-2.4035,-2.3027,-2.2394,-2.3713,-2.418,-2.2311,-2.309,-2.397,-2.4168,-2.3616,-2.321,-2.321,-2.2969,-2.2909,-2.3005,-2.3826,-2.4452,-2.4824,-2.6279,-2.7297,-2.7665,-2.8622,-2.8719,-2.7892,-2.8322,-2.6409,0.0,0.0,0.0,0.0,0.0,0.0,0.0,0.0,0.0,0.0,0.0,0.0,0.0,0.0,0.0,0.0,0.0,0.0,0.0,0.0,0.0,0.0,0.0,0.0,0.0,0.0,-1.4094,-1.3452,-1.4287,-1.4648,-1.4091,-1.4592,-1.4979,-1.5058,-1.6097,-1.6866,-1.7045,-1.7533,-1.836,-1.9487,-1.9583,-2.0014,-2.0889,-2.1362,-2.1372,-2.0997,-2.14,-2.1318,-2.0877,-2.1019,-2.1251,-2.149,-2.149,-2.1723,-2.2187,-2.2469,-2.2035,-2.1103,-2.0468,-2.0364,-2.0504,-2.0272,-2.0455,-2.0792,-2.1344,-2.146,-2.1299,-2.1312,-2.1594,-2.1875,-2.1462,-2.1524,-2.1835,-2.2776,-2.286,-2.2902,-2.3817,-2.3886,-2.3846,-2.405,-2.3997,-2.4066,-2.4895,-2.4465,-2.4336,-2.5619,-2.4729,-2.3645,-2.3256,-2.485,-2.5265,-2.2575,-2.387,-2.4789,-2.3973,-2.3566,-2.3292,-2.3233,-2.2823,-2.2543,-2.2543,-2.277,-2.3167,-2.3878,-2.4824,-2.5705,-2.6491,-2.6826,-2.7101,-2.7281,-2.8051,-2.677,-2.3388,0.0,0.0,0.0,0.0,0.0,0.0,0.0,0.0,0.0,0.0,0.0,0.0,0.0,0.0,0.0,0.0,0.0,0.0,0.0,0.0,0.0,0.0,0.0,-1.3058,-1.401,-1.4901,-1.4859,-1.5644,-1.6175,-1.6066,-1.6052,-1.6182,-1.637,-1.7965,-1.9021,-1.9288,-1.9839,-2.0358,-2.0888,-2.0566,-2.0524,-2.0614,-2.1606,-2.2007,-2.174,-2.3285,-2.377,-2.3314,-2.4096,-2.4111,-2.3507,-2.3507,-2.3426,-2.3346,-2.4173,-2.4007,-2.322,-2.2138,-2.2369,-2.3258,-2.2674,-2.3045,-2.3847,-2.2984,-2.3147,-2.3572,-2.2273,-2.2665,-2.3451,-2.2347,-2.2411,-2.2884,-2.2884,-2.3324,-2.3561,-2.2895,-2.3105,-2.35,-2.3306,-2.2874,-2.3091,-2.548,-2.454,-2.3947,-2.6329,-2.6134,-2.5742,-2.6056,-2.6683,-2.6221,-2.3575,-2.4901,0.0,-2.316,-2.3364,-2.3664,-2.341,-2.2433,-2.1806,-2.1806,-2.0742,-2.0929,-2.2984,-2.2483,-2.3095,-2.5301,-2.3877,-2.323,-2.3627,-2.4863,-2.5615,-2.5872,0.0,0.0,0.0,0.0,0.0,0.0,0.0,0.0,0.0,0.0,0.0,0.0,0.0,0.0,0.0,0.0,0.0,0.0,0.0,0.0,0.0,0.0,-1.5295,-1.4287,-1.5636,-1.6562,-1.6372,-1.6285,-1.6444,-1.6803,-1.7261,-1.7705,-1.8113,-1.892,-1.986,-2.0723,-2.1028,-2.1942,-2.3473,-2.3493,-2.3867,-2.4933,-2.5378,-2.5413,-2.4982,-2.5561,-2.537,-2.4395,-2.458,-2.4335,-2.3737,-2.3737,-2.4046,-2.4568,-2.4882,-2.5179,-2.5379,-2.4192,-2.3572,-2.3255,-2.3103,-2.3752,-2.4706,-2.4202,-2.4735,-2.5536,-2.4861,-2.4914,-2.514,-2.4788,-2.481,-2.5004,-2.511,-2.4985,-2.4747,-2.4646,-2.4465,-2.4266,-2.4253,-2.4076,-2.4303,-2.5339,-2.5063,-2.4969,-2.6198,-2.6412,-2.6297,-2.596,-2.5753,-2.544,-2.4796,-2.4474,0.0,-2.2866,-2.2424,-2.1708,-2.029,-1.9862,-1.9715,-1.9809,-2.0169,-2.0989,-2.243,-2.3754,-2.4775,-2.537,-2.5545,-2.5982,-2.6663,-2.5561,-2.5205,0.0,0.0,0.0,0.0,0.0,0.0,0.0,0.0,0.0,0.0,0.0,0.0,0.0,0.0,0.0,0.0,0.0,0.0,0.0,0.0,0.0,0.0,-1.5615,-1.6743,-1.6029,-1.7037,-1.7959,-1.8152,-1.8297,-1.8583,-1.9242,-1.9412,-1.958,-1.991,-2.1062,-2.2045,-2.2712,-2.3054,-2.3857,-2.5194,-2.504,-2.5341,-2.6336,-2.6637,-2.6499,-2.5946,-2.6313,-2.5823,-2.466,-2.466,-2.4325,-2.3826,-2.3919,-2.457,-2.561,-2.5893,-2.6436,0.0,0.0,0.0,0.0,0.0,-2.5401,-2.5727,-2.5322,-2.5906,-2.6647,-2.5882,-2.5918,-2.6138,-2.5903,-2.5824,-2.5824,-2.5887,-2.57,-2.5437,-2.5559,-2.5308,-2.5177,-2.5445,-2.5491,-2.585,-2.6947,-2.6835,-2.6763,-2.7574,-2.7448,0.0,-2.6645,-2.6067,-2.5337,-2.4465,-2.4099,-2.3515,-2.2476,-2.2049,-2.138,-2.0256,-1.9855,-1.9636,-1.9458,-1.9416,0.0,0.0,0.0,-2.2755,-2.3324,-2.4049,0.0,0.0,0.0,-2.518,-2.6656,0.0,0.0,0.0,-2.4878,-2.437,0.0,0.0,0.0,0.0,0.0,0.0,0.0,0.0,0.0,0.0,0.0,0.0,0.0,0.0,0.0,0.0,-1.7312,-1.8716,-1.8081,-1.8421,-1.9097,-2.0033,-2.0658,-2.1352,-2.2063,-2.1787,-2.1663,-2.1815,-2.3506,-2.4624,-2.4725,0.0,0.0,0.0,0.0,-2.5616,-2.5947,-2.6361,-2.6259,-2.5564,-2.6023,-2.5574,-2.4504,-2.4682,-2.4429,-2.4013,-2.4272,-2.5252,-2.6505,-2.6994,-2.7718,-2.8433,-2.7155,-2.6911,-2.7409,-2.7582,-2.7291,-2.6828,-2.6391,0.0,0.0,-2.6065,-2.6206,-2.6674,-2.6164,-2.5957,-2.5957,-2.5957,-2.5905,-2.5853,-2.5978,-2.5926,-2.6047,-2.6742,-2.6909,-2.7405,-2.9218,-2.8943,-2.8594,-2.9579,-2.8768,-2.7874,-2.7667,-2.6917,-2.5686,-2.3579,-2.3908,-2.3808,-2.2057,-2.193,-2.1861,-2.1506,0.0,0.0,-1.9826,-1.8727,-1.8643,-2.0132,-1.938,-1.9499,-2.0772,-2.1393,-2.2115,-2.2951,-2.3866,-2.565,-2.8336,-2.8889,-2.9677,-3.0435,-2.5005,-2.4116,0.0,0.0,0.0,0.0,0.0,0.0,0.0,0.0,0.0,0.0,0.0,0.0,0.0,0.0,0.0,-1.7076,-1.8321,-1.9286,-1.9516,-2.0198,-2.0635,-2.0757,-2.0407,-2.0592,-2.1589,-2.2409,-2.3057,-2.3397,-2.4138,-2.4906,-2.5828,-2.5849,-2.6062,-2.6709,-2.6826,-2.663,-2.6146,-2.6424,-2.6249,-2.5624,0.0,0.0,-2.4849,-2.5522,-2.5539,-2.4946,-2.5695,-2.6644,-2.7534,-2.7603,-2.8291,-2.9151,-2.8151,-2.8077,-2.8537,-2.8147,-2.7956,-2.778,-2.7551,-2.728,-2.704,-2.7076,-2.7209,-2.7274,-2.7103,-2.7011,0.0,-2.7011,-2.653,-2.6168,-2.6937,-2.6752,-2.656,-2.7294,-2.7516,-2.7822,-2.8726,-2.8639,-2.8552,-2.9277,-2.869,-2.8027,-2.8015,-2.6924,-2.5862,-2.5199,-2.4379,-2.3444,-2.2191,-2.1731,-2.0793,-1.8897,-1.8593,-1.8431,-1.8034,-1.8571,-1.9318,-2.0153,-2.0964,-2.1812,-2.2658,-2.3715,-2.4532,-2.509,-2.6026,-2.7124,-2.837,-2.8513,-2.9011,-2.9777,-2.8977,-2.9243,0.0,0.0,0.0,0.0,0.0,0.0,0.0,0.0,0.0,0.0,0.0,-1.4528,0.0,0.0,-1.774,-1.7908,-1.9174,-2.0217,-2.0337,-2.1467,-2.2105,-2.1572,-2.2183,-2.283,-2.3467,-2.4376,-2.4997,-2.5219,-2.5341,-2.5625,-2.6176,-2.5714,-2.5704,-2.603,-2.6217,-2.6094,-2.5675,-2.6536,-2.6606,-2.5965,-2.6828,-2.6858,-2.6211,-2.6639,-2.6607,-2.6303,-2.6904,-2.7668,-2.8468,-2.8817,-2.9047,-2.9225,-2.8911,-2.885,-2.8863,-2.831,-2.8109,-2.8072,-2.7986,-2.7933,-2.7857,-2.8053,-2.8053,-2.7954,-2.7887,-2.7624,-2.7403,-2.7403,-2.7115,-2.6894,-2.7223,-2.7129,-2.7147,-2.8057,-2.8349,-2.8651,-2.9653,-2.9941,-2.9793,-2.9396,-2.901,-2.8527,-2.7771,-2.6967,-2.6287,-2.5865,-2.4916,-2.3923,-2.2831,-2.2267,-2.1321,-1.9701,-1.9564,-1.9342,-1.8821,-1.9095,-1.9567,-2.0279,-2.1416,-2.2234,-2.2617,-2.3802,-2.4629,-2.4948,-2.5885,-2.6804,-2.7769,-2.8306,-2.8779,-2.921,-2.9761,-3.0293,0.0,0.0,0.0,0.0,0.0,0.0,0.0,0.0,-1.3242,-1.4417,-1.5166,-1.6069,-1.7322,-1.8001,-1.8478,-1.8936,-2.0207,-2.1089,-2.1182,-2.2516,-2.3221,-2.2601,-2.4055,-2.5176,-2.5534,-2.6085,-2.6383,-2.6476,-2.6104,-2.5961,-2.5961,-2.5452,-2.5087,-2.5087,-2.5178,-2.527,-2.5442,-2.6511,-2.6955,-2.6572,-2.7654,-2.7899,-2.7426,-2.7612,-2.7689,-2.7689,-2.806,-2.8677,-2.9315,-2.9755,-2.9616,-2.9199,-2.9312,-2.9158,-2.8887,-2.8599,-2.8436,-2.8411,-2.8371,-2.8489,-2.8618,-2.869,-2.8582,-2.8556,-2.8612,-2.8352,-2.8052,-2.8172,-2.8093,-2.8,-2.8014,-2.7921,-2.8078,-2.9142,-2.9393,-2.9676,-3.0719,-3.113,-3.0934,-2.9529,-2.9222,-2.8867,-2.7512,-2.7062,-2.6695,-2.6207,-2.5515,-2.4742,-2.3814,-2.3224,-2.255,-2.1727,-2.1544,-2.116,-2.045,-1.9925,-1.9905,-2.0507,-2.1355,-2.1862,-2.1908,-2.3223,-2.4062,-2.4272,-2.5194,-2.6133,-2.7019,-2.7849,-2.8369,-2.8576,-2.9271,-2.9821,-1.1274,-1.1785,-1.2811,-1.34,-1.3841,-1.444,0.0,0.0,-1.5994,-1.6703,-1.7483,-1.8211,-1.8734,-1.9399,-2.0372,-2.1565,-2.161,-2.1808,-2.2758,-2.3252,-2.3535,-2.3603,-2.4153,-2.4799,-2.5712,-2.5708,-2.5738,-2.5916,-2.5275,-2.4963,-2.4963,-2.4914,-2.4802,-2.4802,-2.5087,-2.5533,-2.6135,-2.6357,-2.6704,-2.725,-2.7393,-2.7481,-2.7426,-2.8234,-2.858,-2.8568,-2.947,-2.9917,-2.9954,-2.9743,-2.9557,-2.9541,-2.9236,-2.9094,-2.911,-2.9462,-2.9603,-2.9528,-2.9226,-2.8807,-2.8413,-2.8592,-2.8782,-2.9028,-2.9512,-2.9749,-2.9984,-3.0604,-3.0284,-2.9868,-3.0425,-3.0128,-2.9827,-3.0433,-3.0762,-3.0734,-3.0306,-3.0587,-3.0485,-2.9181,-2.882,-2.8519,-2.7792,-2.7354,-2.7049,-2.6686,-2.6083,-2.5597,-2.5206,-2.4655,-2.4035,-2.3293,-2.2844,-2.2342,-2.1754,-2.0961,-2.0668,-2.1171,-2.09,-2.1013,-2.1642,-2.3094,-2.4114,-2.4488,-2.5392,-2.6133,-2.6721,-2.6654,-2.6967,-2.7745,-2.8622,-2.9271,-1.3215,-1.331,0.0,0.0,-1.5431,-1.58,-1.6364,-1.6596,-1.6957,-1.7861,-1.8389,-1.8967,-1.957,-2.0601,-2.141,0.0,-2.207,-2.2635,-2.3278,-2.3515,-2.3771,-2.4102,-2.4307,-2.4683,-2.5511,-2.5415,-2.5358,-2.545,-2.4856,-2.4806,-2.5583,-2.5013,-2.5016,-2.5795,-2.5641,-2.5667,-2.6002,-2.6887,-2.7461,-2.7719,-2.8614,-2.9086,-2.9462,-2.982,-3.017,-3.0406,-3.0168,-3.0086,-3.0037,-2.9591,-2.9262,-2.8972,-2.8889,-2.8961,-2.8961,-2.9443,-2.9599,-2.9574,-2.958,-2.9505,-2.939,-2.944,-2.974,-3.0045,-3.0233,-3.0526,-3.0772,-3.1093,-3.1044,-3.0914,-3.1007,-3.0797,-3.058,-3.062,-3.0673,-3.0686,-3.0425,-3.0382,-3.0088,-2.9163,-2.8788,-2.8385,-2.7735,-2.7358,-2.7063,-2.693,-2.6865,-2.6556,-2.572,-2.5546,-2.5106,-2.4067,-2.3677,-2.3119,-2.2258,-2.18,-2.1557,-2.155,-2.1621,-2.1581,-2.1433,-2.2637,-2.3368,-2.3407,-2.4114,-2.5057,-2.6258,-2.6292,-2.663,-2.7181,-2.8171,-2.8367,-1.4282,0.0,0.0,-1.6274,-1.6971,-1.7287,-1.7614,-1.7805,-1.8197,-1.9023,-1.9442,-1.9772,-2.0436,-2.139,-2.1984,-2.172,-2.2483,-2.3132,-2.3481,-2.3693,-2.3906,-2.4209,-2.4248,-2.4467,-2.4977,-2.4904,-2.4866,-2.5077,-2.4386,-2.4365,-2.5372,-2.46,-2.4719,-2.5991,-2.5667,-2.5728,-2.6362,-2.7497,-2.8168,-2.857,-2.9642,-3.029,-3.0651,-3.0651,-3.0867,-3.1192,-3.0579,-3.0218,-3.0062,-2.9677,-2.9208,-2.8715,-2.8706,-2.8724,-2.8724,-2.9106,-2.9263,-2.9353,-2.9534,-2.9779,-2.9908,-2.9908,-3.0162,-3.0566,-3.0771,-3.1221,-3.1744,-3.1946,-3.2165,-3.2233,-3.1905,-3.165,-3.1389,-3.1233,-3.0968,-3.0783,-3.0715,-3.0543,-3.0142,-2.9148,-2.8877,-2.8554,-2.7846,-2.7439,-2.7152,-2.7188,-2.7408,-2.7244,-2.625,-2.6257,-2.5937,-2.4747,-2.4371,-2.3812,-2.2899,-2.2654,-2.2369,-2.1976,-2.2218,-2.2065,-2.1511,-2.2305,-2.283,-2.291,-2.3377,-2.4366,-2.5909,-2.6067,-2.6236,-2.657,-2.76,-2.7685,0.0,0.0,-1.5807,-1.7216,-1.8334,-1.9265,-1.9781,-2.0107,-2.0411,-2.0686,-2.0929,-2.1165,-2.1405,-2.1703,-2.208,-2.2666,-2.2802,-2.3083,-2.3434,-2.3693,-2.3799,-2.3809,-2.3809,-2.3818,0.0,-2.3818,-2.4075,-2.4762,-2.3732,-2.3164,-2.3174,-2.3154,-2.357,-2.4509,-2.4584,-2.5636,-2.7908,-2.8015,-2.8689,-3.0062,-3.0086,-3.0098,-3.011,-3.011,-3.0122,-3.0158,-3.0639,-3.0555,-3.0086,-3.0074,-2.9749,-2.922,-2.8715,-2.851,-2.851,-2.8724,-2.8961,-2.9131,-2.9131,-2.9275,-2.9419,-2.9419,-2.9729,-3.0266,-3.0944,-3.1992,-3.2975,-3.3682,-3.4164,-3.4316,-3.3997,-3.3191,-3.2511,-3.2845,-3.2198,-3.1394,-3.1161,-3.1306,-3.0904,-2.9083,-2.9138,-2.9173,-2.8267,-2.7787,-2.7524,-2.7401,-2.7539,-2.7393,-2.6923,-2.6826,-2.6399,-2.5454,-2.5109,-2.4647,-2.3928,-2.3616,-2.3228,-2.2588,-2.2346,-2.2092,-2.1912,-2.2255,-2.2816,-2.3636,-2.3823,-2.4579,-2.5973,-2.5596,-2.5568,-2.5887,-2.6937,-2.733,0.0,0.0,-1.7129,-1.8506,-1.9285,-1.9817,-2.0209,-2.054,-2.0862,-2.1167,-2.0752,-2.0391,-2.0459,-2.1174,-2.1704,-2.1713,-2.2666,-2.3507,-2.3531,-2.3447,-2.3359,-2.3359,-2.3359,0.0,0.0,0.0,0.0,-2.3653,-2.3301,-2.3515,-2.4496,-2.4729,-2.5466,-2.6808,-2.7016,-2.7499,-2.8348,-2.836,-2.8536,-2.9039,-2.94,-2.9569,-2.9569,-2.9569,-2.9749,-3.0074,-2.9905,-2.9725,-2.9569,-2.9569,-2.9256,-2.8751,-2.8582,-2.851,-2.851,-2.8578,-2.8657,-2.8749,-2.8973,-2.9131,-2.9275,-2.9793,-3.0545,-3.1368,-3.216,-3.3171,-3.4153,-3.4491,-3.4692,-3.4741,-3.461,-3.4301,-3.3918,-3.3682,-3.3425,-3.3104,-3.2765,-3.224,-3.1618,-3.0827,-3.0006,-2.9301,-2.8904,-2.8212,-2.764,-2.7452,-2.7335,-2.7321,-2.7218,-2.6974,-2.6707,-2.6385,-2.6026,-2.5558,-2.4727,-2.4567,-2.4146,-2.3381,-2.3135,-2.2981,-2.2825,-2.2674,-2.2678,-2.2844,-2.2705,-2.3206,-2.4422,-2.4225,-2.454,-2.5267,-2.5912,-2.612,0.0,-1.74,-1.8107,-1.939,-1.9937,-2.0191,-2.0504,-2.0751,-2.1042,-2.1343,-2.0627,-2.0009,-2.0216,-2.099,-2.1406,-2.1022,-2.2288,-2.3296,-2.3158,-2.2942,-2.2793,-2.3105,-2.3135,-2.3252,0.0,0.0,0.0,-2.3359,-2.3485,-2.4028,-2.4999,-2.5487,-2.6468,-2.792,-2.8023,-2.8262,-2.8787,-2.8607,-2.851,-2.851,-2.8859,-2.9015,-2.9015,-2.9015,-2.9208,-2.9508,-2.9364,-2.9184,-2.9027,-2.922,-2.8979,-2.851,-2.851,-2.851,-2.851,-2.851,-2.851,-2.851,-2.8816,-2.8895,-2.9118,-2.9561,-3.0456,-3.1355,-3.1942,-3.3101,-3.4182,-3.437,-3.4639,-3.4868,-3.4802,-3.4655,-3.4501,-3.436,-3.3962,-3.357,-3.3499,-3.2972,-3.2311,-3.1712,-3.0973,-3.0256,-2.9787,-2.8894,-2.8077,-2.77,-2.7488,-2.7386,-2.735,-2.713,-2.6937,-2.6712,-2.6486,-2.6101,-2.5452,-2.541,-2.505,-2.4225,-2.408,-2.3879,-2.3502,-2.3104,-2.291,-2.2976,-2.2658,-2.3059,-2.4038,-2.4165,-2.4533,-2.5133,-2.5845,-2.61,-1.7496,-1.8196,-1.874,-1.9849,-2.0247,-2.0514,-2.0757,-2.0785,-2.0961,-2.1329,-2.0675,-2.0093,0.0,0.0,-2.1244,-2.0678,-2.1665,-2.2471,-2.2369,-2.2225,-2.2384,0.0,0.0,0.0,0.0,0.0,0.0,-2.3929,0.0,-2.4625,-2.4646,-2.5475,-2.6618,-2.7954,-2.7589,-2.7988,-2.934,-2.8847,-2.8582,-2.8546,-2.8546,-2.8534,-2.851,-2.851,-2.851,-2.8546,-2.9039,-2.8979,-2.8546,-2.9051,-2.8955,-2.859,-2.851,-2.851,-2.859,-2.851,-2.851,-2.859,-2.859,-2.8657,-2.8803,-2.8791,-2.9561,-3.0393,-3.0607,-3.1915,-3.3297,-3.3506,-3.4153,-3.4802,-3.4698,-3.4442,-3.4327,-3.4787,-3.3916,-3.3108,-3.3456,-3.3513,-3.3043,-3.1832,-3.1894,-3.182,-3.0805,-2.9751,-2.8794,-2.8156,-2.792,-2.764,-2.7284,-2.7335,-2.7181,-2.6616,-2.651,-2.6418,-2.6165,-2.6111,-2.5816,-2.5117,-2.5089,-2.4769,-2.4026,-2.3609,-2.3582,-2.4016,-2.3676,-2.3905,-2.4819,-2.5324,-2.5444,-2.5326,-2.6564,-2.7006,-1.8328,-1.889,-1.939,-2.0046,-2.0296,-2.0555,-2.0781,-2.0958,-2.0858,-2.0042,-1.9209,-1.8393,0.0,0.0,0.0,-1.9332,-2.1359,0.0,-2.2344,-2.2446,0.0,0.0,0.0,-2.3387,-2.4069,-2.4712,0.0,0.0,-2.6002,-2.626,-2.6606,-2.7506,-2.8174,-2.8545,-2.9056,-2.9487,-2.9881,-2.9749,-2.9484,-2.91,-2.91,-2.8895,-2.851,-2.851,-2.851,-2.8522,-2.8655,-2.8643,-2.8522,-2.8655,-2.9004,-2.9328,-2.8736,-2.8882,-2.9328,-2.8736,-2.8816,-2.9184,-2.9184,-2.8882,-2.8657,-2.925,-3.0139,-3.1106,-3.1783,-3.2747,-3.3785,-3.4128,-3.4249,-3.4399,-3.4631,-3.4499,-3.4412,-3.4824,-3.4426,-3.4132,-3.456,-3.3966,-3.3295,-3.284,-3.1977,-3.1095,-3.0319,-2.95,-2.8894,-2.8662,-2.8157,-2.774,-2.7524,-2.7335,-2.7233,-2.7181,-2.6974,-2.6779,-2.6621,-2.6621,-2.6428,-2.6005,-2.5991,-2.5866,-2.5537,-2.4822,-2.4374,-2.4307,-2.3527,-2.3378,-2.3941,-2.4427,-2.4884,-2.5248,-2.5779,-2.624,-1.9087,-1.9525,-1.9885,-2.0276,-2.0444,-2.048,-2.02,-2.0171,-1.9935,-1.8754,-1.7841,0.0,0.0,0.0,0.0,0.0,0.0,0.0,-2.2281,-2.2347,-2.2466,0.0,-2.2969,0.0,-2.4413,-2.5335,-2.6368,0.0,-2.7547,-2.7671,-2.7939,-2.8849,-2.9479,-2.9691,-2.994,-3.0086,-3.0086,-3.0086,-2.9941,-2.9641,-2.9412,-2.9136,-2.8847,-2.8619,-2.851,-2.851,0.0,-2.851,-2.851,-2.851,-2.8736,-2.9106,-2.8657,-2.8961,-2.9484,-2.904,-2.9263,-2.9793,-2.9793,-2.9574,-2.9419,-2.9935,-3.082,-3.1709,-3.2218,-3.3058,-3.3882,-3.4278,-3.4264,-3.4196,-3.4631,-3.4563,-3.4481,-3.4616,-3.4434,-3.4193,-3.4284,-3.3924,-3.3521,-3.3245,-3.249,-3.1571,-3.06,-3.0061,-2.9501,-2.8927,-2.8469,-2.8056,-2.7655,-2.7473,-2.7321,-2.7144,-2.6989,-2.6765,-2.65,-2.6553,-2.65,-2.6233,-2.6326,-2.6326,-2.6179,-2.5678,-2.5266,-2.5051,-2.4543,-2.4297,-2.4297,-2.4916,-2.5328,-2.5495,-2.616,-2.6515,-1.9626,-2.0002,-2.0197,-2.0526,-2.0566,-2.0342,-1.9325,-1.9044,-1.864,-1.7295,0.0,-1.5918,-1.5706,0.0,-1.8431,-1.8202,0.0,-2.1958,-2.2339,-2.2075,-2.222,-2.3134,-2.2969,-2.3309,-2.4488,-2.5894,-2.7234,-2.862,-2.8976,-2.9144,-2.912,-2.9842,-3.0506,-3.0963,-3.053,-3.0302,-3.0302,-3.0302,-3.0266,-3.0194,-2.9725,-2.9472,-2.9388,-2.8859,-2.8619,-2.8607,-2.8546,-2.851,-2.8431,-2.8431,-2.8498,-2.8657,-2.8578,-2.8961,-2.9574,-2.9561,-2.9871,-3.0393,-3.0393,-3.0545,-3.062,-3.0607,-3.1267,-3.2074,-3.229,-3.2973,-3.3788,-3.4257,-3.434,-3.4257,-3.468,-3.4622,-3.4481,-3.4414,-3.4186,-3.3864,-3.3553,-3.3698,-3.3817,-3.3386,-3.3145,-3.2619,-3.1465,-3.092,-3.0298,-2.917,-2.8914,-2.8561,-2.7784,-2.7619,-2.7386,-2.6937,-2.6817,-2.6592,-2.6218,-2.6286,-2.6286,-2.6165,-2.6418,-2.6472,-2.6394,-2.6218,-2.6056,-2.5948,-2.5893,-2.5674,-2.5286,-2.5974,-2.6244,-2.6042,-2.7049,-2.7306,-1.9687,-1.9845,-1.9959,-2.0448,-2.0566,-2.0342,-1.9325,-1.874,0.0,0.0,0.0,-1.4104,-1.3232,-1.456,0.0,-1.7338,0.0,0.0,0.0,0.0,-2.2621,0.0,0.0,0.0,0.0,0.0,0.0,0.0,0.0,-3.1209,-3.1197,-3.1297,-3.1432,-3.1529,-3.1432,-3.1384,-3.1384,-3.1384,-3.1168,-3.0735,-3.0651,-3.0374,-2.9929,-2.94,-2.916,-2.9136,-2.8703,0.0,-2.8259,-2.8259,-2.8633,-2.9225,-2.9081,-2.9549,-3.038,-3.0241,-3.0545,-3.1071,-3.1071,-3.1736,-3.2318,-3.0833,-3.1057,-3.1869,-3.1869,-3.2904,-3.4156,-3.4427,-3.4583,-3.4794,-3.5128,-3.501,-3.4817,-3.4683,-3.4448,-3.4252,-3.3878,-3.3844,-3.3954,-3.3981,-3.348,-3.2922,-3.2536,-3.1369,-3.0432,-3.0112,-2.9565,-2.8931,-2.8104,-2.7661,-2.7401,-2.7299,-2.7093,-2.6884,-2.6674,-2.6674,-2.6659,-2.6457,-2.6645,-2.6727,-2.6727,-2.6418,-2.6244,-2.6244,-2.5879,-2.5729,-2.5784,-2.6244,-2.6496,-2.6587,-2.7049,-2.7408,-1.9555,-1.9795,-2.0098,-2.0365,-2.0397,-1.9968,-1.8434,0.0,0.0,0.0,0.0,-1.3372,-1.2559,0.0,0.0,0.0,0.0,0.0,0.0,0.0,0.0,0.0,0.0,0.0,0.0,0.0,0.0,0.0,0.0,-3.1661,-3.1661,-3.1661,-3.1661,-3.1661,-3.1661,-3.1661,-3.1661,-3.1661,-3.1541,-3.1288,-3.1011,-3.0747,-3.0482,-2.9953,-2.9474,-2.9116,-2.8853,-2.8521,-2.803,-2.803,-2.8259,-2.8633,-2.8633,-2.9316,-3.0291,-3.0317,-3.0934,-3.1703,-3.1703,-3.22,-3.269,-3.1809,-3.2232,-3.296,-3.2704,-3.3197,-3.3875,-3.4016,-3.4044,-3.4185,-3.481,-3.485,-3.4668,-3.4883,-3.4644,-3.4409,-3.4472,-3.4452,-3.4334,-3.3811,-3.3587,-3.3228,-3.2445,-3.1595,-3.0869,-3.0357,-3.0045,-2.9544,-2.8729,-2.808,-2.7497,-2.7122,-2.6989,-2.6779,-2.6568,-2.6592,-2.6578,-2.651,-2.6712,-2.6779,-2.6779,-2.6659,-2.6525,-2.6404,-2.6326,-2.6233,-2.6111,-2.6365,-2.6457,-2.6404,-2.693,-2.7086,-1.941,-1.9798,-2.0058,-2.0073,-2.0103,-1.9565,-1.7474,-1.6668,0.0,0.0,-1.2875,-1.2752,-1.2318,0.0,0.0,0.0,0.0,0.0,0.0,0.0,0.0,0.0,0.0,0.0,0.0,0.0,0.0,0.0,0.0,0.0,-3.1572,-3.1584,-3.1584,-3.1572,-3.1572,-3.1661,-3.1661,-3.1661,-3.1661,-3.1661,-3.124,-3.1048,-3.1023,-3.0494,-2.9953,-2.9436,-2.9328,-2.8898,-2.8339,-2.8339,-2.8339,-2.8419,-2.8633,-2.9381,-3.0291,-3.062,-3.132,-3.2182,-3.2314,-3.2516,-3.2846,-3.2917,-3.3423,-3.3922,-3.3452,-3.3606,-3.3831,-3.39,-3.3789,-3.3873,-3.4767,-3.48,-3.4683,-3.5213,-3.4942,-3.4681,-3.5122,-3.5184,-3.4896,-3.3798,-3.383,-3.3546,-3.2264,-3.176,-3.1245,-3.0609,-3.0463,-3.0184,-2.9351,-2.8642,-2.7977,-2.7258,-2.6939,-2.6659,-2.6447,-2.6472,-2.651,-2.6578,-2.6712,-2.6779,-2.6779,-2.6779,-2.6712,-2.6578,-2.6712,-2.6606,-2.6394,-2.6472,-2.6418,-2.6218,-2.6721,-2.6721,-1.9155,-1.9553,-1.9646,-1.9755,-1.9855,-1.9323,-1.7298,0.0,0.0,0.0,-1.2158,-1.1603,-1.1756,-1.184,0.0,0.0,0.0,0.0,0.0,0.0,0.0,0.0,0.0,0.0,0.0,0.0,0.0,0.0,0.0,0.0,-3.1306,-3.1151,-3.1151,-3.1306,-3.1306,-3.1484,-3.1661,-3.1661,-3.1661,-3.1661,-3.1613,-3.1589,-3.1577,-3.1048,-3.0834,-3.0783,-3.0288,-2.9982,0.0,-2.9833,-2.9833,-2.9833,-3.0443,-3.0833,-3.1158,-3.1776,-3.2096,-3.2241,-3.2574,-3.2917,-3.3269,-3.3632,-3.3646,-3.3605,-3.3605,-3.4072,-3.4725,-3.4837,-3.4936,-3.5091,-3.5644,-3.5473,-3.5213,-3.5574,-3.54,-3.5255,-3.5819,-3.5882,-3.5717,-3.5095,-3.447,-3.3697,-3.2868,-3.206,-3.1394,-3.1058,-3.1058,-3.069,-2.9682,-2.9479,-2.9203,-2.8579,-2.7339,-2.6578,-2.6727,-2.6592,-2.6578,-2.6779,-2.6779,-2.6779,-2.6779,-2.6779,-2.6779,-2.6779,-2.6592,-2.6592,-2.6727,-2.6578,-2.651,-2.6457,-2.651,-2.6721,-1.8787,-1.9277,-1.9532,-1.9565,-1.9201,-1.8334,-1.6525,0.0,0.0,-1.2208,-1.1576,-1.1297,-1.1219,-1.1425,-1.2058,0.0,0.0,0.0,0.0,0.0,0.0,0.0,0.0,0.0,0.0,0.0,0.0,0.0,0.0,0.0,-3.1151,-3.1062,-3.1062,-3.1306,-3.1306,-3.1395,-3.1661,-3.1661,-3.1661,-3.1661,-3.1661,-3.1661,-3.1749,-3.1882,-3.1736,-3.1351,-3.1204,-3.08,0.0,-2.9984,-2.9845,-2.9845,-3.0215,-3.0594,-3.1057,-3.1468,-3.1982,-3.2503,-3.2632,-3.3129,-3.3632,-3.377,-3.3922,-3.4005,-3.3785,-3.4039,-3.4378,-3.4295,-3.4295,-3.4448,-3.5131,-3.5391,-3.5509,-3.5688,-3.5524,-3.5489,-3.6022,-3.5591,-3.4982,-3.4562,-3.3848,-3.3004,-3.2165,-3.1719,-3.1424,-3.1234,-3.1234,-3.1028,-3.0411,-2.9988,-2.9653,-2.9276,-2.8045,-2.7277,-2.7438,-2.7035,-2.6832,-2.6899,-2.6899,-2.6899,-2.6779,-2.6779,-2.6779,-2.6779,-2.6712,-2.6712,-2.6779,-2.6712,-2.6645,-2.651,-2.6645,-2.6683,-1.807,-1.8838,-1.9287,-1.9287,-1.8604,-1.7583,0.0,0.0,-1.3199,-1.1624,-1.1254,-1.1146,-1.102,-1.1269,-1.1713,-1.2498,0.0,-1.552,0.0,0.0,0.0,0.0,0.0,0.0,0.0,0.0,0.0,0.0,0.0,0.0,-3.0972,-3.0984,-3.1062,-3.1229,-3.1229,-3.1395,-3.1661,-3.1661,-3.1661,-3.1661,-3.1661,-3.1661,-3.1749,-3.2189,-3.2155,-3.1672,-3.1763,-3.1436,0.0,-3.0624,-3.0469,-3.0469,-3.062,-3.0921,-3.1294,-3.1455,-3.1982,-3.2704,-3.2846,-3.3269,-3.3839,-3.3908,-3.4196,-3.4346,-3.4059,-3.4059,-3.4196,-3.4113,-3.4182,-3.4399,-3.4868,-3.5329,-3.5638,-3.5688,-3.5653,-3.5668,-3.6085,-3.5379,-3.4542,-3.4061,-3.335,-3.2509,-3.1644,-3.1482,-3.1467,-3.1351,-3.1292,-3.1117,-3.0821,-3.0441,-3.009,-2.9914,-2.8999,-2.8239,-2.7939,-2.7477,-2.7156,-2.7018,-2.7003,-2.6951,-2.6779,-2.6846,-2.6846,-2.6779,-2.6779,-2.6779,-2.6779,-2.6779,-2.6712,-2.6578,-2.6712,-2.6712,-1.6941,-1.807,-1.8818,-1.8818,-1.8274,-1.7256,0.0,0.0,-1.353,-1.1915,-1.1211,-1.094,-1.1175,-1.1032,-1.1441,-1.3108,-1.3861,0.0,0.0,0.0,0.0,0.0,0.0,0.0,0.0,0.0,0.0,0.0,0.0,0.0,-3.1038,-3.0984,-3.0984,-3.0984,-3.0984,-3.1241,-3.1661,-3.1661,-3.1661,-3.1661,-3.1661,-3.1661,-3.1661,-3.1749,-3.1709,-3.1829,-3.1845,-3.1913,0.0,-3.2105,-3.2169,-3.2169,-3.2182,-3.2182,-3.2182,-3.2182,-3.2444,-3.2775,-3.3129,-3.3479,-3.3839,-3.4264,-3.4414,-3.4414,-3.4414,-3.4414,-3.4481,-3.4802,-3.5162,-3.5439,-3.5228,-3.5359,-3.5554,-3.5703,-3.5688,-3.5752,-3.5973,-3.5442,-3.4789,-3.3955,-3.3231,-3.2509,-3.1644,-3.1482,-3.1467,-3.1351,-3.119,-3.1014,-3.0821,-3.0821,-3.0747,-3.0628,-3.0178,-2.9329,-2.8013,-2.7763,-2.7501,-2.7047,-2.7003,-2.6951,-2.6779,-2.6951,-2.6951,-2.6779,-2.6779,-2.6779,-2.6779,-2.6779,-2.6779,-2.6779,-2.6779,-2.6779,-1.5219,-1.5669,-1.5776,-1.5813,-1.5214,-1.4428,-1.359,0.0,-1.1717,-1.0871,-1.0536,-1.0399,-1.0558,-1.075,-1.1402,-1.292,-1.3981,0.0,0.0,0.0,0.0,0.0,0.0,0.0,0.0,0.0,0.0,0.0,0.0,0.0,-3.1217,-3.1062,-3.0984,-3.0984,-3.1139,-3.1407,-3.1661,-3.1661,-3.1661,-3.1661,-3.1661,-3.1661,-3.1749,-3.2189,-3.2438,-3.2413,-3.3006,-3.2987,-3.2631,-3.2785,-3.2535,-3.2182,-3.2182,-3.23,-3.2574,-3.2574,-3.2931,-3.3479,-3.3632,-3.3908,-3.4196,-3.4346,-3.4414,-3.4414,-3.4414,-3.4414,-3.4481,-3.4802,-3.5082,-3.5294,-3.5359,-3.5439,-3.5504,-3.5539,-3.5474,-3.5394,-3.5619,-3.5015,-3.4262,-3.3696,-3.3036,-3.2362,-3.1644,-3.1482,-3.1482,-3.1409,-3.1292,-3.1176,-3.1014,-3.0895,-3.0762,-3.0762,-3.0527,-3.0046,-2.9285,-2.8776,-2.8265,-2.7662,-2.7632,-2.7375,-2.6794,-2.6846,-2.6846,-2.6779,-2.6779,-2.6779,-2.6779,-2.6779,-2.6779,-2.6779,-2.6779,-2.6779,0.0,-1.4408,-1.4672,-1.4503,-1.3841,0.0,0.0,0.0,-1.0964,-1.044,-1.0312,-1.0312,-1.0428,-1.0736,-1.1467,-1.299,-1.3797,0.0,0.0,0.0,0.0,0.0,0.0,0.0,0.0,0.0,0.0,0.0,0.0,0.0,-3.1282,-3.1318,-3.1241,-3.1151,-3.1229,-3.1395,-3.1661,-3.1661,-3.1661,-3.1661,-3.1661,-3.1661,-3.1749,-3.2363,-3.2711,-3.2772,-3.3454,-3.3516,0.0,-3.3268,-3.2978,-3.2588,-3.2588,-3.2717,-3.2917,-3.2917,-3.3269,-3.377,-3.377,-3.4059,-3.4414,-3.4414,-3.4414,-3.4414,-3.4414,-3.4481,-3.4549,-3.4802,-3.5001,-3.5228,-3.5439,-3.5439,-3.5439,-3.5504,-3.5359,-3.5213,-3.5359,-3.4758,-3.4133,-3.3809,-3.3198,-3.2617,-3.1959,-3.1898,-3.1824,-3.1511,-3.1351,-3.1176,-3.1132,-3.0895,-3.0762,-3.0702,-3.0702,-3.0527,-3.0105,-2.9507,-2.8881,-2.821,-2.8236,-2.7958,-2.7263,-2.7234,-2.7132,-2.6899,-2.6832,-2.6779,-2.6779,-2.6779,-2.6779,-2.6779,-2.6779,-2.6779,0.0,0.0,0.0,0.0,0.0,0.0,0.0,0.0,0.0,0.0,0.0,-1.0621,-1.0728,-1.1006,-1.1707,-1.3338,0.0,0.0,0.0,0.0,0.0,0.0,0.0,0.0,0.0,0.0,0.0,0.0,0.0,0.0,-3.1288,-3.1512,-3.1625,-3.1306,-3.127,-3.1448,-3.1661,-3.1661,-3.1649,-3.1613,-3.1737,-3.1725,-3.1701,-3.2438,-3.2797,0.0,-3.3537,-3.3688,-3.348,-3.3553,-3.3459,-3.3269,-3.3269,-3.3339,-3.3339,-3.3339,-3.3563,-3.3839,-3.3839,-3.4059,-3.4414,-3.4414,-3.4414,-3.4414,-3.4414,-3.4549,-3.4698,-3.4868,-3.5016,-3.5213,-3.5439,-3.5294,-3.5213,-3.5439,-3.5294,-3.5148,-3.5213,-3.4708,-3.4263,-3.4203,-3.3713,-3.3089,-3.2632,-3.2482,-3.2243,-3.1631,-3.1279,-3.1132,-3.1087,-3.0955,-3.0762,-3.0642,-3.0702,-3.0762,-3.0642,-3.0031,-2.9421,-2.8782,-2.8866,-2.863,-2.7998,-2.7983,-2.7705,-2.715,-2.6934,-2.6852,-2.6852,-2.6808,-2.6779,-2.6779,-2.6823,-2.6852,-1.1036,0.0,-1.1664,-1.1256,0.0,0.0,0.0,0.0,0.0,0.0,0.0,0.0,0.0,0.0,0.0,0.0,0.0,0.0,0.0,0.0,0.0,0.0,0.0,0.0,0.0,0.0,0.0,0.0,0.0,-3.1107,-3.1209,-3.1405,-3.1588,-3.156,-3.1177,-3.1252,-3.1661,-3.1661,-3.138,-3.0823,-3.1918,-3.2142,-3.1663,-3.2928,-3.3458,-3.3518,-3.3701,-3.3688,-3.348,-3.3553,-3.3459,-3.3269,-3.3269,-3.3479,-3.3701,-3.3701,-3.3908,-3.4264,-3.4264,-3.4346,-3.4414,-3.4414,-3.4414,-3.4414,-3.4414,-3.4549,-3.4698,-3.4765,-3.4868,-3.5001,-3.5001,-3.5001,-3.5001,-3.5213,-3.503,-3.4898,-3.5148,-3.4898,-3.4501,-3.4228,-3.4021,-3.3661,-3.3119,-3.2585,-3.2213,-3.19,-3.1501,-3.1249,-3.1132,-3.1073,-3.1014,-3.1014,-3.0895,-3.0762,-3.0762,-3.0497,-3.0089,-2.9435,-2.9406,-2.9173,-2.8533,-2.8504,-2.8432,-2.8301,-2.7752,-2.7505,-2.7505,-2.7026,-2.6779,-2.6794,-2.7273,-2.7505,-1.0129,-1.0659,-1.1057,-1.0457,-1.0351,-1.039,0.0,0.0,0.0,0.0,0.0,0.0,0.0,0.0,0.0,0.0,0.0,0.0,0.0,0.0,0.0,0.0,0.0,0.0,0.0,0.0,0.0,0.0,0.0,-3.084,-3.1075,-3.1171,-3.1222,-3.1272,-3.0992,-3.0943,-3.1225,-3.0985,-3.0927,-3.1063,-3.1847,-3.2301,-3.2591,-3.3656,-3.4134,-3.4178,-3.442,-3.4397,-3.4245,-3.4144,-3.3974,-3.377,-3.377,-3.3908,-3.4059,-3.4059,-3.4196,-3.4414,-3.4414,-3.4414,-3.4414,-3.4414,-3.4414,-3.4414,-3.4414,-3.4549,-3.4698,-3.4698,-3.475,-3.4817,-3.4868,-3.4868,-3.4883,-3.5016,-3.4883,-3.4765,-3.5016,-3.4883,-3.4714,-3.4673,-3.4484,-3.4147,-3.3724,-3.3324,-3.2833,-3.218,-3.1841,-3.1516,-3.122,-3.1073,-3.0955,-3.0955,-3.0821,-3.0702,-3.0702,-3.0642,-3.0437,-3.0089,-3.006,-2.9828,-2.923,-2.9159,-2.8971,-2.8695,-2.8332,-2.8173,-2.8173,-2.7824,-2.765,-2.7665,-2.7998,-2.8173,-0.9644,-1.0786,-1.174,-1.0843,-1.0633,-1.0691,0.0,0.0,0.0,0.0,0.0,0.0,0.0,0.0,0.0,0.0,0.0,0.0,0.0,0.0,0.0,0.0,0.0,0.0,0.0,0.0,0.0,0.0,-3.0602,-3.0683,-3.0979,-3.1004,-3.0971,-3.0741,-3.0823,-3.0795,-3.0685,-3.0325,-3.0689,-3.1782,-3.195,-3.2609,-3.374,-3.4492,-3.4819,-3.4872,0.0,0.0,-3.5029,-3.4683,-3.4534,-3.4414,-3.4414,-3.4414,-3.4414,-3.4414,-3.4414,-3.4414,-3.4414,-3.4414,-3.4414,-3.4414,-3.4414,-3.4414,-3.4414,-3.4481,-3.4631,-3.4631,-3.4698,-3.4698,-3.4802,-3.475,-3.4698,-3.4802,-3.475,-3.4683,-3.4868,-3.4817,-3.4765,-3.5082,-3.4949,-3.464,-3.4327,-3.4085,-3.3657,-3.2535,-3.221,-3.19,-3.1456,-3.1117,-3.0881,-3.0821,-3.0702,-3.0642,-3.0568,-3.0568,-3.0568,-3.0568,-3.0568,-3.038,-2.9929,-2.9813,-2.9508,-2.8985,-2.8869,-2.8826,-2.8826,-2.8724,-2.8681,-2.8681,-2.8768,-2.8826,-0.9691,-1.1211,-1.2395,-1.0968,-1.109,-1.1412,0.0,0.0,0.0,0.0,0.0,0.0,0.0,0.0,0.0,0.0,0.0,0.0,0.0,0.0,0.0,0.0,0.0,0.0,0.0,0.0,0.0,0.0,-3.0675,-3.0753,-3.0804,-3.1093,-3.0989,-3.0728,-3.1455,-3.1562,-3.1005,-3.1376,-3.1934,-3.2663,-3.3577,-3.3952,-3.3925,-3.464,-3.5246,-3.5521,0.0,-3.4522,-3.4726,-3.417,-3.4146,-3.4414,-3.4414,-3.4414,-3.4414,-3.4414,-3.4414,-3.4414,-3.4414,-3.4414,-3.4414,-3.4414,-3.4414,-3.4414,-3.4414,-3.4414,-3.4481,-3.4481,-3.4563,-3.4698,-3.4549,-3.4481,-3.4481,-3.4698,-3.4549,-3.4549,-3.4802,-3.4817,-3.4765,-3.4935,-3.4935,-3.4839,-3.4618,-3.428,-3.3839,-3.339,-3.2662,-3.2108,-3.1898,-3.1516,-3.1176,-3.1087,-3.0895,-3.0702,-3.0628,-3.0568,-3.0568,-3.0568,-3.0568,-3.0584,-3.0482,-3.0482,-3.0379,-3.0277,-2.9755,-2.9479,-2.9479,-2.8942,-2.8681,-2.8695,-2.9232,-2.9479,-0.9486,-1.0818,-1.2048,-1.1694,-1.2611,-1.3527,0.0,0.0,0.0,0.0,0.0,0.0,0.0,0.0,0.0,0.0,0.0,0.0,0.0,0.0,0.0,0.0,0.0,0.0,0.0,0.0,0.0,-3.0533,-3.0533,-3.0573,-3.074,-3.0843,-3.0803,-3.0574,-3.0968,-3.1331,-3.1758,-3.195,-3.2468,-3.347,-3.3502,-3.3913,-3.4695,-3.4741,-3.5008,-3.5367,0.0,-3.4569,-3.4654,-3.4304,-3.4196,-3.4414,-3.4414,-3.4414,-3.4414,-3.4414,-3.4414,-3.4414,-3.4414,-3.4414,-3.4414,-3.4414,-3.4414,-3.4414,-3.4414,-3.4414,-3.4414,-3.4414,-3.4481,-3.4481,-3.4414,-3.4414,-3.4414,-3.4481,-3.4481,-3.4481,-3.475,-3.4683,-3.4616,-3.5016,-3.4802,-3.4668,-3.4817,-3.4501,-3.4047,-3.3696,-3.3255,-3.2797,-3.218,-3.1886,-3.1516,-3.1117,-3.0895,-3.0762,-3.0628,-3.0568,-3.0568,-3.0568,-3.0568,-3.0568,-3.0568,-3.0568,-3.0568,-3.0568,-3.0292,-3.0132,-3.0132,-2.9842,-2.9711,-2.9711,-3.0001,-3.0132,-0.9245,-1.0508,-1.1888,-1.2362,0.0,0.0,0.0,0.0,0.0,0.0,0.0,0.0,0.0,0.0,0.0,0.0,0.0,0.0,0.0,0.0,0.0,0.0,0.0,0.0,0.0,0.0,-3.0152,-3.0368,-3.0368,-3.0457,-3.0609,-3.0622,-3.0609,-3.0495,-3.0851,-3.1566,-3.267,-3.2818,-3.3279,-3.4151,-3.3496,-3.3923,-3.537,-3.4757,-3.4713,-3.506,-3.4768,-3.4624,-3.4595,-3.4466,-3.4414,-3.4414,-3.4414,-3.4414,-3.4414,-3.4414,-3.4414,-3.4414,-3.4414,-3.4414,-3.4414,-3.4414,-3.4414,-3.4414,-3.4414,-3.4414,-3.4414,-3.4414,-3.4414,-3.4414,-3.4414,-3.4414,-3.4414,-3.4414,-3.4414,-3.4414,-3.4631,-3.4563,-3.4549,-3.4949,-3.475,-3.4534,-3.4735,-3.4616,-3.4307,-3.3944,-3.3791,-3.3401,-3.2653,-3.2222,-3.1793,-3.1293,-3.0983,-3.0762,-3.0628,-3.0568,-3.0568,-3.0568,-3.0568,-3.0568,-3.0568,-3.0568,-3.0568,-3.0568,-3.0568,-3.0568,-3.0568,-3.0568,-3.0568,-3.0568,-3.0568,-3.0568,-0.9137,-1.0841,-1.2513,-1.2478,-1.3009,0.0,0.0,0.0,0.0,0.0,0.0,0.0,0.0,0.0,0.0,0.0,0.0,0.0,0.0,0.0,0.0,0.0,0.0,0.0,0.0,-3.0228,-3.0152,-3.0368,-3.0368,-3.0444,-3.0444,-3.0444,-3.057,-3.082,-3.2158,-3.3063,-3.3473,-3.4612,-3.5124,-3.4971,-3.459,-3.4691,-3.5402,-3.4694,-3.4672,-3.5065,-3.4625,-3.4404,-3.4404,-3.4428,-3.4414,-3.4414,-3.4414,-3.4414,-3.4414,-3.4414,-3.4414,-3.4414,-3.4414,-3.4414,-3.4414,-3.4414,-3.4414,-3.4414,-3.4414,-3.4414,-3.4414,-3.4414,-3.4414,-3.4414,-3.4414,-3.4414,-3.4414,-3.4414,-3.4414,-3.4414,-3.4414,-3.4563,-3.4631,-3.4481,-3.4668,-3.4802,-3.4481,-3.4563,-3.4616,-3.4341,-3.3951,-3.3659,-3.3636,-3.2643,-3.1955,-3.1789,-3.1187,-3.0762,-3.0628,-3.0568,-3.0568,-3.0568,-3.0568,-3.0568,-3.0568,-3.0568,-3.0568,-3.0568,-3.0568,-3.0568,-3.0568,-3.0568,-3.0568,-3.0568,-3.0568,-3.0568,-0.959,-1.163,-1.3661,-1.38,-1.494,0.0,0.0,0.0,0.0,0.0,0.0,0.0,0.0,0.0,0.0,0.0,0.0,0.0,0.0,0.0,0.0,0.0,0.0,0.0,-3.0228,-3.0152,-3.0152,-3.0228,-3.0292,-3.0368,-3.0368,-3.0797,-3.1145,-3.1281,-3.2231,-3.3021,-3.3379,-3.3859,-3.42,-3.4497,-3.437,-3.451,-3.4852,-3.4254,-3.4257,-3.464,-3.4448,-3.4414,-3.4414,-3.4414,-3.4414,-3.4414,-3.4414,-3.4414,-3.4414,-3.4414,-3.4414,-3.4414,-3.4414,-3.4414,-3.4414,-3.4414,-3.4414,-3.4414,-3.4414,-3.4414,-3.4414,-3.4414,-3.4414,-3.4414,-3.4414,-3.4414,-3.4414,-3.4414,-3.4414,-3.4414,-3.4414,-3.4481,-3.4549,-3.4563,-3.4616,-3.4616,-3.4563,-3.4563,-3.4481,-3.4414,-3.4263,-3.4024,-3.3747,-3.3328,-3.2727,-3.1874,-3.1141,-3.0642,-3.0568,-3.0568,-3.0568,-3.0568,-3.0568,-3.0568,-3.0568,-3.0568,-3.0568,-3.0568,-3.0568,-3.0568,-3.0568,-3.0568,-3.0568,-3.0568,-3.0568,-3.0568,-1.0742,-1.2412,-1.4157,0.0,0.0,0.0,0.0,0.0,0.0,0.0,0.0,0.0,0.0,0.0,0.0,0.0,0.0,0.0,0.0,0.0,0.0,0.0,0.0,-3.0152,-3.0075,-3.0011,-3.0011,-3.0011,-3.0355,-3.057,-3.057,-3.1294,-3.1796,-3.2015,-3.2605,-3.3115,-3.3632,-3.3632,-3.377,-3.4128,-3.4227,-3.437,-3.4426,-3.4123,-3.4128,-3.4414,-3.4414,-3.4414,-3.4414,-3.4414,-3.4414,-3.4414,-3.4414,-3.4414,-3.4414,-3.4414,-3.4414,-3.4414,-3.4414,-3.4414,-3.4414,-3.4414,-3.4414,-3.4414,-3.4414,-3.4414,-3.4414,-3.4414,-3.4414,-3.4414,-3.4414,-3.4414,-3.4414,-3.4346,-3.4346,-3.4414,-3.4346,-3.4346,-3.4414,-3.4563,-3.4481,-3.4414,-3.4563,-3.4481,-3.4414,-3.4414,-3.4414,-3.4254,-3.3937,-3.382,-3.3206,-3.1918,-3.1256,-3.08,-3.0597,-3.0568,-3.0568,-3.0568,-3.0568,-3.0568,-3.0568,-3.0568,-3.0568,-3.0568,-3.0568,-3.0568,-3.0568,-3.0568,-3.0568,-3.0507,-3.0507,-3.0507,-1.262,-1.3047,0.0,0.0,0.0,0.0,0.0,0.0,0.0,0.0,0.0,0.0,0.0,0.0,0.0,0.0,0.0,0.0,0.0,0.0,0.0,0.0,0.0,-3.0292,-3.0152,-2.9934,-2.9792,-2.9792,-3.0482,-3.0895,-3.0895,-3.1709,-3.2434,-3.3143,-3.3213,-3.3589,-3.4414,-3.4414,-3.4278,-3.4128,-3.4278,-3.4414,-3.4414,-3.4414,-3.4414,-3.4414,-3.4414,-3.4414,-3.4414,-3.4414,-3.4414,-3.4414,-3.4414,-3.4414,-3.4414,-3.4414,-3.4414,-3.4414,-3.4414,-3.4414,-3.4414,-3.4414,-3.4414,-3.4414,-3.4414,-3.4414,-3.4414,-3.4414,-3.4414,-3.4414,-3.4414,-3.4414,-3.4346,-3.4128,-3.4264,-3.4346,-3.4128,-3.4264,-3.4414,-3.4414,-3.4414,-3.4414,-3.4414,-3.4414,-3.4414,-3.4414,-3.4414,-3.4414,-3.4414,-3.3966,-3.3206,-3.1933,-3.1664,-3.1264,-3.064,-3.0582,-3.0582,-3.0568,-3.0568,-3.0568,-3.0568,-3.0568,-3.0568,-3.0568,-3.0568,-3.0568,-3.0568,-3.0568,-3.0507,-3.0312,-3.0312,-3.0312,-1.1517,-1.3715,0.0,0.0,0.0,0.0,0.0,0.0,0.0,0.0,0.0,0.0,0.0,0.0,0.0,0.0,0.0,0.0,0.0,0.0,0.0,0.0,0.0,-3.0152,-3.0075,-3.0419,-3.0545,-3.0545,-3.1267,-3.1709,-3.1709,-3.2434,-3.2932,-3.3213,-3.3742,-3.4182,-3.4414,-3.4414,-3.4346,-3.4346,-3.4346,-3.4346,-3.4196,-3.4346,-3.4414,-3.4414,-3.4414,-3.4414,-3.4414,-3.4414,-3.4414,-3.4414,-3.4414,-3.4414,-3.4414,-3.4414,-3.4414,-3.4414,-3.4414,-3.4414,-3.4414,-3.4414,-3.4414,-3.4414,-3.4414,-3.4414,-3.4414,-3.4414,-3.4414,-3.4414,-3.4414,-3.4414,-3.4414,-3.4346,-3.4346,-3.4414,-3.4346,-3.4346,-3.4414,-3.4414,-3.4414,-3.4414,-3.4414,-3.4414,-3.4414,-3.4414,-3.4414,-3.4414,-3.4414,-3.3914,-3.3441,-3.3063,-3.2483,-3.1961,-3.1293,-3.1235,-3.1047,-3.0611,-3.0568,-3.0568,-3.0568,-3.0568,-3.0568,-3.0568,-3.0568,-3.0568,-3.0568,-3.0568,-3.0507,-3.0312,-3.0312,-3.0266,-1.3606,0.0,0.0,0.0,0.0,0.0,0.0,0.0,0.0,0.0,0.0,0.0,0.0,0.0,0.0,0.0,0.0,0.0,0.0,0.0,0.0,0.0,-3.0241,-3.0139,-3.0432,-3.0683,-3.1044,-3.1341,-3.2074,-3.2506,-3.2506,-3.3227,-3.3673,-3.3673,-3.4113,-3.4414,-3.4414,-3.4414,-3.4414,-3.4414,-3.4414,-3.4346,-3.4196,-3.4346,-3.4414,-3.4414,-3.4414,-3.4414,-3.4414,-3.4414,-3.4414,-3.4414,-3.4414,-3.4414,-3.4414,-3.4414,-3.4414,-3.4414,-3.4414,-3.4414,-3.4414,-3.4414,-3.4414,-3.4414,-3.4414,-3.4414,-3.4414,-3.4414,-3.4414,-3.4414,-3.4414,-3.4414,-3.4414,-3.4278,-3.4346,-3.4414,-3.4278,-3.4346,-3.4414,-3.4414,-3.4414,-3.4414,-3.4414,-3.4414,-3.4414,-3.4414,-3.4414,-3.4414,-3.4414,-3.408,-3.3746,-3.3499,-3.3122,-3.2629,-3.1975,-3.1671,-3.1351,-3.0974,-3.0713,-3.0568,-3.0568,-3.0568,-3.0568,-3.0507,-3.0568,-3.0568,-3.0507,-3.0568,-3.0447,-3.0219,-3.0219,-3.0144,0.0,0.0,0.0,0.0,0.0,0.0,0.0,0.0,0.0,0.0,0.0,0.0,0.0,0.0,0.0,0.0,0.0,0.0,-3.0075,0.0,0.0,0.0,-3.0152,-3.0279,-3.097,-3.1044,-3.1328,-3.2146,-3.2875,-3.3297,-3.3297,-3.4031,-3.4414,-3.4414,-3.4414,-3.4414,-3.4414,-3.4414,-3.4414,-3.4414,-3.4414,-3.4414,-3.4414,-3.4414,-3.4414,-3.4414,-3.4414,-3.4414,-3.4414,-3.4414,-3.4414,-3.4414,-3.4414,-3.4414,-3.4414,-3.4414,-3.4414,-3.4414,-3.4414,-3.4414,-3.4414,-3.4414,-3.4414,-3.4414,-3.4414,-3.4414,-3.4414,-3.4414,-3.4414,-3.4414,-3.4414,-3.4414,-3.4346,-3.4196,-3.4264,-3.4346,-3.4196,-3.4264,-3.4414,-3.4414,-3.4414,-3.4414,-3.4414,-3.4414,-3.4414,-3.4414,-3.4414,-3.4414,-3.4414,-3.4414,-3.4196,-3.3616,-3.3558,-3.3296,-3.2658,-3.2048,-3.1579,-3.1526,-3.0988,-3.064,-3.0568,-3.0568,-3.0507,-3.0312,-3.0507,-3.0447,-3.0266,-3.0447,-3.0401,-3.005,-3.005,-2.9974,0.0,0.0,0.0,0.0,0.0,0.0,0.0,0.0,0.0,0.0,0.0,0.0,0.0,0.0,0.0,0.0,0.0,0.0,-3.0075,-2.9934,-3.0152,-3.0872,-3.0292,-3.0368,-3.1709,-3.1856,-3.2146,-3.2932,-3.3673,-3.4113,-3.4113,-3.4346,-3.4414,-3.4414,-3.4414,-3.4414,-3.4414,-3.4414,-3.4414,-3.4414,-3.4414,-3.4414,-3.4414,-3.4414,-3.4414,-3.4414,-3.4414,-3.4414,-3.4414,-3.4414,-3.4414,-3.4414,-3.4414,-3.4414,-3.4414,-3.4414,-3.4414,-3.4414,-3.4414,-3.4414,-3.4414,-3.4414,-3.4414,-3.4414,-3.4414,-3.4414,-3.4414,-3.4414,-3.4414,-3.4414,-3.4414,-3.4414,-3.4414,-3.4346,-3.4346,-3.4414,-3.4346,-3.4346,-3.4414,-3.4414,-3.4414,-3.4414,-3.4414,-3.4414,-3.4414,-3.4414,-3.4414,-3.4414,-3.4414,-3.4414,-3.4356,-3.4225,-3.4076,-3.3801,-3.3311,-3.2992,-3.2471,-3.1584,-3.1395,-3.109,-3.0597,-3.0568,-3.0507,-3.0312,-3.0326,-3.0266,-3.0172,-3.0172,-3.0097,-2.9884,-2.9884,-2.9775,0.0,0.0,0.0,0.0,0.0,0.0,0.0,0.0,0.0,0.0,0.0,0.0,0.0,0.0,0.0,0.0,0.0,0.0,-3.0419,-3.0419,-3.0633,-3.1516,-3.122,-3.1368,-3.2506,-3.2648,-3.2946,-3.3742,-3.4182,-3.4414,-3.4414,-3.4414,-3.4414,-3.4414,-3.4414,-3.4414,-3.4414,-3.4414,-3.4414,-3.4414,-3.4414,-3.4414,-3.4414,-3.4414,-3.4414,-3.4414,-3.4414,-3.4414,-3.4414,-3.4414,-3.4414,-3.4414,-3.4414,-3.4414,-3.4414,-3.4414,-3.4414,-3.4414,-3.4414,-3.4414,-3.4414,-3.4414,-3.4414,-3.4414,-3.4414,-3.4414,-3.4414,-3.4414,-3.4414,-3.4414,-3.4414,-3.4414,-3.4414,-3.4414,-3.4414,-3.4414,-3.4414,-3.4414,-3.4414,-3.4414,-3.4414,-3.4414,-3.4414,-3.4414,-3.4414,-3.4414,-3.4414,-3.4346,-3.4264,-3.4346,-3.4346,-3.4264,-3.4128,-3.3998,-3.3816,-3.3365,-3.2838,-3.2227,-3.1959,-3.1575,-3.0953,-3.0971,-3.0812,-3.0326,-3.0312,-3.0205,-3.0111,-3.0111,-2.9974,-2.9808,-2.9808,-2.9699,0.0,0.0,0.0,0.0,0.0,0.0,0.0,0.0,0.0,0.0,0.0,0.0,0.0,0.0,0.0,0.0,0.0,0.0,-3.082,-3.1044,-3.1415,-3.2218,-3.2146,-3.2434,-3.3297,-3.3297,-3.352,-3.4346,-3.4414,-3.4414,-3.4414,-3.4414,-3.4414,-3.4414,-3.4414,-3.4414,-3.4414,-3.4414,-3.4414,-3.4346,-3.4346,-3.4346,-3.4346,-3.4414,-3.4414,-3.4414,-3.4414,-3.4414,-3.4414,-3.4414,-3.4414,-3.4414,-3.4414,-3.4414,-3.4414,-3.4414,-3.4414,-3.4414,-3.4414,-3.4414,-3.4414,-3.4414,-3.4414,-3.4414,-3.4414,-3.4414,-3.4414,-3.4414,-3.4414,-3.4414,-3.4414,-3.4414,-3.4414,-3.4414,-3.4414,-3.4414,-3.4414,-3.4414,-3.4414,-3.4414,-3.4414,-3.4414,-3.4414,-3.4414,-3.4414,-3.4346,-3.4346,-3.4278,-3.4128,-3.421,-3.4278,-3.4128,-3.4059,-3.3991,-3.4059,-3.345,-3.2972,-3.2925,-3.2571,-3.2062,-3.143,-3.1512,-3.1252,-3.0596,-3.0366,-3.0205,-3.0036,-2.9913,-2.9775,-2.9546,-2.9546,-2.9498,0.0,0.0,0.0,0.0,0.0,0.0,0.0,0.0,0.0,0.0,0.0,0.0,0.0,0.0,0.0,0.0,0.0,0.0,0.0,-3.1489,-3.2218,-3.2932,-3.2506,-3.2662,-3.4113,-3.3589,-3.352,-3.4346,-3.4414,-3.4414,-3.4414,-3.4414,-3.4414,-3.4414,-3.4414,-3.4414,-3.4414,-3.4414,-3.4346,-3.4128,-3.4128,-3.4128,-3.4128,-3.4346,-3.4414,-3.4414,-3.4414,-3.4414,-3.4414,-3.4414,-3.4414,-3.4414,-3.4414,-3.4414,-3.4414,-3.4414,-3.4414,-3.4414,-3.4414,-3.4414,-3.4414,-3.4414,-3.4414,-3.4414,-3.4414,-3.4414,-3.4414,-3.4414,-3.4414,-3.4414,-3.4414,-3.4414,-3.4414,-3.4414,-3.4414,-3.4414,-3.4414,-3.4414,-3.4414,-3.4414,-3.4414,-3.4414,-3.4414,-3.4414,-3.4346,-3.4196,-3.4128,-3.4128,-3.4128,-3.4005,-3.402,-3.4059,-3.3868,-3.3744,-3.3882,-3.3673,-3.3306,-3.2939,-3.2839,-3.2511,-3.1882,-3.1854,-3.1811,-3.1661,-3.0764,-3.0129,-2.9822,-2.9247,-2.8853,-2.8684,-2.8684,-2.8684,0.0,0.0,0.0,0.0,0.0,0.0,0.0,0.0,0.0,0.0,0.0,0.0,0.0,0.0,0.0,0.0,0.0,0.0,0.0,-3.2218,-3.3017,-3.3742,-3.3604,-3.3687,-3.4332,-3.4113,-3.4045,-3.4332,-3.4414,-3.4414,-3.4414,-3.4414,-3.4414,-3.4414,-3.4414,-3.4414,-3.4414,-3.4414,-3.4346,-3.4264,-3.4264,-3.4264,-3.4264,-3.4346,-3.4414,-3.4414,-3.4414,-3.4414,-3.4414,-3.4414,-3.4414,-3.4414,-3.4414,-3.4414,-3.4414,-3.4414,-3.4414,-3.4414,-3.4414,-3.4414,-3.4414,-3.4414,-3.4414,-3.4414,-3.4414,-3.4414,-3.4414,-3.4414,-3.4414,-3.4414,-3.4414,-3.4414,-3.4414,-3.4414,-3.4414,-3.4414,-3.4414,-3.4414,-3.4414,-3.4414,-3.4414,-3.4414,-3.4414,-3.4414,-3.4346,-3.4128,-3.4128,-3.4059,-3.3868,-3.3882,-3.3882,-3.3799,-3.3675,-3.3605,-3.3744,-3.3536,-3.3339,-3.3125,-3.3249,-3.2965,-3.2326,-3.243,-3.2274,-3.1917,-3.1019,-3.0486,-3.0361,-2.9617,-2.898,-2.8492,-2.8492,-2.8298,0.0,0.0,0.0,0.0,0.0,0.0,0.0,0.0,0.0,0.0,0.0,0.0,0.0,0.0,0.0,0.0,0.0,0.0,0.0,-3.3017,-3.3742,-3.4346,-3.4414,-3.4414,-3.4414,-3.4414,-3.4414,-3.4414,-3.4414,-3.4414,-3.4414,-3.4414,-3.4414,-3.4414,-3.4414,-3.4414,-3.4346,-3.4278,-3.4278,-3.4346,-3.4346,-3.4346,-3.4346,-3.4414,-3.4414,-3.4414,-3.4414,-3.4414,-3.4414,-3.4414,-3.4414,-3.4414,-3.4414,-3.4414,-3.4414,-3.4414,-3.4414,-3.4414,-3.4414,-3.4414,-3.4414,-3.4414,-3.4414,-3.4414,-3.4414,-3.4414,-3.4414,-3.4414,-3.4414,-3.4414,-3.4414,-3.4414,-3.4414,-3.4414,-3.4414,-3.4414,-3.4414,-3.4414,-3.4414,-3.4414,-3.4414,-3.4414,-3.4414,-3.4414,-3.4346,-3.4074,-3.4074,-3.3937,-3.3675,-3.3675,-3.3675,-3.3605,-3.3536,-3.3536,-3.3536,-3.3396,-3.3326,-3.3326,-3.3466,-3.3309,-3.2829,-3.2951,-3.2805,-3.2269,-3.1579,-3.1118,-3.1027,-3.0059,-2.9215,-2.8462,-2.8314,-2.7855,0.0,0.0,0.0,0.0,0.0,0.0,0.0,0.0,0.0,0.0,0.0,0.0,0.0,0.0,0.0,0.0,0.0,0.0,0.0,-3.3811,-3.4332,-3.4414,-3.4414,-3.4414,-3.4414,-3.4414,-3.4414,-3.4414,-3.4414,-3.4414,-3.4414,-3.4414,-3.4414,-3.4414,-3.4414,-3.4346,-3.4128,-3.402,-3.402,-3.4128,-3.4128,-3.4128,-3.4128,-3.4346,-3.4414,-3.4414,-3.4414,-3.4414,-3.4414,-3.4414,-3.4414,-3.4414,-3.4414,-3.4414,-3.4414,-3.4414,-3.4414,-3.4414,-3.4414,-3.4414,-3.4414,-3.4414,-3.4414,-3.4414,-3.4414,-3.4414,-3.4414,-3.4414,-3.4414,-3.4414,-3.4414,-3.4414,-3.4414,-3.4414,-3.4414,-3.4414,-3.4414,-3.4414,-3.4414,-3.4414,-3.4414,-3.4414,-3.4414,-3.4414,-3.4278,-3.3965,-3.3882,-3.3827,-3.3605,-3.3466,-3.3396,-3.3605,-3.3466,-3.3326,-3.3326,-3.3326,-3.3326,-3.3326,-3.3326,-3.3312,-3.3269,-3.3269,-3.3255,-3.3227,-3.2623,-3.2072,-3.1664,-3.0349,-2.9227,-2.8405,-2.7799,-2.7149,0.0,0.0,0.0,0.0,0.0,0.0,0.0,0.0,0.0,0.0,0.0,0.0,0.0,0.0,0.0,0.0,0.0,0.0,0.0,-3.3894,-3.4414,-3.4414,-3.4414,-3.4414,-3.4414,-3.4414,-3.4414,-3.4414,-3.4414,-3.4414,-3.4414,-3.4414,-3.4414,-3.4414,-3.4264,-3.4142,-3.3951,-3.4005,-3.4059,-3.4128,-3.4196,-3.4278,-3.4278,-3.4346,-3.4414,-3.4414,-3.4414,-3.4414,-3.4414,-3.4414,-3.4414,-3.4414,-3.4414,-3.4414,-3.4414,-3.4414,-3.4414,-3.4414,-3.4414,-3.4414,-3.4414,-3.4414,-3.4414,-3.4414,-3.4414,-3.4414,-3.4414,-3.4414,-3.4414,-3.4414,-3.4414,-3.4414,-3.4414,-3.4414,-3.4414,-3.4414,-3.4414,-3.4414,-3.4414,-3.4414,-3.4414,-3.4414,-3.4414,-3.4414,-3.4346,-3.4074,-3.4005,-3.3937,-3.3605,-3.3536,-3.3466,-3.3396,-3.3326,-3.3326,-3.3326,-3.3326,-3.3326,-3.3326,-3.3326,-3.3326,-3.3326,-3.3326,-3.3326,-3.3326,-3.3101,-3.2679,-3.2129,-3.1296,-3.0429,-2.9644,-2.895,-2.804,0.0,0.0,0.0,0.0,0.0,0.0,0.0,0.0,0.0,0.0,0.0,0.0,0.0,0.0,0.0,0.0,0.0,0.0,0.0,-3.3977,-3.4346,-3.4414,-3.4346,-3.4346,-3.4414,-3.4414,-3.4414,-3.4414,-3.4414,0.0,-3.4414,-3.4346,-3.4278,-3.421,-3.4005,-3.3937,-3.3896,-3.402,-3.4074,-3.4128,-3.4278,-3.4414,-3.4414,-3.4414,-3.4414,-3.4414,-3.4414,-3.4414,-3.4414,-3.4414,-3.4414,-3.4414,-3.4414,-3.4414,-3.4414,-3.4414,-3.4414,-3.4414,-3.4414,-3.4414,-3.4414,-3.4414,-3.4414,-3.4414,-3.4414,-3.4414,-3.4414,-3.4414,-3.4414,-3.4414,-3.4414,-3.4414,-3.4414,-3.4414,-3.4414,-3.4414,-3.4414,-3.4414,-3.4414,-3.4414,-3.4414,-3.4414,-3.4414,-3.4414,-3.4346,-3.4128,-3.4128,-3.3991,-3.3744,-3.3675,-3.3605,-3.3396,-3.3466,-3.3466,-3.3396,-3.3396,-3.3396,-3.3396,-3.3326,-3.3326,-3.3326,-3.3326,-3.3326,-3.3326,-3.3326,-3.3115,-3.2707,-3.2103,-3.1416,-3.0664,-2.9977,-2.8833,0.0,0.0,0.0,0.0,0.0,0.0,0.0,0.0,0.0,0.0,0.0,0.0,0.0,0.0,0.0,0.0,0.0,0.0,0.0,-3.4196,-3.4196,-3.4414,-3.4196,-3.4196,-3.4346,-3.4414,-3.4414,-3.4414,-3.4414,-3.4414,-3.4414,-3.4196,-3.4005,-3.3896,-3.3675,-3.3675,-3.3896,-3.3896,-3.3951,-3.4128,-3.4278,-3.4414,-3.4414,-3.4414,-3.4414,-3.4414,-3.4414,-3.4414,-3.4414,-3.4414,-3.4414,-3.4414,-3.4414,-3.4414,-3.4414,-3.4414,-3.4414,-3.4414,-3.4414,-3.4414,-3.4414,-3.4414,-3.4414,-3.4414,-3.4414,-3.4414,-3.4414,-3.4414,-3.4414,-3.4414,-3.4414,-3.4414,-3.4414,-3.4414,-3.4414,-3.4414,-3.4414,-3.4414,-3.4414,-3.4414,-3.4414,-3.4414,-3.4414,-3.4414,-3.4346,-3.4128,-3.4128,-3.4074,-3.3896,-3.3882,-3.3827,-3.3605,-3.3758,-3.3827,-3.3605,-3.3605,-3.3605,-3.3605,-3.3396,-3.3326,-3.3326,-3.3326,-3.3326,-3.3326,-3.3326,-3.3326,-3.3326,-3.2721,-3.2055,-3.1346,-3.0677,-2.9478,-1.2508,0.0,0.0,0.0,0.0,0.0,0.0,0.0,0.0,0.0,0.0,0.0,0.0,0.0,0.0,0.0,0.0,0.0,0.0,0.0,-3.4346,-3.4414,-3.4196,-3.4128,-3.4196,-3.4196,-3.4196,0.0,-3.4346,-3.4346,-3.4196,-3.4005,-3.3882,-3.3675,-3.3605,-3.3536,-3.3466,-3.3605,-3.3744,-3.3951,-3.4142,-3.4264,-3.4414,-3.4414,-3.4414,-3.4414,-3.4414,-3.4414,-3.4414,-3.4414,-3.4414,-3.4414,-3.4414,-3.4414,-3.4414,-3.4414,-3.4414,-3.4414,-3.4414,-3.4414,-3.4414,-3.4414,-3.4414,-3.4414,-3.4414,-3.4414,-3.4414,-3.4414,-3.4414,-3.4414,-3.4414,-3.4414,-3.4414,-3.4414,-3.4414,-3.4414,-3.4414,-3.4414,-3.4414,-3.4414,-3.4414,-3.4414,-3.4414,-3.4414,-3.4414,-3.4346,-3.4346,-3.421,-3.3965,-3.4005,-3.3937,-3.3605,-3.3758,-3.3896,-3.3827,-3.3675,-3.3605,-3.3605,-3.3396,-3.3326,-3.3326,-3.3326,-3.3326,-3.3326,-3.3326,-3.3326,-3.3326,-3.3143,-3.2919,-3.2737,-3.0949,-2.9494,0.0,0.0,0.0,0.0,0.0,0.0,-1.7532,-2.0479,-2.34,0.0,0.0,0.0,0.0,0.0,0.0,0.0,0.0,0.0,0.0,0.0,-3.3417,-3.3483,-3.3648,-3.3739,-3.3806,-3.4052,-3.4196,-3.4128,-3.4196,-3.4128,-3.3937,-3.3813,-3.3675,-3.3466,-3.3466,-3.3396,-3.3326,-3.3466,-3.3675,-3.3758,-3.4005,-3.4128,-3.4264,-3.4346,-3.4414,-3.4414,-3.4414,-3.4414,-3.4414,-3.4414,-3.4414,-3.4414,-3.4414,-3.4414,-3.4414,-3.4414,-3.4414,-3.4414,-3.4414,-3.4414,-3.4414,-3.4414,-3.4414,-3.4414,-3.4414,-3.4414,-3.4414,-3.4414,-3.4414,-3.4414,-3.4414,-3.4414,-3.4414,-3.4414,-3.4414,-3.4414,-3.4414,-3.4414,-3.4414,-3.4414,-3.4414,-3.4414,-3.4414,-3.4414,-3.4414,-3.4414,-3.4414,-3.4278,-3.4005,-3.4059,-3.3991,-3.3744,-3.3882,-3.3951,-3.3882,-3.3827,-3.3675,-3.3605,-3.3396,-3.3326,-3.3326,-3.3326,-3.3326,-3.3326,-3.3326,-3.3326,-3.3326,-3.3326,-3.3086,-3.2632,-3.0777,-2.9504,0.0,0.0,0.0,0.0,0.0,0.0,-1.8568,-2.0253,-2.2083,-2.5724,0.0,0.0,0.0,0.0,0.0,0.0,0.0,0.0,0.0,0.0,-3.2112,-3.232,-3.2811,-3.3157,-3.3354,-3.3877,-3.409,-3.4013,-3.4027,-3.3822,-3.3506,-3.3506,-3.3465,-3.3312,-3.3326,-3.3326,-3.3326,-3.3466,-3.3605,-3.3605,-3.3937,-3.4059,-3.4128,-3.4278,-3.4414,-3.4414,-3.4414,-3.4414,-3.4414,-3.4414,-3.4414,-3.4414,-3.4414,-3.4414,-3.4414,-3.4414,-3.4414,-3.4414,-3.4414,-3.4414,-3.4414,-3.4414,-3.4414,-3.4414,-3.4414,-3.4414,-3.4414,-3.4414,-3.4414,-3.4414,-3.4414,-3.4414,-3.4414,-3.4414,-3.4414,-3.4414,-3.4414,-3.4414,-3.4414,-3.4414,-3.4414,-3.4414,-3.4414,-3.4414,-3.4414,-3.4414,-3.4414,-3.4346,-3.4128,-3.4128,-3.4074,-3.3882,-3.4005,-3.4005,-3.3882,-3.3896,-3.3827,-3.3605,-3.3396,-3.3326,-3.3326,-3.3326,-3.3326,-3.3326,-3.3326,-3.3326,-3.3326,-3.3171,-3.2704,-3.1796,-3.0367,-2.9471,0.0,0.0,0.0,0.0,0.0,0.0,-1.5612,-1.7273,-1.896,0.0,0.0,0.0,0.0,0.0,0.0,0.0,0.0,0.0,0.0,0.0,0.0,-3.2449,-3.2421,-3.2429,-3.2429,-3.2544,-3.2832,-3.3336,-3.3379,-3.3245,-3.2854,-3.284,-3.293,-3.3312,-3.3326,-3.3326,-3.3326,-3.3326,-3.3466,-3.3605,-3.3675,-3.3868,-3.4128,-3.4128,-3.4264,-3.4414,-3.4414,-3.4414,-3.4414,-3.4414,-3.4414,-3.4414,-3.4414,-3.4414,-3.4414,-3.4414,-3.4414,-3.4414,-3.4414,-3.4414,-3.4414,-3.4414,-3.4414,-3.4414,-3.4414,-3.4414,-3.4414,-3.4414,-3.4414,-3.4414,-3.4414,-3.4414,-3.4414,-3.4414,-3.4414,-3.4414,-3.4414,-3.4414,-3.4414,-3.4414,-3.4414,-3.4414,-3.4414,-3.4414,-3.4414,-3.4414,-3.4414,-3.4346,-3.4128,-3.4128,-3.4074,-3.3882,-3.3951,-3.3965,-3.3896,-3.3744,-3.3605,-3.3605,-3.3396,-3.3326,-3.3326,-3.3326,-3.3326,-3.3326,-3.3326,-3.3326,-3.3326,-3.2475,-3.2101,-3.2015,-3.0279,-2.9459,0.0,0.0,0.0,-1.4098,0.0,0.0,0.0,-1.732,-1.8637,-1.9822,-2.1205,0.0,0.0,0.0,0.0,0.0,0.0,0.0,0.0,0.0,0.0,-3.1416,-3.1691,-3.1815,-3.1815,-3.2118,-3.245,-3.2557,-3.2468,-3.2336,-3.2203,-3.2419,-3.2661,-3.2972,-3.3157,-3.3326,-3.3326,-3.3326,-3.3326,-3.3466,-3.3536,-3.3744,-3.4005,-3.4074,-3.4196,-3.4414,-3.4414,-3.4414,-3.4414,-3.4414,-3.4414,-3.4414,-3.4414,-3.4414,-3.4414,-3.4414,-3.4414,-3.4414,-3.4414,-3.4414,-3.4414,-3.4414,-3.4414,-3.4414,-3.4414,-3.4414,-3.4414,-3.4414,-3.4414,-3.4414,-3.4414,-3.4414,-3.4414,-3.4414,-3.4414,-3.4414,-3.4414,-3.4414,-3.4414,-3.4414,-3.4414,-3.4414,-3.4414,-3.4414,-3.4414,-3.4414,-3.4414,-3.4346,-3.4128,-3.4074,-3.3951,-3.3896,-3.3827,-3.3744,-3.3744,-3.3675,-3.3536,-3.3466,-3.3396,-3.3326,-3.3326,-3.3326,-3.3326,-3.3326,-3.3326,-3.3326,-3.3466,-3.2475,-3.1942,-3.1928,-3.0291,-2.9537,0.0,0.0,0.0,0.0,0.0,-1.4943,0.0,0.0,0.0,-2.0,0.0,0.0,0.0,0.0,0.0,0.0,0.0,0.0,0.0,0.0,0.0,-2.9203,-3.0346,-3.1061,-3.0814,-3.1319,-3.1685,-3.1661,-3.1154,-3.1053,-3.1443,-3.19,-3.2281,-3.256,-3.2931,-3.3199,-3.3326,-3.3326,-3.3326,-3.3326,-3.3466,-3.3675,-3.3827,-3.4005,-3.4128,-3.4346,-3.4414,-3.4414,-3.4414,-3.4414,-3.4414,-3.4414,-3.4414,-3.4414,-3.4414,-3.4414,-3.4414,-3.4414,-3.4414,-3.4414,-3.4414,-3.4414,-3.4414,-3.4414,-3.4414,-3.4414,-3.4414,-3.4414,-3.4414,-3.4414,-3.4414,-3.4414,-3.4414,-3.4414,-3.4414,-3.4414,-3.4414,-3.4414,-3.4414,-3.4414,-3.4414,-3.4414,-3.4414,-3.4414,-3.4414,-3.4414,-3.4414,-3.4346,-3.4196,-3.4005,-3.3965,-3.3896,-3.3744,-3.3605,-3.3536,-3.3536,-3.3466,-3.3326,-3.3326,-3.3326,-3.3326,-3.3326,-3.3326,-3.3326,-3.3326,-3.3396,-3.3605,-3.2761,-3.2245,-3.1942,-3.038,-2.9614,0.0,0.0,0.0,0.0,-1.4433,0.0,0.0,0.0,-1.5272,-1.5834,0.0,0.0,0.0,0.0,0.0,0.0,0.0,0.0,0.0,0.0,0.0,-2.5243,-2.8001,-2.9392,-2.826,-2.8626,-2.9347,-3.024,-2.9283,-2.9249,-3.0544,-3.0956,-3.1523,-3.2438,-3.2577,-3.2887,-3.3312,-3.3326,-3.3326,-3.3326,-3.3326,-3.3466,-3.3605,-3.3813,-3.402,-3.4128,-3.4346,-3.4414,-3.4414,-3.4414,-3.4414,-3.4414,-3.4414,-3.4414,-3.4414,-3.4414,-3.4414,-3.4414,-3.4414,-3.4414,-3.4414,-3.4414,-3.4414,-3.4414,-3.4414,-3.4414,-3.4414,-3.4414,-3.4414,-3.4414,-3.4414,-3.4414,-3.4414,-3.4414,-3.4414,-3.4414,-3.4414,-3.4414,-3.4414,-3.4414,-3.4414,-3.4414,-3.4414,-3.4414,-3.4414,-3.4414,-3.4414,-3.4414,-3.4346,-3.421,-3.4005,-3.3882,-3.3744,-3.3536,-3.3326,-3.3326,-3.3326,-3.3326,-3.3326,-3.3326,-3.3326,-3.3326,-3.3326,-3.3326,-3.3326,-3.3396,-3.3605,-3.3466,-3.3143,-3.2547,-3.0607,-2.9768,0.0,0.0,0.0,0.0,0.0,0.0,-1.4828,0.0,-1.4746,0.0,0.0,0.0,0.0,0.0,0.0,0.0,-1.7316,0.0,0.0,0.0,0.0,0.0,0.0,0.0,-2.6547,-2.7744,-2.8757,-2.9483,-2.9009,-2.9089,-3.0037,-3.0913,-3.1474,-3.1579,-3.2628,-3.3083,-3.2901,-3.3129,-3.3326,-3.3326,-3.3326,-3.3466,-3.3758,-3.3896,-3.402,-3.4264,-3.4346,-3.4414,-3.4414,-3.4414,-3.4414,-3.4414,-3.4414,-3.4414,-3.4414,-3.4414,-3.4414,-3.4414,-3.4414,-3.4414,-3.4414,-3.4414,-3.4414,-3.4414,-3.4414,-3.4414,-3.4414,-3.4414,-3.4414,-3.4414,-3.4414,-3.4414,-3.4414,-3.4414,-3.4414,-3.4414,-3.4414,-3.4414,-3.4414,-3.4414,-3.4414,-3.4414,-3.4414,-3.4414,-3.4414,-3.4414,-3.4414,-3.4414,-3.4414,-3.4196,-3.4059,-3.4005,-3.3744,-3.3536,-3.3466,-3.3396,-3.3326,-3.3326,-3.3326,-3.3326,-3.3326,-3.3326,-3.3326,-3.3326,-3.3326,-3.3396,-3.3605,-3.3744,-3.366,-3.3479,-3.1636,-3.0758,-1.7478,0.0,0.0,0.0,0.0,0.0,0.0,0.0,0.0,0.0,0.0,0.0,0.0,0.0,0.0,0.0,0.0,-1.7016,0.0,0.0,0.0,0.0,0.0,0.0,0.0,-2.6064,-2.7265,-2.8239,-2.8223,-2.8587,-2.9704,-3.0623,-3.1133,-3.0927,-3.2184,-3.2837,-3.2695,-3.2958,-3.3213,-3.3396,-3.3326,-3.3466,-3.3827,-3.3896,-3.402,-3.4346,-3.4414,-3.4414,-3.4414,-3.4414,-3.4414,-3.4414,-3.4414,-3.4414,-3.4414,-3.4414,-3.4414,-3.4414,-3.4414,-3.4414,-3.4414,-3.4414,-3.4414,-3.4414,-3.4414,-3.4414,-3.4414,-3.4414,-3.4414,-3.4414,-3.4414,-3.4414,-3.4414,-3.4414,-3.4414,-3.4414,-3.4414,-3.4414,-3.4414,-3.4414,-3.4414,-3.4414,-3.4414,-3.4414,-3.4414,-3.4414,-3.4414,-3.4414,-3.4414,-3.4264,-3.4128,-3.4128,-3.3868,-3.3675,-3.3605,-3.3396,-3.3326,-3.3326,-3.3326,-3.3326,-3.3326,-3.3326,-3.3326,-3.3326,-3.3326,-3.3396,-3.3605,-3.3744,-3.3882,-3.4005,-3.2533,-3.1796,0.0,0.0,0.0,-1.6912,0.0,0.0,0.0,0.0,-1.4902,0.0,0.0,0.0,0.0,0.0,0.0,0.0,0.0,0.0,0.0,0.0,0.0,0.0,0.0,0.0,0.0,-2.2833,-2.3826,0.0,-2.6224,-2.7216,-2.9476,-2.9741,-3.0148,-3.0772,-3.0984,-3.1646,-3.2897,-3.2723,-3.2982,-3.3605,-3.3396,-3.3396,-3.3605,-3.3827,-3.3951,-3.4128,-3.4346,-3.4414,-3.4414,-3.4414,-3.4414,-3.4414,-3.4414,-3.4414,-3.4414,-3.4414,-3.4414,-3.4414,-3.4414,-3.4414,-3.4414,-3.4414,-3.4414,-3.4414,-3.4414,-3.4414,-3.4414,-3.4414,-3.4414,-3.4414,-3.4414,-3.4414,-3.4414,-3.4414,-3.4414,-3.4414,-3.4414,-3.4414,-3.4414,-3.4414,-3.4414,-3.4414,-3.4414,-3.4414,-3.4414,-3.4414,-3.4414,-3.4414,-3.4414,-3.4414,-3.4346,-3.4128,-3.3951,-3.3827,-3.3605,-3.3396,-3.3326,-3.3326,-3.3326,-3.3326,-3.3326,-3.3326,-3.3326,-3.3326,-3.3326,-3.3396,-3.3605,-3.3605,-3.3675,-3.3882,-3.3185,-3.2434,0.0,0.0,-2.2468,-1.9613,0.0,0.0,0.0,0.0,0.0,0.0,0.0,0.0,0.0,0.0,0.0,0.0,0.0,0.0,0.0,0.0,0.0,0.0,0.0,0.0,0.0,0.0,0.0,0.0,-2.6586,-2.7953,-2.9064,-2.9959,-3.0361,-3.0148,-3.1162,-3.1668,-3.1604,-3.243,-3.2823,-3.2968,-3.3462,-3.3744,-3.3813,-3.3937,-3.4142,-3.4278,-3.4346,-3.4414,-3.4414,-3.4414,-3.4414,-3.4414,-3.4414,-3.4414,-3.4414,-3.4414,-3.4414,-3.4414,-3.4414,-3.4414,-3.4414,-3.4414,-3.4414,-3.4414,-3.4414,-3.4414,-3.4414,-3.4414,-3.4414,-3.4414,-3.4414,-3.4414,-3.4414,-3.4414,-3.4414,-3.4414,-3.4414,-3.4414,-3.4414,-3.4414,-3.4414,-3.4414,-3.4414,-3.4414,-3.4414,-3.4414,-3.4414,-3.4414,-3.4414,-3.4414,-3.4346,-3.4346,-3.4088,-3.3896,-3.3827,-3.3466,-3.3326,-3.3326,-3.3326,-3.3326,-3.3326,-3.3326,-3.3326,-3.3326,-3.3326,-3.3396,-3.3605,-3.3605,-3.3744,-3.4005,-3.3269,-3.2747,-2.4874,-2.512,0.0,-2.1994,-2.1568,0.0,-1.8064,0.0,-1.6508,0.0,0.0,0.0,0.0,0.0,0.0,0.0,0.0,0.0,0.0,-1.4951,0.0,0.0,0.0,0.0,0.0,0.0,0.0,-2.4276,-2.5969,-2.7484,0.0,-2.9695,-3.0021,-2.9822,-3.0805,-3.1225,-3.1117,-3.2133,-3.2697,-3.2844,-3.3582,-3.3951,-3.3951,-3.4059,-3.4196,-3.4414,-3.4414,-3.4414,-3.4414,-3.4414,-3.4414,-3.4414,-3.4414,-3.4414,-3.4414,-3.4414,-3.4414,-3.4414,-3.4414,-3.4414,-3.4414,-3.4414,-3.4414,-3.4414,-3.4414,-3.4414,-3.4457,-3.469,-3.4588,-3.4457,-3.469,-3.4588,-3.4414,-3.4414,-3.4414,-3.4414,-3.4414,-3.4414,-3.4414,-3.4414,-3.4414,-3.4414,-3.4414,-3.4414,-3.4414,-3.4414,-3.4414,-3.4414,-3.4414,-3.4414,-3.4414,-3.4414,-3.4142,-3.3951,-3.3813,-3.3466,-3.3326,-3.3326,-3.3326,-3.3326,-3.3326,-3.3326,-3.3326,-3.3326,-3.3326,-3.3396,-3.3605,-3.3536,-3.3521,-3.3563,-3.3129,-3.269]},{"header":{"parameterUnit":"m.s-1","parameterCategory":1,"la1":30.6,"la2":29.2853,"lo1":-89.7004,"lo2":-87.6739,"dy":0.0162,"dx":0.0183,"nx":112,"ny":82,"refTime":"2023-05-14T06:00:00:Z","depth":0,"parameterNumber":3,"parameterNumberName":"V-component_of_WINDS"},"data":[0.0,0.0,0.0,0.0,0.0,0.0,0.0,0.0,0.0,0.0,0.0,0.0,0.0,0.0,0.0,0.0,0.0,0.0,0.0,0.0,0.0,0.0,0.0,0.0,0.0,0.0,0.0,0.0,0.0,0.0,0.0,0.0,0.0,0.0,0.0,0.0,0.0,0.0,0.0,0.0,0.0,0.0,0.0,0.0,0.0,0.0,0.0,0.0,0.0,0.0,0.0,0.0,0.0,0.0,0.0,0.0,0.0,0.0,0.0,0.0,0.0,0.0,0.0,0.0,0.0,0.0,0.0,0.0,0.0,0.0,0.0,0.0,0.0,0.0,0.0,0.0,0.0,0.0,0.0,0.0,0.0,0.0,0.0,0.0,0.0,0.0,0.0,0.0,0.0,0.0,-0.414,-0.4289,-0.2314,-0.0517,0.0562,0.2183,0.2527,0.1125,0.0,0.0,0.0,0.0,0.0,0.0,0.0,0.0,0.0,0.0,0.0,0.0,0.0,0.0,0.0,0.0,0.0,0.0,0.0,0.0,0.0,0.0,0.0,0.0,0.0,0.0,0.0,0.0,0.0,0.0,0.0,0.0,0.0,0.0,0.0,0.0,0.0,0.0,0.0,0.0,0.0,0.0,0.0,0.0,0.0,0.0,0.0,0.0,0.0,0.0,0.0,0.0,0.0,0.0,0.0,0.0,0.0,0.0,0.0,0.0,0.0,0.0,0.0,0.0,0.0,0.0,0.0,0.0,0.0,0.0,0.0,0.0,0.0,0.0,0.0,0.0,0.0,0.0,0.0,0.0,0.0,0.0,0.0,0.0,0.0,0.0,0.0,0.0,0.0,0.0,0.0,0.0,0.0,0.0,0.0,0.0,0.0,0.0,0.0,0.0,0.0,0.0,0.0,0.0,-0.4938,-0.4016,-0.3217,-0.232,-0.1382,0.0677,0.1369,0.027,0.0,0.0,0.0,0.0,0.0,0.0,0.0,0.0,0.0,0.0,0.0,0.0,0.0,0.0,0.0,0.0,0.0,0.0,0.0,0.0,0.0,0.0,0.0,0.0,0.0,0.0,0.0,0.0,0.0,0.0,0.0,0.0,0.0,0.0,0.0,0.0,0.0,0.0,0.0,0.0,0.0,0.0,0.0,0.0,0.0,0.0,0.0,0.0,0.0,0.0,0.0,0.0,0.0,0.0,0.0,0.0,0.0,0.0,0.0,0.0,0.0,0.0,0.0,0.0,0.0,0.0,0.0,0.0,0.0,0.0,0.0,0.0,0.0,0.0,0.0,0.0,0.0,0.0,0.0,0.0,0.0,0.0,0.0,0.0,0.0,0.0,0.0,0.0,0.0,0.0,0.0,0.0,0.0,0.0,0.0,0.0,0.0,0.0,0.0,0.0,0.0,0.0,0.0,-0.7276,-0.6595,-0.6053,-0.4843,-0.3693,-0.2684,-0.063,0.0212,-0.0744,0.0449,0.0,0.0,0.0,0.0,0.0,0.0,0.0,0.0,0.0,0.0,0.0,0.0,0.0,0.0,0.0,0.0,0.0,0.0,0.0,0.0,0.0,0.0,0.0,0.0,0.0,0.0,0.0,0.0,0.0,0.0,0.0,0.0,0.0,0.0,0.0,0.0,0.0,0.0,0.0,0.0,0.0,0.0,0.0,0.0,0.0,0.0,0.0,0.0,0.0,0.0,0.0,0.0,0.0,0.0,0.0,0.0,0.0,0.0,0.0,0.0,0.0,0.0,0.0,0.0,0.0,0.0,0.0,0.0,0.0,0.0,0.0,0.0,0.0,0.0,0.0,0.0,0.0,0.0,0.0,0.0,0.0,0.0,0.0,0.0,0.0,0.0,0.0,0.0,0.0,0.0,0.0,0.0,0.0,0.0,0.0,0.0,0.0,0.0,0.0,0.0,0.0,0.0,-0.8962,-0.871,-0.8471,-0.6969,-0.5434,-0.403,-0.1989,-0.1027,-0.1699,-0.1051,0.0,0.0,0.0,0.0,0.0,0.0,0.0,0.0,0.0,0.0,0.0,0.0,0.0,0.0,0.0,0.0,0.0,0.0,0.0,0.0,0.0,0.0,0.0,0.0,0.0,0.0,0.0,0.0,0.0,0.0,0.0,0.0,0.0,0.0,0.0,0.0,0.0,0.0,0.0,0.0,0.0,0.0,0.0,0.0,0.0,0.0,0.0,0.0,0.0,0.0,0.0,0.0,0.0,0.0,0.0,0.0,0.0,0.0,0.0,0.0,0.0,0.0,0.0,0.0,0.0,0.0,0.0,0.0,0.0,0.0,0.0,0.0,0.0,0.0,0.0,0.0,0.0,0.0,0.0,0.0,0.0,0.0,0.0,0.0,0.0,0.0,0.0,0.0,0.0,0.0,0.0,0.0,0.0,0.0,0.0,0.0,0.0,0.0,0.0,0.0,0.0,0.0,-1.1463,-1.1355,-1.0405,-0.9439,-0.7946,-0.5727,-0.3573,-0.2352,-0.2416,-0.1612,0.0,0.0,0.0,0.0,0.0,0.0,0.0,0.0,0.0,0.0,0.0,0.0,0.0,0.0,0.0,0.0,0.0,0.0,0.0,0.0,0.0,0.0,0.0,0.0,0.0,0.0,0.0,0.0,0.0,0.0,0.0,0.0,0.0,0.0,0.0,0.0,0.0,0.0,0.0,0.0,0.0,0.0,0.0,0.0,0.0,0.0,0.0,0.0,0.0,0.0,0.0,0.0,0.0,0.0,0.0,0.0,0.0,0.0,0.0,0.0,0.0,0.0,0.0,0.0,0.0,0.0,0.0,0.0,0.0,0.0,0.0,0.0,0.0,0.0,0.0,0.0,0.0,0.0,0.0,0.0,0.0,0.0,0.0,0.0,0.0,0.0,0.0,0.0,0.0,0.0,0.0,0.0,0.0,0.0,0.0,0.0,0.0,0.0,0.0,0.0,0.0,0.0,-1.2096,-1.2362,0.0,-1.0302,-0.876,-0.7959,-0.5941,-0.4512,-0.3921,0.0,0.0,0.0,0.0,0.0,0.0,0.0,0.0,0.0,0.0,0.0,0.0,0.0,0.0,0.0,0.0,0.0,0.0,0.0,0.0,0.0,0.0,0.0,0.0,0.0,0.0,0.0,0.0,0.0,0.0,0.0,0.0,0.0,0.0,0.0,0.0,0.0,0.0,0.0,0.0,0.0,0.0,0.0,0.0,0.0,0.0,0.0,0.0,0.0,0.0,0.0,0.0,0.0,0.0,0.0,0.0,0.0,0.0,0.0,0.0,0.0,0.0,0.0,0.0,0.0,0.0,0.0,0.0,0.0,0.0,0.0,0.0,0.0,0.0,0.0,0.0,0.0,0.0,0.0,0.0,0.0,0.0,0.0,0.0,0.0,0.0,0.0,0.0,0.0,0.0,0.0,0.0,0.0,0.0,0.0,0.0,0.0,0.0,0.0,0.0,0.0,0.0,-1.2433,-1.3292,-1.3864,0.0,-1.1947,-1.0404,-0.9345,-0.7901,-0.6439,-0.4946,0.0,0.0,0.0,0.0,0.0,0.0,0.0,0.0,0.0,0.0,0.0,0.0,0.0,0.0,0.0,0.0,0.0,0.0,0.0,0.0,0.0,0.0,0.0,0.0,0.0,0.0,0.0,0.0,0.0,0.0,0.0,0.0,0.0,0.0,0.0,0.0,0.0,0.0,0.0,0.0,0.0,0.0,0.0,0.0,0.0,0.0,0.0,0.0,0.0,0.0,0.0,0.0,0.0,0.0,0.0,0.0,0.0,0.0,0.0,0.0,0.0,0.0,0.0,0.0,0.0,0.0,0.0,0.0,0.0,0.0,0.0,0.0,0.0,0.0,0.0,0.0,0.0,0.0,0.0,0.0,0.0,0.0,0.0,0.0,0.0,0.0,0.0,0.0,0.0,0.0,0.0,0.0,0.0,0.0,0.0,0.0,0.0,0.0,0.0,0.0,0.0,0.0,-1.3519,-1.5266,-1.6073,-1.4789,-1.4604,-1.3202,-0.9687,-0.9264,-0.8072,0.0,0.0,0.0,0.0,0.0,0.0,0.0,0.0,0.0,0.0,0.0,0.0,0.0,0.0,0.0,0.0,0.0,0.0,0.0,0.0,0.0,0.0,0.0,0.0,0.0,0.0,0.0,0.0,0.0,0.0,0.0,0.0,0.0,0.0,0.0,0.0,0.0,0.0,0.0,0.0,0.0,0.0,0.0,0.0,0.0,0.0,0.0,0.0,0.0,0.0,0.0,0.0,0.0,0.0,0.0,0.0,0.0,0.0,0.0,0.0,0.0,0.0,0.0,0.0,0.0,0.0,0.0,0.0,0.0,0.0,0.0,0.0,0.0,0.0,0.0,0.0,0.0,0.0,0.0,0.0,0.0,0.0,0.0,0.0,0.0,0.0,0.0,0.0,0.0,0.0,0.0,0.0,0.0,0.0,0.0,0.0,0.0,0.0,0.0,0.0,0.0,0.0,0.0,-1.3826,-1.5781,-1.7067,-1.6687,-1.5438,-1.4187,-1.3135,-1.1453,-0.9641,-0.7661,0.0,0.0,0.0,0.0,0.0,0.0,0.0,0.0,0.0,0.0,0.0,0.0,0.0,0.0,0.0,0.0,0.0,0.0,0.0,0.0,0.0,0.0,0.0,0.0,0.0,0.0,0.0,0.0,0.0,0.0,0.0,0.0,0.0,0.0,0.0,0.0,0.0,0.0,0.0,0.0,0.0,0.0,0.0,0.0,0.0,0.0,0.0,0.0,0.0,0.0,0.0,0.0,0.0,0.0,0.0,0.0,0.0,0.0,0.0,0.0,0.0,0.0,0.0,0.0,0.0,0.0,0.0,0.0,0.0,0.0,0.0,0.0,0.0,0.0,0.0,0.0,0.0,0.0,0.0,0.0,0.0,0.0,0.0,0.0,0.0,0.0,0.0,0.0,0.0,0.0,0.0,0.0,0.0,0.0,0.0,0.0,0.0,0.0,0.0,0.0,0.0,0.0,-1.454,-1.6877,-1.8623,-1.8656,-1.7105,-1.586,-1.5262,-1.3554,-1.1692,-0.965,0.0,0.0,0.0,0.0,0.0,0.0,0.0,0.0,0.0,0.0,0.0,0.0,0.0,0.0,0.0,0.0,0.0,0.0,0.0,0.0,0.0,0.0,0.0,0.0,0.0,0.0,0.0,0.0,0.0,0.0,0.0,0.0,0.0,0.0,0.0,0.0,0.0,0.0,0.0,0.0,0.0,0.0,0.0,0.0,0.0,0.0,0.0,0.0,0.0,0.0,0.0,0.0,0.0,0.0,0.0,0.0,0.0,0.0,0.0,0.0,0.0,0.0,0.0,0.0,0.0,0.0,0.0,0.0,0.0,0.0,0.0,0.0,0.0,0.0,0.0,0.0,0.0,0.0,0.0,0.0,0.0,0.0,0.0,0.0,0.0,0.0,0.0,0.0,0.0,0.0,0.0,0.0,0.0,0.0,0.0,0.0,0.0,0.0,0.0,0.0,0.0,0.0,-1.56,-1.8313,-2.0401,-2.0583,-1.9367,-1.7966,-1.6646,-1.5654,-1.3992,-1.1531,0.0,0.0,0.0,0.0,0.0,0.0,0.0,0.0,0.0,0.0,0.0,0.0,0.0,0.0,0.0,0.0,0.0,0.0,0.0,0.0,0.0,0.0,0.0,0.0,0.0,0.0,0.0,0.0,0.0,0.0,0.0,0.0,0.0,0.0,0.0,0.0,0.0,0.0,0.0,0.0,0.0,0.0,0.0,0.0,0.0,0.0,0.0,0.0,0.0,0.0,0.0,0.0,0.0,0.0,0.0,0.0,0.0,0.0,0.0,0.0,-1.9882,0.0,0.0,0.0,0.0,0.0,0.0,0.0,0.0,0.0,0.0,0.0,0.0,0.0,0.0,0.0,0.0,0.0,0.0,0.0,0.0,0.0,0.0,0.0,0.0,0.0,0.0,0.0,0.0,0.0,0.0,0.0,0.0,0.0,0.0,0.0,0.0,0.0,0.0,0.0,0.0,0.0,-1.7034,-1.9546,-2.1529,-2.2148,-2.0552,-1.946,-1.9598,-1.7677,-1.5542,-1.3523,-1.2582,0.0,0.0,0.0,0.0,0.0,0.0,0.0,0.0,0.0,0.0,0.0,0.0,0.0,0.0,0.0,0.0,0.0,0.0,0.0,0.0,0.0,0.0,0.0,0.0,0.0,0.0,0.0,0.0,0.0,0.0,0.0,0.0,0.0,0.0,0.0,0.0,0.0,0.0,0.0,0.0,0.0,0.0,0.0,0.0,0.0,0.0,0.0,0.0,0.0,0.0,0.0,0.0,0.0,0.0,0.0,0.0,0.0,0.0,0.0,0.0,-1.9388,0.0,0.0,0.0,0.0,0.0,0.0,0.0,0.0,0.0,0.0,0.0,0.0,0.0,0.0,0.0,0.0,0.0,0.0,0.0,0.0,0.0,0.0,0.0,0.0,0.0,0.0,0.0,0.0,0.0,0.0,0.0,0.0,0.0,0.0,0.0,0.0,0.0,0.0,0.0,0.0,-1.8194,-2.1106,-2.3218,-2.3508,-2.2273,-2.1371,-2.1231,-1.9513,-1.7824,-1.6417,-1.5058,0.0,0.0,0.0,0.0,0.0,0.0,0.0,0.0,0.0,0.0,0.0,0.0,0.0,0.0,0.0,0.0,0.0,0.0,0.0,0.0,0.0,0.0,0.0,0.0,0.0,0.0,0.0,0.0,0.0,0.0,0.0,0.0,0.0,0.0,0.0,0.0,0.0,0.0,0.0,0.0,0.0,0.0,0.0,0.0,0.0,0.0,0.0,0.0,0.0,0.0,0.0,0.0,0.0,-2.1513,-2.1701,-2.1637,-2.1674,-2.2722,-2.4407,-2.2224,-2.1768,-2.2215,-1.8354,0.0,0.0,0.0,0.0,0.0,0.0,0.0,0.0,0.0,0.0,0.0,0.0,0.0,0.0,0.0,0.0,0.0,0.0,0.0,0.0,0.0,0.0,0.0,0.0,-1.848,-1.9308,-1.7669,0.0,0.0,0.0,0.0,0.0,0.0,0.0,0.0,0.0,0.0,0.0,-1.9753,-2.2807,-2.4937,-2.4951,-2.4129,-2.325,-2.2553,-2.1473,-2.0346,-1.9193,-1.7431,-1.569,0.0,0.0,0.0,0.0,0.0,0.0,0.0,0.0,0.0,0.0,0.0,0.0,0.0,0.0,0.0,0.0,0.0,0.0,0.0,0.0,0.0,0.0,0.0,0.0,0.0,0.0,0.0,0.0,0.0,0.0,0.0,0.0,-1.9556,-2.0348,0.0,0.0,0.0,0.0,0.0,0.0,0.0,0.0,0.0,0.0,0.0,0.0,0.0,-2.0102,-2.1105,-2.3147,-2.4474,-2.5137,-2.7188,-2.8116,-2.8083,-2.8083,-2.8254,-2.8528,-2.8186,0.0,-2.3338,-2.2212,0.0,0.0,0.0,0.0,0.0,0.0,0.0,0.0,0.0,0.0,0.0,0.0,0.0,0.0,0.0,0.0,0.0,0.0,0.0,0.0,0.0,0.0,-2.1916,-2.2091,-2.2443,-2.2677,0.0,-1.9181,-1.6514,-1.7616,-1.7469,0.0,0.0,0.0,0.0,0.0,0.0,0.0,-2.285,-2.4787,-2.615,-2.6788,-2.5656,-2.4845,-2.4845,-2.3861,-2.2392,-2.0374,-1.943,-1.762,-1.4613,-1.3893,0.0,0.0,0.0,0.0,0.0,0.0,0.0,0.0,0.0,0.0,0.0,0.0,0.0,0.0,0.0,0.0,0.0,0.0,0.0,0.0,0.0,0.0,0.0,0.0,0.0,0.0,0.0,0.0,0.0,-1.7226,-1.7663,-1.9034,-1.7568,-1.6322,0.0,0.0,0.0,0.0,0.0,0.0,0.0,0.0,0.0,-2.3395,-2.347,-2.4288,-2.6023,-2.696,-2.7614,-2.7941,-2.9057,-2.954,-2.9523,-2.9574,-2.9472,-2.9263,-2.9263,-2.8185,-2.6236,-2.4133,-2.207,-2.0067,0.0,0.0,0.0,0.0,-1.6924,-1.6924,-1.9091,-1.9779,-1.9558,-1.8755,0.0,0.0,0.0,0.0,0.0,0.0,0.0,0.0,0.0,0.0,-2.1707,-2.3378,-2.384,-2.3893,-2.3942,-2.2374,-2.0726,0.0,-1.8563,-1.7041,-1.555,0.0,0.0,0.0,0.0,-2.1861,-2.3652,-2.5474,-2.6606,-2.6683,-2.6347,-2.6051,-2.5849,-2.4939,-2.3987,-2.3009,-2.1813,-2.0166,-1.8203,-1.6468,-1.48,0.0,0.0,0.0,0.0,0.0,0.0,0.0,0.0,0.0,0.0,0.0,0.0,0.0,0.0,0.0,0.0,0.0,0.0,0.0,0.0,0.0,0.0,0.0,0.0,0.0,0.0,0.0,0.0,-1.6886,-1.7237,-1.8578,-1.85,-1.7881,0.0,0.0,0.0,0.0,0.0,0.0,-2.2774,-2.2914,-2.4218,-2.693,-2.721,-2.831,-3.0367,-3.0456,-3.0612,-3.0872,-3.082,-3.0802,-3.0802,-3.0715,-3.052,-3.0265,-3.0265,-3.0057,-2.9471,-2.6145,-2.4288,-2.3233,-2.0842,-1.9588,-1.9184,-1.976,-1.9696,-1.9663,-2.1812,-2.2366,-2.2006,-2.1481,-2.0778,-1.996,-1.8758,0.0,0.0,0.0,0.0,-1.8432,-2.0982,-2.1271,-2.1479,-2.3575,-2.4113,-2.4262,-2.4576,-2.4326,-2.3649,0.0,-2.0475,-1.8741,-1.6744,0.0,0.0,0.0,0.0,-2.3413,-2.451,-2.6096,-2.6989,-2.663,-2.6916,-2.7019,-2.6587,-2.5809,-2.519,-2.491,-2.3467,-2.2139,-2.1043,-1.8977,-1.7233,-1.5938,0.0,0.0,0.0,0.0,0.0,0.0,0.0,0.0,0.0,0.0,0.0,0.0,0.0,0.0,0.0,0.0,0.0,0.0,0.0,0.0,0.0,0.0,0.0,0.0,0.0,0.0,0.0,0.0,0.0,-2.043,-2.1077,0.0,0.0,0.0,0.0,-2.219,-2.316,-2.4676,-2.6882,-2.7113,-2.7921,-2.9485,-3.0196,-3.1098,-3.223,-3.2914,-3.3633,-3.4534,-3.4012,-3.3778,-3.3778,-3.3267,-3.3085,-3.3185,-3.3185,-3.3035,-3.2536,-2.918,-2.6956,-2.5603,-2.5029,-2.3512,-2.1869,-2.3998,-2.379,-2.277,-2.4932,-2.4911,-2.3605,-2.1424,-1.895,-1.7171,-1.8891,-1.8036,0.0,0.0,-1.9302,-2.0326,-2.232,-2.2898,-2.3033,-2.3464,-2.365,-2.4062,-2.5272,-2.3912,-2.2808,0.0,-2.4619,-2.404,-2.1914,0.0,-2.1961,-2.2436,-2.2616,-2.368,-2.6298,-2.7086,-2.735,-2.735,-2.7705,-2.7775,-2.7297,-2.6745,-2.5986,-2.4966,-2.3852,-2.2737,-2.1616,-2.0923,-1.9476,-1.7179,-1.6511,0.0,0.0,0.0,0.0,0.0,0.0,0.0,0.0,0.0,0.0,0.0,0.0,0.0,0.0,0.0,0.0,0.0,0.0,0.0,0.0,0.0,0.0,0.0,0.0,0.0,0.0,0.0,0.0,-2.1642,-2.2727,0.0,-2.2728,-2.4086,-2.518,-2.5579,-2.7386,-2.9045,-3.0384,-3.0993,-3.1846,-3.3076,-3.3326,-3.3688,-3.4201,-3.4381,-3.4398,-3.4303,-3.4168,-3.3872,-3.3414,-3.328,-3.3093,-3.2911,-3.2911,-3.2663,-3.2269,-3.1075,-2.9702,-2.8371,-2.7711,-2.6599,-2.5488,-2.6294,-2.6222,-2.5846,-2.671,-2.6414,-2.5527,-2.4435,-2.3383,-2.2721,-2.3426,-2.3103,-2.2626,-2.3196,-2.3302,-2.3493,-2.464,-2.4702,-2.4623,-2.5175,-2.5326,-2.5506,-2.595,-2.5506,-2.5052,-2.5119,-2.4246,-2.3128,-2.2103,-2.3101,-2.3658,-2.2408,-2.3806,-2.537,-2.6491,-2.7167,-2.7539,-2.7539,-2.774,-2.779,-2.766,-2.693,-2.6336,-2.5932,-2.4399,-2.3314,-2.2907,-2.1667,-2.058,-1.9621,-1.8924,-1.6743,0.0,0.0,0.0,0.0,0.0,0.0,0.0,0.0,0.0,0.0,0.0,0.0,0.0,0.0,0.0,0.0,0.0,0.0,0.0,0.0,0.0,0.0,0.0,0.0,0.0,0.0,-2.2446,-2.2836,-2.4746,-2.589,-2.5552,-2.7589,-2.9084,-2.9395,-3.1254,-3.2572,-3.3095,-3.3502,-3.4169,-3.5156,-3.5147,-3.5375,-3.5819,-3.6266,-3.6283,-3.5824,-3.5971,-3.5656,-3.4918,-3.481,-3.4509,-3.406,-3.406,-3.3935,-3.3681,-3.347,-3.2514,-3.114,-3.0202,-2.9492,-2.9013,-2.8818,-2.8545,-2.8227,-2.7442,-2.6979,-2.6657,-2.5968,-2.5734,-2.5726,-2.5691,-2.5538,-2.5453,-2.5407,-2.5278,-2.5214,-2.554,-2.5502,-2.546,-2.6017,-2.5959,-2.5921,-2.6349,-2.6351,-2.6097,-2.5619,-2.4408,-2.3338,-2.2953,-2.3893,-2.408,-2.2281,-2.408,-2.5558,-2.5152,-2.6403,-2.7393,-2.7444,-2.781,-2.8088,-2.8088,-2.6426,-2.5843,-2.6753,-2.4395,-2.3349,-2.4168,-2.2114,-2.0795,-2.0558,-1.946,-1.7302,-1.4053,0.0,0.0,0.0,0.0,0.0,0.0,0.0,0.0,0.0,0.0,0.0,0.0,0.0,0.0,0.0,0.0,0.0,0.0,0.0,0.0,0.0,0.0,0.0,-2.1204,-2.2751,-2.4198,-2.4247,-2.7233,-2.9332,-2.9436,-3.1168,-3.2634,-3.3564,-3.451,-3.5032,-3.4976,-3.4711,-3.4908,-3.5638,-3.5802,-3.6276,-3.7188,-3.8581,-3.9296,-3.9422,-3.9531,-3.9172,-3.8421,-3.8005,-3.7485,-3.6898,-3.6898,-3.6949,-3.7001,-3.6348,-3.5259,-3.3786,-3.2515,-3.2095,-3.2159,-3.1496,-3.0861,-2.9846,-2.727,-2.6745,-2.6997,-2.5849,-2.5506,-2.548,-2.537,-2.4999,-2.4647,-2.4647,-2.5012,-2.5377,-2.4876,-2.5214,-2.5646,-2.5771,-2.5292,-2.52,-2.6385,-2.6201,-2.5792,-2.5761,-2.5458,-2.5077,-2.4835,-2.4131,-2.3301,-2.2371,-2.3527,0.0,-2.2661,-2.5055,-2.6865,-2.6931,-2.7826,-2.8418,-2.8418,-2.5274,-2.4505,-2.727,-2.39,-2.2894,-2.5301,-2.2364,-2.0462,-2.0002,-1.8147,-1.7034,-1.6641,0.0,0.0,0.0,0.0,0.0,0.0,0.0,0.0,0.0,0.0,0.0,0.0,0.0,0.0,0.0,0.0,0.0,0.0,0.0,0.0,0.0,0.0,-2.533,-2.3429,-2.6151,-2.8687,-2.9535,-3.0627,-3.1757,-3.2978,-3.3335,-3.3831,-3.4609,-3.5397,-3.6199,-3.7194,-3.774,-3.8391,-3.926,-3.9293,-3.9525,-3.9901,-4.0222,-4.0084,-3.9594,-3.9549,-3.8881,-3.7744,-3.767,-3.7294,-3.6727,-3.6727,-3.6502,-3.6082,-3.5867,-3.5299,-3.4455,-3.3145,-3.2002,-3.1142,-3.0939,-3.0815,-3.0509,-2.923,-2.8961,-2.899,-2.81,-2.7792,-2.7799,-2.7773,-2.7675,-2.7527,-2.7403,-2.7147,-2.6888,-2.6662,-2.6351,-2.6136,-2.6122,-2.6045,-2.5834,-2.5786,-2.5728,-2.552,-2.497,-2.4629,-2.4523,-2.4851,-2.4332,-2.3723,-2.3326,-2.3635,0.0,-2.3886,-2.5014,-2.5304,-2.4074,-2.4202,-2.4346,-2.4245,-2.3511,-2.4145,-2.6613,-2.5251,-2.4667,-2.537,-2.3926,-2.2686,-2.1882,-1.9174,-1.7567,0.0,0.0,0.0,0.0,0.0,0.0,0.0,0.0,0.0,0.0,0.0,0.0,0.0,0.0,0.0,0.0,0.0,0.0,0.0,0.0,0.0,0.0,-2.7046,-2.8854,-2.7348,-2.936,-3.1421,-3.2747,-3.318,-3.4048,-3.5624,-3.5753,-3.6062,-3.6861,-3.7609,-3.8376,-3.9141,-3.9531,-4.01,-4.0912,-4.0662,-4.0752,-4.114,-4.1411,-4.1198,-4.0532,-4.0713,-4.0146,-3.8896,-3.8896,-3.8553,-3.7945,-3.7909,-3.7654,-3.7263,-3.6637,-3.6054,0.0,0.0,0.0,0.0,0.0,-3.1228,-3.0934,-3.0178,-3.0066,-3.0119,-2.9126,-2.8911,-2.9029,-2.8768,-2.8681,-2.8681,-2.8624,-2.8293,-2.8004,-2.7893,-2.7619,-2.7236,-2.6931,-2.6861,-2.6652,-2.6022,-2.5801,-2.5509,-2.4719,-2.439,0.0,-2.4203,-2.3677,-2.3115,-2.2418,-2.2869,-2.3108,-2.2574,-2.4062,-2.4813,-2.3822,-2.4409,-2.4686,-2.4353,-2.3658,0.0,0.0,0.0,-2.3667,-2.3631,-2.2921,0.0,0.0,0.0,-1.8803,-1.9367,0.0,0.0,0.0,-1.4948,-1.4427,0.0,0.0,0.0,0.0,0.0,0.0,0.0,0.0,0.0,0.0,0.0,0.0,0.0,0.0,0.0,0.0,-3.0755,-3.308,-3.1958,-3.2394,-3.3245,-3.4351,-3.5071,-3.6068,-3.7643,-3.8119,-3.8683,-3.9559,-4.0307,-4.0779,-4.0946,0.0,0.0,0.0,0.0,-4.0994,-4.1524,-4.2187,-4.2228,-4.1716,-4.2259,-4.1938,-4.0782,-4.0675,-4.0258,-3.9573,-3.9415,-3.9259,-3.9111,-3.7844,-3.6951,-3.623,-3.5071,-3.4445,-3.3999,-3.2871,-3.2095,-3.1411,-3.0628,0.0,0.0,-2.9461,-2.9361,-2.9624,-2.9058,-2.8955,-2.8955,-2.8955,-2.8897,-2.8839,-2.8726,-2.8668,-2.8425,-2.7692,-2.7502,-2.7285,-2.654,-2.6175,-2.5746,-2.482,-2.457,-2.4231,-2.3422,-2.2888,-2.2133,-2.0952,-2.1812,-2.2008,-2.0478,-2.2808,-2.4601,-2.4523,0.0,0.0,-2.6072,-2.4405,-2.4296,-2.6355,-2.351,-2.1656,-2.151,-2.1115,-2.0987,-2.1123,-2.0204,-2.0494,-2.2039,-2.1376,-2.0302,-1.8926,-1.593,-1.507,0.0,0.0,0.0,0.0,0.0,0.0,0.0,0.0,0.0,0.0,0.0,0.0,0.0,0.0,0.0,-2.9134,-3.1573,-3.3744,-3.4849,-3.5518,-3.574,-3.5239,-3.6253,-3.7535,-3.8948,-3.9406,-3.9935,-4.0731,-4.0774,-4.1247,-4.2355,-4.2389,-4.2739,-4.3373,-4.314,-4.2825,-4.2458,-4.2493,-4.2211,-4.161,0.0,0.0,-4.055,-4.0061,-3.9516,-3.8969,-3.8455,-3.7876,-3.738,-3.7134,-3.6538,-3.5679,-3.4302,-3.406,-3.4312,-3.3544,-3.3169,-3.296,-3.1974,-3.1382,-3.097,-3.047,-3.0351,-3.0424,-3.0367,-3.0397,0.0,-3.0397,-3.0119,-2.9708,-2.9013,-2.8438,-2.7866,-2.7175,-2.6922,-2.6634,-2.5978,-2.59,-2.5821,-2.5116,-2.4721,-2.4471,-2.4246,-2.3508,-2.2881,-2.2889,-2.2339,-2.2054,-2.2582,-2.2701,-2.2298,-2.1172,-2.1388,-2.1579,-2.1684,-2.2329,-2.3435,-2.5223,-2.4655,-2.4014,-2.3463,-2.3406,-2.3178,-2.269,-2.2724,-2.2459,-2.1868,-2.1682,-2.1078,-2.0085,-1.8818,-1.792,0.0,0.0,0.0,0.0,0.0,0.0,0.0,0.0,0.0,0.0,0.0,-2.4787,0.0,0.0,-2.9671,-3.1652,-3.3718,-3.5372,-3.6314,-3.756,-3.8094,-3.7364,-3.8229,-3.9344,-4.0442,-4.0973,-4.1398,-4.1765,-4.176,-4.2022,-4.2715,-4.2585,-4.2568,-4.2896,-4.2782,-4.2582,-4.2311,-4.2262,-4.1964,-4.1352,-4.1311,-4.0965,-4.0361,-4.0056,-3.982,-3.9552,-3.9146,-3.861,-3.7951,-3.7218,-3.6517,-3.577,-3.4916,-3.4535,-3.4397,-3.3739,-3.3499,-3.3455,-3.2913,-3.2418,-3.2046,-3.1848,-3.1431,-3.1047,-3.1107,-3.095,-3.0702,-3.0702,-3.0513,-3.0265,-2.997,-2.9606,-2.9111,-2.818,-2.7858,-2.7547,-2.6583,-2.6258,-2.6013,-2.5218,-2.4887,-2.458,-2.4141,-2.3754,-2.3462,-2.3289,-2.2533,-2.2114,-2.2633,-2.2561,-2.2175,-2.1313,-2.1728,-2.2056,-2.1939,-2.2757,-2.3736,-2.482,-2.442,-2.4264,-2.4575,-2.401,-2.3784,-2.3987,-2.3616,-2.3198,-2.2688,-2.2015,-2.1393,-2.0835,-2.0074,-1.9299,0.0,0.0,0.0,0.0,0.0,0.0,0.0,0.0,-2.4013,-2.5482,-2.6268,-2.7279,-2.9261,-3.0107,-3.1369,-3.3987,-3.5715,-3.6898,-3.725,-3.8804,-3.9817,-3.9544,-4.0232,-4.1083,-4.1872,-4.2359,-4.2634,-4.2576,-4.2599,-4.2572,-4.2572,-4.215,-4.1959,-4.1959,-4.1904,-4.1849,-4.1722,-4.1816,-4.1508,-4.0918,-4.0998,-4.0784,-4.028,-4.0176,-4.01,-4.01,-3.9888,-3.9471,-3.8902,-3.7575,-3.6736,-3.6219,-3.5876,-3.5371,-3.4733,-3.4083,-3.3888,-3.3858,-3.3662,-3.3357,-3.3066,-3.3004,-3.2449,-3.1714,-3.1637,-3.1213,-3.0747,-3.061,-3.0524,-3.0424,-3.0438,-3.0337,-2.9979,-2.8889,-2.8634,-2.8285,-2.7059,-2.6705,-2.6304,-2.5332,-2.518,-2.4874,-2.4022,-2.3942,-2.3826,-2.3288,-2.2773,-2.2376,-2.2402,-2.2624,-2.2748,-2.2597,-2.3306,-2.3708,-2.3422,-2.3641,-2.404,-2.4657,-2.3717,-2.365,-2.4872,-2.3839,-2.3749,-2.4808,-2.4013,-2.3633,-2.3695,-2.2652,-2.1966,-2.1631,-2.0782,-2.002,-1.7782,-1.8499,-2.0207,-2.2413,-2.2809,-2.3679,0.0,0.0,-2.7842,-3.0289,-3.1219,-3.1862,-3.2778,-3.3432,-3.4242,-3.5713,-3.6323,-3.7023,-3.8254,-3.9278,-4.0154,-4.0882,-4.1625,-4.2311,-4.2791,-4.2998,-4.3048,-4.2919,-4.2483,-4.2169,-4.2169,-4.2085,-4.2105,-4.2105,-4.1959,-4.1666,-4.1222,-4.1173,-4.0925,-4.0399,-4.0421,-4.0361,-4.028,-3.9766,-3.9518,-3.9502,-3.8932,-3.8639,-3.8512,-3.756,-3.7159,-3.6972,-3.6265,-3.5928,-3.5788,-3.5424,-3.528,-3.519,-3.4371,-3.3728,-3.3268,-3.3037,-3.2819,-3.2523,-3.1926,-3.1624,-3.1321,-3.0604,-3.0152,-2.9738,-2.9253,-2.8716,-2.8182,-2.7643,-2.7335,-2.7072,-2.6345,-2.6706,-2.6852,-2.5703,-2.561,-2.5566,-2.4914,-2.4201,-2.3721,-2.3923,-2.3485,-2.3149,-2.3402,-2.2991,-2.2908,-2.3497,-2.3145,-2.3035,-2.3431,-2.3178,-2.3361,-2.4141,-2.3416,-2.3235,-2.3826,-2.3501,-2.3697,-2.4595,-2.4736,-2.4584,-2.406,-2.4105,-2.3754,-2.2871,-2.1765,-2.0782,-2.1886,-2.2262,0.0,0.0,-2.5681,-2.6166,-2.8486,-2.86,-2.8932,-3.1409,-3.2502,-3.3185,-3.3897,-3.4287,-3.4938,0.0,-3.6731,-3.7485,-3.9126,-4.012,-4.0966,-4.1745,-4.21,-4.2537,-4.3093,-4.2718,-4.2411,-4.2356,-4.1778,-4.1489,-4.1544,-4.0817,-4.0425,-4.0489,-4.0055,-3.9713,-3.9471,-3.9489,-3.9402,-3.9221,-3.9203,-3.9487,-3.9816,-3.9573,-3.9676,-3.9987,-3.8963,-3.8508,-3.8446,-3.7705,-3.7118,-3.675,-3.6318,-3.6085,-3.6085,-3.5718,-3.5589,-3.5559,-3.5096,-3.4698,-3.4411,-3.4317,-3.3615,-3.2789,-3.2563,-3.1748,-3.0906,-3.0555,-3.0242,-2.9984,-2.9944,-2.974,-2.9402,-2.8679,-2.8478,-2.8119,-2.7155,-2.6762,-2.6387,-2.5575,-2.5025,-2.4566,-2.4004,-2.3782,-2.3734,-2.3826,-2.3456,-2.3187,-2.3362,-2.3001,-2.2905,-2.3241,-2.3166,-2.3119,-2.3251,-2.3174,-2.332,-2.3829,-2.3288,-2.3245,-2.3909,-2.3238,-2.3368,-2.4558,-2.3697,-2.3675,-2.4593,-2.3778,-2.3457,-2.3628,-2.2408,-2.2063,-2.3888,0.0,0.0,-2.6952,-2.7694,-2.821,-2.9314,-2.9632,-3.0285,-3.2294,-3.3339,-3.4074,-3.4522,-3.4905,-3.5525,-3.669,-3.7234,-3.812,-3.9664,-4.0627,-4.1407,-4.1931,-4.1999,-4.2165,-4.2614,-4.2068,-4.1795,-4.1942,-4.1194,-4.0752,-4.0801,-3.9947,-3.9367,-3.9267,-3.8779,-3.8504,-3.8357,-3.8372,-3.8416,-3.8435,-3.8456,-3.8769,-3.9231,-3.9231,-3.9508,-3.9924,-3.9139,-3.8677,-3.8477,-3.7984,-3.7384,-3.6753,-3.6413,-3.6274,-3.6274,-3.5943,-3.5816,-3.5767,-3.5668,-3.5489,-3.5329,-3.5329,-3.4545,-3.3503,-3.3288,-3.219,-3.0923,-3.0715,-3.0258,-2.9927,-3.0277,-3.0035,-2.9657,-2.9253,-2.8878,-2.8331,-2.7535,-2.6786,-2.6087,-2.5562,-2.4772,-2.4066,-2.3573,-2.3539,-2.3603,-2.3531,-2.3305,-2.3166,-2.3327,-2.323,-2.315,-2.3178,-2.3432,-2.3502,-2.32,-2.3357,-2.3469,-2.3464,-2.3209,-2.3354,-2.3891,-2.3097,-2.3131,-2.4248,-2.3275,-2.3325,-2.448,-2.3677,-2.3519,-2.3819,-2.2955,-2.2822,0.0,0.0,-2.4225,-2.6384,-2.7963,-2.9384,-3.1051,-3.2023,-3.2824,-3.3756,-3.466,-3.5224,-3.5102,-3.5766,-3.6566,-3.7169,-3.8137,-3.8992,-3.9783,-4.0627,-4.1221,-4.1238,-4.1238,-4.1255,0.0,-4.1255,-4.149,-4.2038,-4.0898,-4.0121,-4.0138,-4.0104,-3.9816,-3.9222,-3.9152,-3.8916,-3.8412,-3.8383,-3.8419,-3.8477,-3.8508,-3.8523,-3.8539,-3.8539,-3.8554,-3.86,-3.9216,-3.9108,-3.8508,-3.8492,-3.8077,-3.74,-3.6753,-3.6492,-3.6492,-3.6274,-3.6085,-3.5973,-3.5973,-3.5831,-3.5688,-3.5688,-3.5429,-3.4971,-3.4216,-3.3129,-3.2123,-3.1409,-3.0093,-2.905,-2.9423,-2.8473,-2.7645,-2.8426,-2.75,-2.6577,-2.685,-2.662,-2.6278,-2.5844,-2.5218,-2.4697,-2.4464,-2.3733,-2.3198,-2.3403,-2.321,-2.3292,-2.3715,-2.3943,-2.3979,-2.3737,-2.3932,-2.3906,-2.3412,-2.3616,-2.3534,-2.2986,-2.314,-2.3382,-2.3498,-2.3146,-2.3117,-2.343,-2.4455,-2.4365,-2.308,-2.461,-2.4583,-2.3206,-2.3313,-2.273,0.0,0.0,-2.7412,-2.9615,-3.0417,-3.0958,-3.2029,-3.2397,-3.2747,-3.3548,-3.321,-3.2951,-3.3551,-3.4051,-3.4733,-3.5783,-3.7352,-3.8738,-3.9749,-4.0205,-4.046,-4.046,-4.046,0.0,0.0,0.0,0.0,-4.0763,-4.0358,-4.012,-4.0171,-3.9384,-3.8841,-3.8643,-3.7875,-3.7333,-3.7111,-3.7126,-3.7188,-3.7169,-3.7631,-3.7846,-3.7846,-3.7846,-3.8077,-3.8492,-3.8277,-3.8046,-3.7846,-3.7846,-3.7446,-3.6799,-3.6584,-3.6492,-3.6492,-3.6414,-3.6352,-3.6304,-3.61,-3.5973,-3.5831,-3.535,-3.4677,-3.3934,-3.3157,-3.2173,-3.1158,-3.0784,-3.029,-2.9935,-3.0086,-2.9817,-2.9484,-2.9279,-2.88,-2.8274,-2.7738,-2.6814,-2.6064,-2.6097,-2.4735,-2.3622,-2.3615,-2.3257,-2.309,-2.3343,-2.345,-2.3437,-2.3556,-2.3865,-2.4047,-2.3966,-2.4269,-2.4254,-2.3879,-2.3932,-2.3832,-2.3381,-2.3543,-2.3694,-2.3844,-2.3174,-2.328,-2.4284,-2.3308,-2.3004,-2.3379,-2.319,-2.2884,-2.2551,-2.2229,-2.2407,0.0,-2.8118,-2.9403,-3.1641,-3.2061,-3.2155,-3.2973,-3.3048,-3.3189,-3.3991,-3.3011,-3.2177,-3.2669,-3.3429,-3.4091,-3.4305,-3.637,-3.8203,-3.8925,-3.9143,-3.9478,-4.002,-4.007,-4.0273,0.0,0.0,0.0,-4.046,-4.007,-3.9792,-3.9814,-3.8874,-3.8332,-3.8428,-3.7357,-3.6832,-3.6846,-3.6615,-3.6492,-3.6492,-3.6938,-3.7138,-3.7138,-3.7138,-3.7384,-3.7769,-3.7584,-3.7353,-3.7153,-3.74,-3.7092,-3.6492,-3.6492,-3.6492,-3.6492,-3.6492,-3.6492,-3.6492,-3.6226,-3.6163,-3.5958,-3.5544,-3.4728,-3.3919,-3.3367,-3.2245,-3.1185,-3.0947,-3.0646,-3.0444,-3.052,-3.0392,-3.0123,-2.9869,-2.9134,-2.8419,-2.8109,-2.6939,-2.6049,-2.6258,-2.497,-2.3959,-2.4014,-2.3503,-2.3145,-2.314,-2.3271,-2.339,-2.3463,-2.3688,-2.3936,-2.4157,-2.4376,-2.4446,-2.4365,-2.4324,-2.4191,-2.3806,-2.387,-2.3879,-2.3812,-2.3409,-2.3518,-2.4212,-2.3463,-2.3261,-2.3829,-2.3336,-2.2978,-2.2729,-2.2368,-2.249,-2.8975,-2.9692,-3.0137,-3.239,-3.2879,-3.2989,-3.3872,-3.4084,-3.4205,-3.4805,-3.3739,-3.263,0.0,0.0,-3.433,-3.2772,-3.5355,-3.7584,-3.7599,-3.773,-3.8383,0.0,0.0,0.0,0.0,0.0,0.0,-4.1032,0.0,-3.9218,-3.9251,-3.8672,-3.837,-3.8476,-3.7799,-3.748,-3.7554,-3.6923,-3.6584,-3.6538,-3.6538,-3.6522,-3.6492,-3.6492,-3.6492,-3.6538,-3.7169,-3.7092,-3.6538,-3.7184,-3.7061,-3.6429,-3.6492,-3.6492,-3.6429,-3.6492,-3.6492,-3.6429,-3.6429,-3.6352,-3.6211,-3.6196,-3.5544,-3.481,-3.4595,-3.3339,-3.2015,-3.1796,-3.1158,-3.052,-3.0698,-3.0072,-2.9578,-3.024,-2.8585,-2.7051,-2.7949,-2.7017,-2.6166,-2.6357,-2.5943,-2.5538,-2.5393,-2.4307,-2.3317,-2.2801,-2.2812,-2.309,-2.3509,-2.345,-2.3628,-2.4176,-2.4292,-2.4421,-2.4721,-2.4778,-2.4606,-2.415,-2.4123,-2.392,-2.3507,-2.3816,-2.3788,-2.3294,-2.4732,-2.5081,-2.4177,-2.4778,-2.4571,-2.3617,-2.3502,-2.2964,-2.9909,-3.0825,-3.1641,-3.3527,-3.3946,-3.4041,-3.493,-3.5052,-3.4543,-3.3028,-3.15,-2.9869,0.0,0.0,0.0,-3.124,-3.5198,0.0,-3.87,-3.9272,0.0,0.0,0.0,-3.9901,-3.947,-3.974,0.0,0.0,-3.9471,-3.9487,-4.0008,-3.9466,-3.9136,-3.9109,-3.8559,-3.8255,-3.8246,-3.8077,-3.7738,-3.7246,-3.7246,-3.6984,-3.6492,-3.6492,-3.6492,-3.6507,-3.6676,-3.6661,-3.6507,-3.6676,-3.63,-3.5737,-3.6289,-3.6148,-3.5737,-3.6289,-3.6226,-3.5879,-3.5879,-3.6148,-3.6352,-3.58,-3.4978,-3.4095,-3.3492,-3.2605,-3.1643,-3.1272,-3.111,-3.0973,-3.0773,-3.0657,-3.0579,-3.0406,-2.9403,-2.8388,-2.8237,-2.7139,-2.613,-2.6357,-2.5779,-2.5068,-2.4661,-2.3996,-2.3503,-2.3417,-2.3108,-2.2969,-2.3198,-2.345,-2.3569,-2.3628,-2.3865,-2.4112,-2.4287,-2.4287,-2.4323,-2.4463,-2.445,-2.4439,-2.4446,-2.4286,-2.4267,-2.4307,-2.447,-2.4315,-2.3733,-2.3486,-2.3002,-2.2337,-2.2115,-2.2115,-3.13,-3.2336,-3.3259,-3.4594,-3.488,-3.4768,-3.4638,-3.4587,-3.3842,-3.1523,-2.9839,0.0,0.0,0.0,0.0,0.0,0.0,0.0,-3.8398,-3.8901,-3.9508,0.0,-4.0188,0.0,-3.9259,-3.9578,-3.965,0.0,-3.9342,-3.9518,-3.9902,-3.9346,-3.9121,-3.9401,-3.8843,-3.8508,-3.8508,-3.8508,-3.8323,-3.7938,-3.7646,-3.7292,-3.6923,-3.663,-3.6492,-3.6492,0.0,-3.6492,-3.6492,-3.6492,-3.6289,-3.5943,-3.6352,-3.6085,-3.5608,-3.6022,-3.5816,-3.535,-3.535,-3.5559,-3.5688,-3.5204,-3.438,-3.3561,-3.3073,-3.2345,-3.1596,-3.1136,-3.1123,-3.1198,-3.0773,-3.0849,-3.0911,-3.0761,-2.9933,-2.9074,-2.8388,-2.7471,-2.6664,-2.6445,-2.6076,-2.5566,-2.4779,-2.4452,-2.4211,-2.374,-2.3468,-2.3231,-2.3103,-2.3258,-2.3437,-2.37,-2.3878,-2.4099,-2.439,-2.4332,-2.439,-2.4677,-2.4549,-2.4549,-2.4734,-2.4581,-2.4613,-2.4833,-2.465,-2.451,-2.451,-2.3852,-2.3413,-2.326,-2.2541,-2.2546,-3.2663,-3.3621,-3.4459,-3.5374,-3.5622,-3.5233,-3.3812,-3.332,-3.2449,-2.9956,0.0,-2.6756,-2.5629,0.0,-2.9639,-2.9413,0.0,-3.6365,-3.7549,-3.8043,-3.8681,-3.9868,-4.0188,-3.9969,-3.9189,-3.9308,-3.9441,-3.9392,-3.9519,-3.9566,-3.9534,-3.9066,-3.9046,-3.9631,-3.9077,-3.8785,-3.8785,-3.8785,-3.8739,-3.8646,-3.8046,-3.7723,-3.7615,-3.6938,-3.663,-3.6615,-3.6538,-3.6492,-3.6554,-3.6554,-3.6476,-3.6352,-3.6414,-3.6085,-3.5559,-3.5544,-3.5285,-3.481,-3.481,-3.4677,-3.461,-3.4595,-3.3973,-3.3213,-3.3003,-3.2544,-3.1924,-3.1391,-3.1329,-3.1391,-3.0953,-3.0901,-3.0911,-3.0986,-3.0245,-2.9308,-2.853,-2.7902,-2.7262,-2.6676,-2.6602,-2.6414,-2.548,-2.5376,-2.5087,-2.4153,-2.3941,-2.3754,-2.3314,-2.3175,-2.339,-2.3936,-2.4041,-2.4261,-2.4664,-2.462,-2.462,-2.4721,-2.4421,-2.4363,-2.4505,-2.4664,-2.4835,-2.4948,-2.5005,-2.523,-2.5619,-2.4865,-2.458,-2.4821,-2.3721,-2.3424,-3.2603,-3.3192,-3.3715,-3.5239,-3.5622,-3.5233,-3.3812,-3.2459,0.0,0.0,0.0,-2.3243,-2.1073,-2.3076,0.0,-2.8294,0.0,0.0,0.0,0.0,-3.9982,0.0,0.0,0.0,0.0,0.0,0.0,0.0,0.0,-4.0307,-4.0291,-4.0238,-4.0232,-4.0355,-4.0232,-4.017,-4.017,-4.017,-3.9893,-3.9339,-3.9231,-3.8877,-3.8308,-3.7631,-3.7323,-3.7292,-3.6738,0.0,-3.6662,-3.6662,-3.6321,-3.577,-3.5913,-3.5529,-3.4795,-3.4942,-3.4677,-3.4206,-3.4206,-3.3589,-3.303,-3.4394,-3.4192,-3.3437,-3.3437,-3.3193,-3.284,-3.2528,-3.239,-3.2163,-3.1769,-3.1111,-3.0533,-3.0685,-2.9945,-2.9125,-2.9321,-2.8398,-2.7373,-2.7151,-2.6871,-2.666,-2.6701,-2.609,-2.5536,-2.5492,-2.514,-2.4709,-2.4323,-2.373,-2.3403,-2.3522,-2.376,-2.3995,-2.4229,-2.4229,-2.4216,-2.435,-2.4203,-2.4171,-2.4171,-2.4421,-2.458,-2.458,-2.4991,-2.5174,-2.5118,-2.458,-2.4279,-2.415,-2.3721,-2.3305,-3.2226,-3.3108,-3.395,-3.4745,-3.4975,-3.4411,-3.2252,0.0,0.0,0.0,0.0,-2.1928,-1.9904,0.0,0.0,0.0,0.0,0.0,0.0,0.0,0.0,0.0,0.0,0.0,0.0,0.0,0.0,0.0,0.0,-4.0524,-4.0524,-4.0524,-4.0524,-4.0524,-4.0524,-4.0524,-4.0524,-4.0524,-4.037,-4.0047,-3.9693,-3.9354,-3.9016,-3.8338,-3.7895,-3.7604,-3.7264,-3.7002,-3.6862,-3.6862,-3.6662,-3.6321,-3.6321,-3.5721,-3.4846,-3.4876,-3.4356,-3.3701,-3.3701,-3.3199,-3.269,-3.352,-3.3087,-3.239,-3.2704,-3.2622,-3.2428,-3.228,-3.2307,-3.2158,-3.1481,-3.0968,-3.0672,-3.0457,-2.9719,-2.9001,-2.8925,-2.84,-2.7679,-2.6895,-2.6956,-2.7028,-2.6627,-2.6277,-2.6017,-2.5927,-2.5661,-2.5345,-2.4974,-2.441,-2.4009,-2.3785,-2.3878,-2.4112,-2.4345,-2.4261,-2.4247,-2.4292,-2.4157,-2.4112,-2.4112,-2.4216,-2.4305,-2.4408,-2.4549,-2.4677,-2.4778,-2.4478,-2.435,-2.4408,-2.3826,-2.3649,-3.1674,-3.2787,-3.3883,-3.4078,-3.4129,-3.338,-3.0573,-2.8581,0.0,0.0,-2.1748,-2.0911,-1.9617,0.0,0.0,0.0,0.0,0.0,0.0,0.0,0.0,0.0,0.0,0.0,0.0,0.0,0.0,0.0,0.0,0.0,-4.0593,-4.0608,-4.0608,-4.0593,-4.0593,-4.0524,-4.0524,-4.0524,-4.0524,-4.0524,-3.9985,-3.9739,-3.9708,-3.9031,-3.8338,-3.7677,-3.7538,-3.7155,-3.66,-3.66,-3.66,-3.6538,-3.6321,-3.5642,-3.4846,-3.461,-3.4031,-3.3326,-3.3171,-3.2945,-3.2561,-3.2489,-3.1996,-3.1495,-3.2023,-3.2031,-3.1964,-3.189,-3.2065,-3.2005,-3.1031,-3.0788,-3.0685,-3.0075,-2.958,-2.9101,-2.8568,-2.8491,-2.8133,-2.7005,-2.7152,-2.7286,-2.6478,-2.6414,-2.6451,-2.6143,-2.6133,-2.6008,-2.5627,-2.534,-2.4971,-2.4543,-2.4256,-2.4216,-2.4447,-2.4363,-2.4292,-2.4247,-2.4157,-2.4112,-2.4112,-2.4112,-2.4157,-2.4247,-2.4157,-2.4274,-2.4505,-2.4363,-2.4421,-2.4664,-2.406,-2.406,-3.1258,-3.1907,-3.2217,-3.3041,-3.3208,-3.2479,-2.9661,0.0,0.0,0.0,-2.0538,-1.8935,-1.8632,-1.8856,0.0,0.0,0.0,0.0,0.0,0.0,0.0,0.0,0.0,0.0,0.0,0.0,0.0,0.0,0.0,0.0,-4.0799,-4.0966,-4.0966,-4.0799,-4.0799,-4.0662,-4.0524,-4.0524,-4.0524,-4.0524,-4.0462,-4.0432,-4.0416,-3.9739,-3.8763,-3.7676,-3.7071,-3.621,0.0,-3.524,-3.524,-3.524,-3.4714,-3.4394,-3.4153,-3.3632,-3.3382,-3.3241,-3.286,-3.2489,-3.2128,-3.1776,-3.179,-3.189,-3.189,-3.2192,-3.2382,-3.2203,-3.2154,-3.2014,-3.1397,-3.0701,-3.0075,-2.9586,-2.9704,-2.9845,-2.9135,-2.9057,-2.8795,-2.8041,-2.7665,-2.741,-2.6974,-2.6664,-2.6577,-2.6879,-2.6879,-2.6796,-2.6609,-2.6543,-2.6295,-2.5733,-2.4833,-2.4247,-2.4171,-2.4261,-2.4247,-2.4112,-2.4112,-2.4112,-2.4112,-2.4112,-2.4112,-2.4112,-2.4261,-2.4261,-2.4171,-2.4247,-2.4292,-2.435,-2.4292,-2.406,-3.0658,-3.1458,-3.1874,-3.2243,-3.1642,-3.0363,-2.8053,0.0,0.0,-2.0622,-1.9362,-1.8526,-1.7955,-1.8195,-1.9204,0.0,0.0,0.0,0.0,0.0,0.0,0.0,0.0,0.0,0.0,0.0,0.0,0.0,0.0,0.0,-4.0966,-4.1034,-4.1034,-4.0799,-4.0799,-4.073,-4.0524,-4.0524,-4.0524,-4.0524,-4.0524,-4.0524,-4.0455,-3.9902,-3.9191,-3.8372,-3.7353,-3.6544,0.0,-3.5419,-3.5255,-3.5255,-3.4912,-3.4581,-3.4192,-3.3894,-3.3409,-3.2931,-3.2775,-3.2273,-3.1776,-3.1629,-3.1495,-3.1434,-3.1643,-3.1742,-3.1779,-3.1841,-3.1841,-3.1704,-3.0945,-3.0227,-2.9664,-2.9419,-2.9677,-2.9779,-2.904,-2.895,-2.8709,-2.7863,-2.741,-2.7086,-2.6751,-2.6615,-2.6602,-2.6794,-2.6794,-2.6854,-2.7024,-2.6765,-2.6466,-2.636,-2.5363,-2.4668,-2.4489,-2.4236,-2.4054,-2.4008,-2.4008,-2.4008,-2.4112,-2.4112,-2.4112,-2.4112,-2.4157,-2.4157,-2.4112,-2.4157,-2.4203,-2.4292,-2.4203,-2.4131,-2.9632,-3.0742,-3.1474,-3.1474,-3.0359,-2.8693,0.0,0.0,-2.1645,-1.9538,-1.8917,-1.855,-1.7895,-1.7947,-1.8475,-1.9619,0.0,-2.3009,0.0,0.0,0.0,0.0,0.0,0.0,0.0,0.0,0.0,0.0,0.0,0.0,-4.1102,-4.1117,-4.1034,-4.0882,-4.0882,-4.073,-4.0524,-4.0524,-4.0524,-4.0524,-4.0524,-4.0524,-4.0455,-4.0106,-3.9531,-3.8765,-3.7521,-3.6645,0.0,-3.5074,-3.4743,-3.4743,-3.461,-3.4341,-3.4002,-3.3879,-3.3409,-3.2704,-3.2561,-3.2128,-3.1556,-3.1482,-3.1198,-3.1061,-3.1347,-3.1347,-3.1198,-3.1259,-3.1185,-3.0973,-3.0444,-2.9908,-2.9509,-2.9419,-2.9521,-2.9534,-2.8961,-2.8778,-2.8474,-2.7705,-2.7248,-2.6918,-2.6553,-2.6533,-2.6521,-2.6658,-2.6726,-2.693,-2.7268,-2.6932,-2.6739,-2.6935,-2.5996,-2.5205,-2.4719,-2.4416,-2.4131,-2.3903,-2.3891,-2.3949,-2.4112,-2.4067,-2.4067,-2.4112,-2.4112,-2.4112,-2.4112,-2.4112,-2.4157,-2.4247,-2.4157,-2.4157,-2.8055,-2.9632,-3.0708,-3.0708,-2.953,-2.7886,0.0,0.0,-2.2517,-2.0432,-1.9418,-1.8853,-1.8691,-1.8002,-1.8046,-1.9992,-2.0074,0.0,0.0,0.0,0.0,0.0,0.0,0.0,0.0,0.0,0.0,0.0,0.0,0.0,-4.1003,-4.1117,-4.1117,-4.1117,-4.1117,-4.0898,-4.0524,-4.0524,-4.0524,-4.0524,-4.0524,-4.0524,-4.0524,-4.0455,-3.9864,-3.8611,-3.7451,-3.623,0.0,-3.3832,-3.3312,-3.3312,-3.3326,-3.3326,-3.3326,-3.3326,-3.3016,-3.2632,-3.2273,-3.1909,-3.1556,-3.1123,-3.0986,-3.0986,-3.0986,-3.0986,-3.0911,-3.052,-3.0164,-2.9869,-3.0088,-2.9934,-2.9702,-2.9431,-2.9419,-2.9341,-2.9131,-2.87,-2.8172,-2.7866,-2.7394,-2.6918,-2.6553,-2.6533,-2.6521,-2.6658,-2.6875,-2.7079,-2.7268,-2.7268,-2.7323,-2.7456,-2.6817,-2.5948,-2.4783,-2.4888,-2.4653,-2.3929,-2.3891,-2.3949,-2.4112,-2.3949,-2.3949,-2.4112,-2.4112,-2.4112,-2.4112,-2.4112,-2.4112,-2.4112,-2.4112,-2.4112,-2.508,-2.5949,-2.6386,-2.6318,-2.5196,-2.3777,-2.2618,0.0,-1.9891,-1.8735,-1.8341,-1.8195,-1.8103,-1.7716,-1.8071,-2.0184,-1.9967,0.0,0.0,0.0,0.0,0.0,0.0,0.0,0.0,0.0,0.0,0.0,0.0,0.0,-4.0867,-4.1034,-4.1117,-4.1117,-4.095,-4.0746,-4.0524,-4.0524,-4.0524,-4.0524,-4.0524,-4.0524,-4.0455,-4.0106,-3.9703,-3.932,-3.7636,-3.6476,-3.5611,-3.4398,-3.3691,-3.3326,-3.3326,-3.3157,-3.286,-3.286,-3.2503,-3.1909,-3.1776,-3.1482,-3.1198,-3.1061,-3.0986,-3.0986,-3.0986,-3.0986,-3.0911,-3.052,-3.0228,-3.0011,-2.9934,-2.9869,-2.9792,-2.9689,-2.9767,-2.9831,-2.9624,-2.9251,-2.875,-2.8149,-2.7598,-2.7034,-2.6553,-2.6533,-2.6533,-2.6589,-2.6726,-2.6863,-2.7079,-2.7214,-2.7335,-2.7335,-2.7246,-2.6817,-2.5909,-2.5571,-2.5117,-2.4473,-2.4447,-2.4326,-2.4125,-2.4067,-2.4067,-2.4112,-2.4112,-2.4112,-2.4112,-2.4112,-2.4112,-2.4112,-2.4112,-2.4112,0.0,-2.3744,-2.4178,-2.4257,-2.315,0.0,0.0,0.0,-1.8612,-1.7901,-1.7772,-1.7772,-1.7704,-1.7519,-1.7914,-1.9626,-1.9523,0.0,0.0,0.0,0.0,0.0,0.0,0.0,0.0,0.0,0.0,0.0,0.0,0.0,-4.0768,-4.0814,-4.0898,-4.0966,-4.0882,-4.073,-4.0524,-4.0524,-4.0524,-4.0524,-4.0524,-4.0524,-4.0455,-3.9965,-3.9681,-3.958,-3.7813,-3.6576,0.0,-3.445,-3.3559,-3.2874,-3.2874,-3.2717,-3.2489,-3.2489,-3.2128,-3.1629,-3.1629,-3.1347,-3.0986,-3.0986,-3.0986,-3.0986,-3.0986,-3.0911,-3.0836,-3.052,-3.0292,-3.0088,-2.9869,-2.9869,-2.9869,-2.9792,-2.9934,-3.0075,-2.9934,-2.9555,-2.9024,-2.8621,-2.8104,-2.749,-2.6936,-2.6766,-2.6703,-2.6559,-2.6658,-2.6863,-2.6943,-2.7214,-2.7335,-2.7403,-2.7403,-2.7246,-2.6869,-2.6336,-2.5777,-2.5179,-2.5091,-2.4845,-2.4333,-2.4307,-2.4216,-2.4008,-2.4054,-2.4112,-2.4112,-2.4112,-2.4112,-2.4112,-2.4112,-2.4112,0.0,0.0,0.0,0.0,0.0,0.0,0.0,0.0,0.0,0.0,0.0,-1.7589,-1.7592,-1.7443,-1.7687,-1.8699,0.0,0.0,0.0,0.0,0.0,0.0,0.0,0.0,0.0,0.0,0.0,0.0,0.0,0.0,-4.0591,-4.0516,-4.0478,-4.0799,-4.0752,-4.0615,-4.0524,-4.0524,-4.0509,-4.0462,-4.0439,-4.0424,-4.0393,-3.9879,-3.961,0.0,-3.774,-3.6444,-3.5435,-3.4144,-3.3024,-3.2128,-3.2128,-3.2055,-3.2055,-3.2055,-3.185,-3.1556,-3.1556,-3.1347,-3.0986,-3.0986,-3.0986,-3.0986,-3.0986,-3.0836,-3.0698,-3.0444,-3.0305,-3.0075,-2.9869,-3.0011,-3.0075,-2.9869,-3.0011,-3.0152,-3.0075,-2.9644,-2.9263,-2.9212,-2.8794,-2.8261,-2.7503,-2.7377,-2.7175,-2.6659,-2.6833,-2.6943,-2.7024,-2.7146,-2.7335,-2.7469,-2.7403,-2.7335,-2.7469,-2.704,-2.6491,-2.5916,-2.5764,-2.5441,-2.4771,-2.4758,-2.4512,-2.402,-2.4145,-2.4178,-2.4178,-2.4138,-2.4112,-2.4112,-2.4151,-2.4178,-1.7076,0.0,-1.9034,-1.9301,0.0,0.0,0.0,0.0,0.0,0.0,0.0,0.0,0.0,0.0,0.0,0.0,0.0,0.0,0.0,0.0,0.0,0.0,0.0,0.0,0.0,0.0,0.0,0.0,0.0,-3.8243,-3.9588,-3.9482,-3.9711,-4.0578,-4.0084,-4.0001,-4.0524,-4.0524,-4.0346,-3.9988,-3.9947,-3.9692,-3.9275,-3.9068,-3.9002,-3.8899,-3.7594,-3.6444,-3.5435,-3.4144,-3.3024,-3.2128,-3.2128,-3.1909,-3.1703,-3.1703,-3.1482,-3.1123,-3.1123,-3.1061,-3.0986,-3.0986,-3.0986,-3.0986,-3.0986,-3.0836,-3.0698,-3.0622,-3.0444,-3.0292,-3.0292,-3.0292,-3.0292,-3.0075,-3.0318,-3.047,-3.0152,-3.0203,-3.0123,-2.9363,-2.9185,-2.9004,-2.8286,-2.783,-2.7513,-2.7608,-2.7143,-2.6807,-2.6943,-2.7011,-2.7079,-2.7079,-2.7214,-2.7335,-2.7335,-2.7339,-2.7092,-2.6504,-2.6478,-2.6153,-2.5579,-2.5553,-2.5488,-2.537,-2.4988,-2.4766,-2.4766,-2.4334,-2.4112,-2.4125,-2.4557,-2.4766,-1.5523,-1.6413,-1.7272,-1.7664,-1.7749,-1.7726,0.0,0.0,0.0,0.0,0.0,0.0,0.0,0.0,0.0,0.0,0.0,0.0,0.0,0.0,0.0,0.0,0.0,0.0,0.0,0.0,0.0,0.0,0.0,-3.7578,-3.8546,-3.8493,-3.8728,-3.9314,-3.8962,-3.925,-4.0146,-3.9838,-3.9585,-3.9404,-3.9328,-3.9184,-3.8841,-3.8546,-3.8412,-3.8294,-3.691,-3.5775,-3.4696,-3.3553,-3.2523,-3.1629,-3.1629,-3.1482,-3.1347,-3.1347,-3.1198,-3.0986,-3.0986,-3.0986,-3.0986,-3.0986,-3.0986,-3.0986,-3.0986,-3.0836,-3.0698,-3.0698,-3.0609,-3.0533,-3.0444,-3.0444,-3.0457,-3.0305,-3.0457,-3.0622,-3.0305,-3.0457,-3.0443,-2.9745,-2.9845,-2.9815,-2.8931,-2.8588,-2.829,-2.7851,-2.7436,-2.7156,-2.6901,-2.7011,-2.7146,-2.7146,-2.7268,-2.7403,-2.7403,-2.7469,-2.7406,-2.7092,-2.7066,-2.6739,-2.6089,-2.614,-2.6086,-2.5837,-2.5511,-2.5367,-2.5367,-2.5053,-2.4896,-2.4909,-2.521,-2.5367,-1.5138,-1.6142,-1.7242,-1.7522,-1.7696,-1.7706,0.0,0.0,0.0,0.0,0.0,0.0,0.0,0.0,0.0,0.0,0.0,0.0,0.0,0.0,0.0,0.0,0.0,0.0,0.0,0.0,0.0,0.0,-3.6149,-3.6567,-3.7413,-3.7444,-3.7571,-3.7962,-3.7895,-3.837,-3.9452,-3.899,-3.8754,-3.8726,-3.8587,-3.8519,-3.8473,-3.7641,-3.7339,-3.7396,0.0,0.0,-3.368,-3.2769,-3.1783,-3.0986,-3.0986,-3.0986,-3.0986,-3.0986,-3.0986,-3.0986,-3.0986,-3.0986,-3.0986,-3.0986,-3.0986,-3.0986,-3.0986,-3.0911,-3.0773,-3.0773,-3.0698,-3.0698,-3.052,-3.0609,-3.0698,-3.052,-3.0609,-3.0685,-3.0444,-3.0533,-3.0622,-3.0228,-3.0381,-3.0379,-2.9578,-2.95,-2.9129,-2.8157,-2.7876,-2.7608,-2.6985,-2.705,-2.7201,-2.7268,-2.7403,-2.7469,-2.7523,-2.7523,-2.7523,-2.7523,-2.7523,-2.7235,-2.6596,-2.6726,-2.6569,-2.6099,-2.5994,-2.5955,-2.5955,-2.5863,-2.5824,-2.5824,-2.5903,-2.5955,-1.4922,-1.6938,-1.8638,-1.7812,-1.792,-1.8087,0.0,0.0,0.0,0.0,0.0,0.0,0.0,0.0,0.0,0.0,0.0,0.0,0.0,0.0,0.0,0.0,0.0,0.0,0.0,0.0,0.0,0.0,-3.4978,-3.5377,-3.6388,-3.6245,-3.6768,-3.7946,-3.7321,-3.7282,-3.7948,-3.8402,-3.8397,-3.7908,-3.7128,-3.6891,-3.7022,-3.5404,-3.4939,-3.5521,0.0,-3.3192,-3.2667,-3.2003,-3.1426,-3.0986,-3.0986,-3.0986,-3.0986,-3.0986,-3.0986,-3.0986,-3.0986,-3.0986,-3.0986,-3.0986,-3.0986,-3.0986,-3.0986,-3.0986,-3.0911,-3.0911,-3.0849,-3.0698,-3.0836,-3.0911,-3.0911,-3.0698,-3.0836,-3.0836,-3.052,-3.0533,-3.0622,-3.0368,-3.0368,-3.0419,-3.0493,-2.9931,-2.9545,-2.9671,-2.8518,-2.7666,-2.7729,-2.7156,-2.6863,-2.7024,-2.7214,-2.7403,-2.7456,-2.7523,-2.7523,-2.7523,-2.7523,-2.7417,-2.7326,-2.7326,-2.7353,-2.7262,-2.6791,-2.6543,-2.6543,-2.6059,-2.5824,-2.5837,-2.6321,-2.6543,-1.4332,-1.6191,-1.8117,-1.8533,-1.9987,-2.1233,0.0,0.0,0.0,0.0,0.0,0.0,0.0,0.0,0.0,0.0,0.0,0.0,0.0,0.0,0.0,0.0,0.0,0.0,0.0,0.0,0.0,-3.4817,-3.4817,-3.5016,-3.5362,-3.5324,-3.5592,-3.6276,-3.594,-3.5884,-3.6054,-3.6432,-3.686,-3.7172,-3.6561,-3.6208,-3.6085,-3.4893,-3.4402,-3.4453,0.0,-3.2662,-3.2457,-3.1572,-3.1198,-3.0986,-3.0986,-3.0986,-3.0986,-3.0986,-3.0986,-3.0986,-3.0986,-3.0986,-3.0986,-3.0986,-3.0986,-3.0986,-3.0986,-3.0986,-3.0986,-3.0986,-3.0911,-3.0911,-3.0986,-3.0986,-3.0986,-3.0911,-3.0911,-3.0911,-3.0609,-3.0685,-3.0761,-3.0305,-3.052,-3.0672,-3.0533,-3.039,-3.0255,-2.9943,-2.9292,-2.851,-2.7851,-2.7474,-2.7276,-2.705,-2.7214,-2.7335,-2.7456,-2.7523,-2.7523,-2.7523,-2.7523,-2.7523,-2.7523,-2.7523,-2.7523,-2.7523,-2.7275,-2.7131,-2.7131,-2.687,-2.6752,-2.6752,-2.7013,-2.7131,-1.3836,-1.5505,-1.7543,-1.9126,0.0,0.0,0.0,0.0,0.0,0.0,0.0,0.0,0.0,0.0,0.0,0.0,0.0,0.0,0.0,0.0,0.0,0.0,0.0,0.0,0.0,0.0,-3.5148,-3.4935,-3.4935,-3.4883,-3.475,-3.4765,-3.475,-3.4773,-3.4718,-3.46,-3.4427,-3.4583,-3.5222,-3.6145,-3.5608,-3.5282,-3.5063,-3.4156,-3.3669,-3.3563,-3.2564,-3.2146,-3.212,-3.1307,-3.0986,-3.0986,-3.0986,-3.0986,-3.0986,-3.0986,-3.0986,-3.0986,-3.0986,-3.0986,-3.0986,-3.0986,-3.0986,-3.0986,-3.0986,-3.0986,-3.0986,-3.0986,-3.0986,-3.0986,-3.0986,-3.0986,-3.0986,-3.0986,-3.0986,-3.0986,-3.0773,-3.0849,-3.0836,-3.0381,-3.0609,-3.0823,-3.0596,-3.0761,-3.0755,-3.0164,-2.9895,-2.9421,-2.826,-2.8011,-2.776,-2.7323,-2.7291,-2.7335,-2.7456,-2.7523,-2.7523,-2.7523,-2.7523,-2.7523,-2.7523,-2.7523,-2.7523,-2.7523,-2.7523,-2.7523,-2.7523,-2.7523,-2.7523,-2.7523,-2.7523,-2.7523,-1.3674,-1.5774,-1.8038,-1.9214,-1.9378,0.0,0.0,0.0,0.0,0.0,0.0,0.0,0.0,0.0,0.0,0.0,0.0,0.0,0.0,0.0,0.0,0.0,0.0,0.0,0.0,-3.5082,-3.5148,-3.4935,-3.4935,-3.4868,-3.4868,-3.4868,-3.4706,-3.438,-3.4185,-3.394,-3.3619,-3.3717,-3.3919,-3.4216,-3.3403,-3.3355,-3.3742,-3.2071,-3.1632,-3.2273,-3.1451,-3.1114,-3.1114,-3.0999,-3.0986,-3.0986,-3.0986,-3.0986,-3.0986,-3.0986,-3.0986,-3.0986,-3.0986,-3.0986,-3.0986,-3.0986,-3.0986,-3.0986,-3.0986,-3.0986,-3.0986,-3.0986,-3.0986,-3.0986,-3.0986,-3.0986,-3.0986,-3.0986,-3.0986,-3.0986,-3.0986,-3.0849,-3.0773,-3.0911,-3.0672,-3.052,-3.0911,-3.0849,-3.0761,-3.0921,-3.0303,-2.9779,-2.9628,-2.8627,-2.7901,-2.8001,-2.7592,-2.7335,-2.7456,-2.7523,-2.7523,-2.7523,-2.7523,-2.7523,-2.7523,-2.7523,-2.7523,-2.7523,-2.7523,-2.7523,-2.7523,-2.7523,-2.7523,-2.7523,-2.7523,-2.7523,-1.3383,-1.5789,-1.8294,-1.9257,-2.0191,0.0,0.0,0.0,0.0,0.0,0.0,0.0,0.0,0.0,0.0,0.0,0.0,0.0,0.0,0.0,0.0,0.0,0.0,0.0,-3.5082,-3.5148,-3.5148,-3.5082,-3.5001,-3.4935,-3.4935,-3.4505,-3.4138,-3.3988,-3.3522,-3.3021,-3.2659,-3.2698,-3.2597,-3.231,-3.2758,-3.3036,-3.3073,-3.1942,-3.1391,-3.1465,-3.1153,-3.0986,-3.0986,-3.0986,-3.0986,-3.0986,-3.0986,-3.0986,-3.0986,-3.0986,-3.0986,-3.0986,-3.0986,-3.0986,-3.0986,-3.0986,-3.0986,-3.0986,-3.0986,-3.0986,-3.0986,-3.0986,-3.0986,-3.0986,-3.0986,-3.0986,-3.0986,-3.0986,-3.0986,-3.0986,-3.0986,-3.0911,-3.0836,-3.0849,-3.0761,-3.0761,-3.0849,-3.0849,-3.0911,-3.0986,-3.0716,-3.0368,-2.9857,-2.9357,-2.8828,-2.82,-2.7673,-2.7469,-2.7523,-2.7523,-2.7523,-2.7523,-2.7523,-2.7523,-2.7523,-2.7523,-2.7523,-2.7523,-2.7523,-2.7523,-2.7523,-2.7523,-2.7523,-2.7523,-2.7523,-2.7523,-1.4062,-1.603,-1.8285,0.0,0.0,0.0,0.0,0.0,0.0,0.0,0.0,0.0,0.0,0.0,0.0,0.0,0.0,0.0,0.0,0.0,0.0,0.0,0.0,-3.5148,-3.5213,-3.5294,-3.5294,-3.5294,-3.492,-3.4706,-3.4706,-3.4002,-3.3506,-3.3297,-3.2747,-3.2259,-3.1776,-3.1776,-3.1629,-3.1272,-3.2057,-3.2332,-3.2244,-3.1681,-3.1272,-3.0986,-3.0986,-3.0986,-3.0986,-3.0986,-3.0986,-3.0986,-3.0986,-3.0986,-3.0986,-3.0986,-3.0986,-3.0986,-3.0986,-3.0986,-3.0986,-3.0986,-3.0986,-3.0986,-3.0986,-3.0986,-3.0986,-3.0986,-3.0986,-3.0986,-3.0986,-3.0986,-3.0986,-3.1061,-3.1061,-3.0986,-3.1061,-3.1061,-3.0986,-3.0849,-3.0911,-3.0986,-3.0849,-3.0911,-3.0986,-3.0986,-3.0986,-3.0843,-3.029,-2.9921,-2.9378,-2.8239,-2.7897,-2.7732,-2.7549,-2.7523,-2.7523,-2.7523,-2.7523,-2.7523,-2.7523,-2.7523,-2.7523,-2.7523,-2.7523,-2.7523,-2.7523,-2.7523,-2.7523,-2.759,-2.759,-2.759,-1.5866,-1.6699,0.0,0.0,0.0,0.0,0.0,0.0,0.0,0.0,0.0,0.0,0.0,0.0,0.0,0.0,0.0,0.0,0.0,0.0,0.0,0.0,0.0,-3.5001,-3.5148,-3.5359,-3.5504,-3.5504,-3.4758,-3.4312,-3.4312,-3.3561,-3.2861,-3.2146,-3.2074,-3.1736,-3.0986,-3.0986,-3.1136,-3.1272,-3.1136,-3.0986,-3.0986,-3.0986,-3.0986,-3.0986,-3.0986,-3.0986,-3.0986,-3.0986,-3.0986,-3.0986,-3.0986,-3.0986,-3.0986,-3.0986,-3.0986,-3.0986,-3.0986,-3.0986,-3.0986,-3.0986,-3.0986,-3.0986,-3.0986,-3.0986,-3.0986,-3.0986,-3.0986,-3.0986,-3.0986,-3.0986,-3.1061,-3.1272,-3.1123,-3.1061,-3.1272,-3.1123,-3.0986,-3.0986,-3.0986,-3.0986,-3.0986,-3.0986,-3.0986,-3.0986,-3.0986,-3.0986,-3.0986,-3.0316,-2.9378,-2.8252,-2.8261,-2.815,-2.7589,-2.7536,-2.7536,-2.7523,-2.7523,-2.7523,-2.7523,-2.7523,-2.7523,-2.7523,-2.7523,-2.7523,-2.7523,-2.7523,-2.759,-2.7776,-2.7776,-2.7776,-1.4222,-1.6638,0.0,0.0,0.0,0.0,0.0,0.0,0.0,0.0,0.0,0.0,0.0,0.0,0.0,0.0,0.0,0.0,0.0,0.0,0.0,0.0,0.0,-3.5148,-3.5213,-3.4839,-3.4677,-3.4677,-3.3973,-3.3561,-3.3561,-3.2861,-3.2362,-3.2074,-3.1603,-3.1185,-3.0986,-3.0986,-3.1061,-3.1061,-3.1061,-3.1061,-3.1198,-3.1061,-3.0986,-3.0986,-3.0986,-3.0986,-3.0986,-3.0986,-3.0986,-3.0986,-3.0986,-3.0986,-3.0986,-3.0986,-3.0986,-3.0986,-3.0986,-3.0986,-3.0986,-3.0986,-3.0986,-3.0986,-3.0986,-3.0986,-3.0986,-3.0986,-3.0986,-3.0986,-3.0986,-3.0986,-3.0986,-3.1061,-3.1061,-3.0986,-3.1061,-3.1061,-3.0986,-3.0986,-3.0986,-3.0986,-3.0986,-3.0986,-3.0986,-3.0986,-3.0986,-3.0986,-3.0986,-3.0403,-2.9848,-2.9509,-2.9248,-2.8778,-2.8177,-2.8124,-2.7954,-2.7562,-2.7523,-2.7523,-2.7523,-2.7523,-2.7523,-2.7523,-2.7523,-2.7523,-2.7523,-2.7523,-2.759,-2.7776,-2.7776,-2.7855,-1.6652,0.0,0.0,0.0,0.0,0.0,0.0,0.0,0.0,0.0,0.0,0.0,0.0,0.0,0.0,0.0,0.0,0.0,0.0,0.0,0.0,0.0,-3.5096,-3.5133,-3.4854,-3.4528,-3.4177,-3.3905,-3.3213,-3.2791,-3.2791,-3.2087,-3.1676,-3.1676,-3.1259,-3.0986,-3.0986,-3.0986,-3.0986,-3.0986,-3.0986,-3.1061,-3.1198,-3.1061,-3.0986,-3.0986,-3.0986,-3.0986,-3.0986,-3.0986,-3.0986,-3.0986,-3.0986,-3.0986,-3.0986,-3.0986,-3.0986,-3.0986,-3.0986,-3.0986,-3.0986,-3.0986,-3.0986,-3.0986,-3.0986,-3.0986,-3.0986,-3.0986,-3.0986,-3.0986,-3.0986,-3.0986,-3.0986,-3.1136,-3.1061,-3.0986,-3.1136,-3.1061,-3.0986,-3.0986,-3.0986,-3.0986,-3.0986,-3.0986,-3.0986,-3.0986,-3.0986,-3.0986,-3.0986,-3.0686,-3.0385,-3.0163,-2.9823,-2.9379,-2.8791,-2.8516,-2.8229,-2.7889,-2.7654,-2.7523,-2.7523,-2.7523,-2.7523,-2.759,-2.7523,-2.7523,-2.759,-2.7523,-2.7656,-2.7934,-2.7934,-2.7987,0.0,0.0,0.0,0.0,0.0,0.0,0.0,0.0,0.0,0.0,0.0,0.0,0.0,0.0,0.0,0.0,0.0,0.0,-3.5213,0.0,0.0,0.0,-3.5148,-3.4986,-3.4245,-3.4177,-3.3891,-3.3143,-3.2448,-3.2015,-3.2015,-3.132,-3.0986,-3.0986,-3.0986,-3.0986,-3.0986,-3.0986,-3.0986,-3.0986,-3.0986,-3.0986,-3.0986,-3.0986,-3.0986,-3.0986,-3.0986,-3.0986,-3.0986,-3.0986,-3.0986,-3.0986,-3.0986,-3.0986,-3.0986,-3.0986,-3.0986,-3.0986,-3.0986,-3.0986,-3.0986,-3.0986,-3.0986,-3.0986,-3.0986,-3.0986,-3.0986,-3.0986,-3.0986,-3.0986,-3.0986,-3.0986,-3.1061,-3.1198,-3.1123,-3.1061,-3.1198,-3.1123,-3.0986,-3.0986,-3.0986,-3.0986,-3.0986,-3.0986,-3.0986,-3.0986,-3.0986,-3.0986,-3.0986,-3.0986,-3.079,-3.0268,-3.0215,-2.998,-2.9405,-2.8856,-2.8559,-2.8386,-2.7902,-2.7589,-2.7523,-2.7523,-2.759,-2.7776,-2.759,-2.7656,-2.7855,-2.7656,-2.7736,-2.8145,-2.8145,-2.8197,0.0,0.0,0.0,0.0,0.0,0.0,0.0,0.0,0.0,0.0,0.0,0.0,0.0,0.0,0.0,0.0,0.0,0.0,-3.5213,-3.5359,-3.5148,-3.4438,-3.5001,-3.4935,-3.3561,-3.3422,-3.3143,-3.2362,-3.1676,-3.1259,-3.1259,-3.1061,-3.0986,-3.0986,-3.0986,-3.0986,-3.0986,-3.0986,-3.0986,-3.0986,-3.0986,-3.0986,-3.0986,-3.0986,-3.0986,-3.0986,-3.0986,-3.0986,-3.0986,-3.0986,-3.0986,-3.0986,-3.0986,-3.0986,-3.0986,-3.0986,-3.0986,-3.0986,-3.0986,-3.0986,-3.0986,-3.0986,-3.0986,-3.0986,-3.0986,-3.0986,-3.0986,-3.0986,-3.0986,-3.0986,-3.0986,-3.0986,-3.0986,-3.1061,-3.1061,-3.0986,-3.1061,-3.1061,-3.0986,-3.0986,-3.0986,-3.0986,-3.0986,-3.0986,-3.0986,-3.0986,-3.0986,-3.0986,-3.0986,-3.0986,-3.0934,-3.0817,-3.0952,-3.0703,-2.9993,-2.9968,-2.9495,-2.8438,-2.8268,-2.7994,-2.7549,-2.7523,-2.759,-2.7776,-2.7789,-2.7855,-2.8013,-2.8013,-2.8066,-2.8235,-2.8235,-2.8379,0.0,0.0,0.0,0.0,0.0,0.0,0.0,0.0,0.0,0.0,0.0,0.0,0.0,0.0,0.0,0.0,0.0,0.0,-3.4839,-3.4839,-3.4624,-3.3796,-3.407,-3.3934,-3.2791,-3.2648,-3.2376,-3.1603,-3.1185,-3.0986,-3.0986,-3.0986,-3.0986,-3.0986,-3.0986,-3.0986,-3.0986,-3.0986,-3.0986,-3.0986,-3.0986,-3.0986,-3.0986,-3.0986,-3.0986,-3.0986,-3.0986,-3.0986,-3.0986,-3.0986,-3.0986,-3.0986,-3.0986,-3.0986,-3.0986,-3.0986,-3.0986,-3.0986,-3.0986,-3.0986,-3.0986,-3.0986,-3.0986,-3.0986,-3.0986,-3.0986,-3.0986,-3.0986,-3.0986,-3.0986,-3.0986,-3.0986,-3.0986,-3.0986,-3.0986,-3.0986,-3.0986,-3.0986,-3.0986,-3.0986,-3.0986,-3.0986,-3.0986,-3.0986,-3.0986,-3.0986,-3.0986,-3.1061,-3.1123,-3.1061,-3.1061,-3.1123,-3.1272,-3.1154,-3.0716,-3.0573,-3.0222,-2.9531,-2.9157,-2.8681,-2.8116,-2.8009,-2.7865,-2.7789,-2.7776,-2.7921,-2.8079,-2.8079,-2.8197,-2.8287,-2.8287,-2.843,0.0,0.0,0.0,0.0,0.0,0.0,0.0,0.0,0.0,0.0,0.0,0.0,0.0,0.0,0.0,0.0,0.0,0.0,-3.438,-3.4177,-3.3837,-3.3073,-3.3143,-3.2861,-3.2015,-3.2015,-3.1809,-3.1061,-3.0986,-3.0986,-3.0986,-3.0986,-3.0986,-3.0986,-3.0986,-3.0986,-3.0986,-3.0986,-3.0986,-3.1061,-3.1061,-3.1061,-3.1061,-3.0986,-3.0986,-3.0986,-3.0986,-3.0986,-3.0986,-3.0986,-3.0986,-3.0986,-3.0986,-3.0986,-3.0986,-3.0986,-3.0986,-3.0986,-3.0986,-3.0986,-3.0986,-3.0986,-3.0986,-3.0986,-3.0986,-3.0986,-3.0986,-3.0986,-3.0986,-3.0986,-3.0986,-3.0986,-3.0986,-3.0986,-3.0986,-3.0986,-3.0986,-3.0986,-3.0986,-3.0986,-3.0986,-3.0986,-3.0986,-3.0986,-3.0986,-3.1061,-3.1061,-3.1136,-3.1272,-3.1211,-3.1136,-3.1272,-3.1347,-3.1421,-3.1347,-3.1057,-3.0882,-3.0703,-3.0108,-2.9508,-2.8926,-2.8749,-2.8512,-2.8159,-2.7948,-2.7921,-2.8131,-2.8262,-2.8379,-2.8532,-2.8532,-2.861,0.0,0.0,0.0,0.0,0.0,0.0,0.0,0.0,0.0,0.0,0.0,0.0,0.0,0.0,0.0,0.0,0.0,0.0,0.0,-3.3768,-3.3073,-3.2362,-3.2791,-3.2662,-3.1259,-3.1736,-3.1809,-3.1061,-3.0986,-3.0986,-3.0986,-3.0986,-3.0986,-3.0986,-3.0986,-3.0986,-3.0986,-3.0986,-3.1061,-3.1272,-3.1272,-3.1272,-3.1272,-3.1061,-3.0986,-3.0986,-3.0986,-3.0986,-3.0986,-3.0986,-3.0986,-3.0986,-3.0986,-3.0986,-3.0986,-3.0986,-3.0986,-3.0986,-3.0986,-3.0986,-3.0986,-3.0986,-3.0986,-3.0986,-3.0986,-3.0986,-3.0986,-3.0986,-3.0986,-3.0986,-3.0986,-3.0986,-3.0986,-3.0986,-3.0986,-3.0986,-3.0986,-3.0986,-3.0986,-3.0986,-3.0986,-3.0986,-3.0986,-3.0986,-3.1061,-3.1198,-3.1272,-3.1272,-3.1272,-3.1434,-3.1447,-3.1347,-3.1582,-3.1743,-3.1596,-3.1676,-3.1468,-3.0716,-3.0623,-3.0317,-2.9731,-2.9704,-2.9664,-2.9653,-2.8438,-2.7973,-2.83,-2.8867,-2.9233,-2.9317,-2.9317,-2.9317,0.0,0.0,0.0,0.0,0.0,0.0,0.0,0.0,0.0,0.0,0.0,0.0,0.0,0.0,0.0,0.0,0.0,0.0,0.0,-3.3073,-3.2304,-3.1603,-3.175,-3.169,-3.1048,-3.1259,-3.1334,-3.1048,-3.0986,-3.0986,-3.0986,-3.0986,-3.0986,-3.0986,-3.0986,-3.0986,-3.0986,-3.0986,-3.1061,-3.1123,-3.1123,-3.1123,-3.1123,-3.1061,-3.0986,-3.0986,-3.0986,-3.0986,-3.0986,-3.0986,-3.0986,-3.0986,-3.0986,-3.0986,-3.0986,-3.0986,-3.0986,-3.0986,-3.0986,-3.0986,-3.0986,-3.0986,-3.0986,-3.0986,-3.0986,-3.0986,-3.0986,-3.0986,-3.0986,-3.0986,-3.0986,-3.0986,-3.0986,-3.0986,-3.0986,-3.0986,-3.0986,-3.0986,-3.0986,-3.0986,-3.0986,-3.0986,-3.0986,-3.0986,-3.1061,-3.1272,-3.1272,-3.1347,-3.1582,-3.1596,-3.1596,-3.1656,-3.1817,-3.189,-3.1743,-3.1963,-3.1915,-3.1573,-3.1414,-3.1146,-3.0542,-3.0374,-3.0228,-2.9894,-2.9053,-2.8679,-2.8811,-2.8852,-2.9107,-2.9504,-2.9504,-2.969,0.0,0.0,0.0,0.0,0.0,0.0,0.0,0.0,0.0,0.0,0.0,0.0,0.0,0.0,0.0,0.0,0.0,0.0,0.0,-3.2304,-3.1603,-3.1061,-3.0986,-3.0986,-3.0986,-3.0986,-3.0986,-3.0986,-3.0986,-3.0986,-3.0986,-3.0986,-3.0986,-3.0986,-3.0986,-3.0986,-3.1061,-3.1136,-3.1136,-3.1061,-3.1061,-3.1061,-3.1061,-3.0986,-3.0986,-3.0986,-3.0986,-3.0986,-3.0986,-3.0986,-3.0986,-3.0986,-3.0986,-3.0986,-3.0986,-3.0986,-3.0986,-3.0986,-3.0986,-3.0986,-3.0986,-3.0986,-3.0986,-3.0986,-3.0986,-3.0986,-3.0986,-3.0986,-3.0986,-3.0986,-3.0986,-3.0986,-3.0986,-3.0986,-3.0986,-3.0986,-3.0986,-3.0986,-3.0986,-3.0986,-3.0986,-3.0986,-3.0986,-3.0986,-3.1061,-3.136,-3.136,-3.1508,-3.1817,-3.1817,-3.1817,-3.189,-3.1963,-3.1963,-3.1963,-3.2109,-3.2182,-3.2182,-3.2036,-3.1748,-3.129,-3.1133,-3.086,-3.0489,-2.9968,-2.9659,-2.9443,-2.9154,-2.9342,-2.9992,-2.9837,-3.0133,0.0,0.0,0.0,0.0,0.0,0.0,0.0,0.0,0.0,0.0,0.0,0.0,0.0,0.0,0.0,0.0,0.0,0.0,0.0,-3.1529,-3.1048,-3.0986,-3.0986,-3.0986,-3.0986,-3.0986,-3.0986,-3.0986,-3.0986,-3.0986,-3.0986,-3.0986,-3.0986,-3.0986,-3.0986,-3.1061,-3.1272,-3.1447,-3.1447,-3.1272,-3.1272,-3.1272,-3.1272,-3.1061,-3.0986,-3.0986,-3.0986,-3.0986,-3.0986,-3.0986,-3.0986,-3.0986,-3.0986,-3.0986,-3.0986,-3.0986,-3.0986,-3.0986,-3.0986,-3.0986,-3.0986,-3.0986,-3.0986,-3.0986,-3.0986,-3.0986,-3.0986,-3.0986,-3.0986,-3.0986,-3.0986,-3.0986,-3.0986,-3.0986,-3.0986,-3.0986,-3.0986,-3.0986,-3.0986,-3.0986,-3.0986,-3.0986,-3.0986,-3.0986,-3.1136,-3.1535,-3.1596,-3.1683,-3.189,-3.2036,-3.2109,-3.189,-3.2036,-3.2182,-3.2182,-3.2182,-3.2182,-3.2182,-3.2182,-3.2169,-3.2128,-3.2128,-3.2114,-3.2087,-3.1504,-3.0837,-3.0048,-3.0086,-3.0531,-3.1271,-3.0739,-3.0822,0.0,0.0,0.0,0.0,0.0,0.0,0.0,0.0,0.0,0.0,0.0,0.0,0.0,0.0,0.0,0.0,0.0,0.0,0.0,-3.1468,-3.0986,-3.0986,-3.0986,-3.0986,-3.0986,-3.0986,-3.0986,-3.0986,-3.0986,-3.0986,-3.0986,-3.0986,-3.0986,-3.0986,-3.1123,-3.1286,-3.1522,-3.1434,-3.1347,-3.1272,-3.1198,-3.1136,-3.1136,-3.1061,-3.0986,-3.0986,-3.0986,-3.0986,-3.0986,-3.0986,-3.0986,-3.0986,-3.0986,-3.0986,-3.0986,-3.0986,-3.0986,-3.0986,-3.0986,-3.0986,-3.0986,-3.0986,-3.0986,-3.0986,-3.0986,-3.0986,-3.0986,-3.0986,-3.0986,-3.0986,-3.0986,-3.0986,-3.0986,-3.0986,-3.0986,-3.0986,-3.0986,-3.0986,-3.0986,-3.0986,-3.0986,-3.0986,-3.0986,-3.0986,-3.1061,-3.136,-3.1434,-3.1508,-3.189,-3.1963,-3.2036,-3.2109,-3.2182,-3.2182,-3.2182,-3.2182,-3.2182,-3.2182,-3.2182,-3.2182,-3.2182,-3.2182,-3.2182,-3.2182,-3.1965,-3.1558,-3.0891,-3.0487,-3.0696,-3.1375,-3.1593,-3.1833,0.0,0.0,0.0,0.0,0.0,0.0,0.0,0.0,0.0,0.0,0.0,0.0,0.0,0.0,0.0,0.0,0.0,0.0,0.0,-3.1408,-3.1061,-3.0986,-3.1061,-3.1061,-3.0986,-3.0986,-3.0986,-3.0986,-3.0986,0.0,-3.0986,-3.1061,-3.1136,-3.1211,-3.1434,-3.1508,-3.1609,-3.1447,-3.136,-3.1272,-3.1136,-3.0986,-3.0986,-3.0986,-3.0986,-3.0986,-3.0986,-3.0986,-3.0986,-3.0986,-3.0986,-3.0986,-3.0986,-3.0986,-3.0986,-3.0986,-3.0986,-3.0986,-3.0986,-3.0986,-3.0986,-3.0986,-3.0986,-3.0986,-3.0986,-3.0986,-3.0986,-3.0986,-3.0986,-3.0986,-3.0986,-3.0986,-3.0986,-3.0986,-3.0986,-3.0986,-3.0986,-3.0986,-3.0986,-3.0986,-3.0986,-3.0986,-3.0986,-3.0986,-3.1061,-3.1272,-3.1272,-3.1421,-3.1743,-3.1817,-3.189,-3.2109,-3.2036,-3.2036,-3.2109,-3.2109,-3.2109,-3.2109,-3.2182,-3.2182,-3.2182,-3.2182,-3.2182,-3.2182,-3.2182,-3.1979,-3.1585,-3.1002,-3.1007,-3.1615,-3.1866,-3.2305,0.0,0.0,0.0,0.0,0.0,0.0,0.0,0.0,0.0,0.0,0.0,0.0,0.0,0.0,0.0,0.0,0.0,0.0,0.0,-3.1198,-3.1198,-3.0986,-3.1198,-3.1198,-3.1061,-3.0986,-3.0986,-3.0986,-3.0986,-3.0986,-3.0986,-3.1198,-3.1434,-3.1609,-3.1817,-3.1817,-3.1609,-3.1609,-3.1522,-3.1272,-3.1136,-3.0986,-3.0986,-3.0986,-3.0986,-3.0986,-3.0986,-3.0986,-3.0986,-3.0986,-3.0986,-3.0986,-3.0986,-3.0986,-3.0986,-3.0986,-3.0986,-3.0986,-3.0986,-3.0986,-3.0986,-3.0986,-3.0986,-3.0986,-3.0986,-3.0986,-3.0986,-3.0986,-3.0986,-3.0986,-3.0986,-3.0986,-3.0986,-3.0986,-3.0986,-3.0986,-3.0986,-3.0986,-3.0986,-3.0986,-3.0986,-3.0986,-3.0986,-3.0986,-3.1061,-3.1272,-3.1272,-3.136,-3.1609,-3.1596,-3.1683,-3.189,-3.1757,-3.1683,-3.189,-3.189,-3.189,-3.189,-3.2109,-3.2182,-3.2182,-3.2182,-3.2182,-3.2182,-3.2182,-3.2182,-3.2182,-3.1599,-3.1638,-3.2178,-3.1629,-3.2169,-1.6227,0.0,0.0,0.0,0.0,0.0,0.0,0.0,0.0,0.0,0.0,0.0,0.0,0.0,0.0,0.0,0.0,0.0,0.0,0.0,-3.1061,-3.0986,-3.1198,-3.1272,-3.1198,-3.1198,-3.1198,0.0,-3.1061,-3.1061,-3.1198,-3.1434,-3.1596,-3.1817,-3.189,-3.1963,-3.2036,-3.189,-3.1743,-3.1522,-3.1286,-3.1123,-3.0986,-3.0986,-3.0986,-3.0986,-3.0986,-3.0986,-3.0986,-3.0986,-3.0986,-3.0986,-3.0986,-3.0986,-3.0986,-3.0986,-3.0986,-3.0986,-3.0986,-3.0986,-3.0986,-3.0986,-3.0986,-3.0986,-3.0986,-3.0986,-3.0986,-3.0986,-3.0986,-3.0986,-3.0986,-3.0986,-3.0986,-3.0986,-3.0986,-3.0986,-3.0986,-3.0986,-3.0986,-3.0986,-3.0986,-3.0986,-3.0986,-3.0986,-3.0986,-3.1061,-3.1061,-3.1211,-3.1535,-3.1434,-3.1508,-3.189,-3.1757,-3.1609,-3.1683,-3.1817,-3.189,-3.189,-3.2109,-3.2182,-3.2182,-3.2182,-3.2182,-3.2182,-3.2182,-3.2182,-3.2182,-3.2006,-3.2068,-3.2171,-3.2613,-3.3337,0.0,0.0,0.0,0.0,0.0,0.0,-1.9903,-2.2744,-2.5314,0.0,0.0,0.0,0.0,0.0,0.0,0.0,0.0,0.0,0.0,0.0,-3.0487,-3.0414,-3.0698,-3.0916,-3.0842,-3.1066,-3.1198,-3.1272,-3.1198,-3.1272,-3.1508,-3.1669,-3.1817,-3.2036,-3.2036,-3.2109,-3.2182,-3.2036,-3.1817,-3.1757,-3.1434,-3.1272,-3.1123,-3.1061,-3.0986,-3.0986,-3.0986,-3.0986,-3.0986,-3.0986,-3.0986,-3.0986,-3.0986,-3.0986,-3.0986,-3.0986,-3.0986,-3.0986,-3.0986,-3.0986,-3.0986,-3.0986,-3.0986,-3.0986,-3.0986,-3.0986,-3.0986,-3.0986,-3.0986,-3.0986,-3.0986,-3.0986,-3.0986,-3.0986,-3.0986,-3.0986,-3.0986,-3.0986,-3.0986,-3.0986,-3.0986,-3.0986,-3.0986,-3.0986,-3.0986,-3.0986,-3.0986,-3.1136,-3.1434,-3.1347,-3.1421,-3.1743,-3.1596,-3.1522,-3.1596,-3.1683,-3.1817,-3.189,-3.2109,-3.2182,-3.2182,-3.2182,-3.2182,-3.2182,-3.2182,-3.2182,-3.2182,-3.2182,-3.2372,-3.2775,-3.3734,-3.4545,0.0,0.0,0.0,0.0,0.0,0.0,-1.9912,-2.125,-2.2768,-2.6638,0.0,0.0,0.0,0.0,0.0,0.0,0.0,0.0,0.0,0.0,-2.9684,-2.9487,-2.9934,-3.025,-3.0032,-3.0503,-3.0966,-3.1167,-3.118,-3.1402,-3.1796,-3.1796,-3.1896,-3.2169,-3.2182,-3.2182,-3.2182,-3.2036,-3.189,-3.189,-3.1508,-3.1347,-3.1272,-3.1136,-3.0986,-3.0986,-3.0986,-3.0986,-3.0986,-3.0986,-3.0986,-3.0986,-3.0986,-3.0986,-3.0986,-3.0986,-3.0986,-3.0986,-3.0986,-3.0986,-3.0986,-3.0986,-3.0986,-3.0986,-3.0986,-3.0986,-3.0986,-3.0986,-3.0986,-3.0986,-3.0986,-3.0986,-3.0986,-3.0986,-3.0986,-3.0986,-3.0986,-3.0986,-3.0986,-3.0986,-3.0986,-3.0986,-3.0986,-3.0986,-3.0986,-3.0986,-3.0986,-3.1061,-3.1272,-3.1272,-3.136,-3.1596,-3.1434,-3.1434,-3.1596,-3.1609,-3.1683,-3.189,-3.2109,-3.2182,-3.2182,-3.2182,-3.2182,-3.2182,-3.2182,-3.2182,-3.2182,-3.2314,-3.2704,-3.3506,-3.478,-3.5593,0.0,0.0,0.0,0.0,0.0,0.0,-1.5544,-1.7501,-1.9294,0.0,0.0,0.0,0.0,0.0,0.0,0.0,0.0,0.0,0.0,0.0,0.0,-2.9345,-2.9579,-2.9715,-2.9715,-2.9821,-3.0085,-3.0547,-3.0586,-3.0732,-3.1178,-3.1164,-3.1523,-3.2169,-3.2182,-3.2182,-3.2182,-3.2182,-3.2036,-3.189,-3.1817,-3.1582,-3.1272,-3.1272,-3.1123,-3.0986,-3.0986,-3.0986,-3.0986,-3.0986,-3.0986,-3.0986,-3.0986,-3.0986,-3.0986,-3.0986,-3.0986,-3.0986,-3.0986,-3.0986,-3.0986,-3.0986,-3.0986,-3.0986,-3.0986,-3.0986,-3.0986,-3.0986,-3.0986,-3.0986,-3.0986,-3.0986,-3.0986,-3.0986,-3.0986,-3.0986,-3.0986,-3.0986,-3.0986,-3.0986,-3.0986,-3.0986,-3.0986,-3.0986,-3.0986,-3.0986,-3.0986,-3.1061,-3.1272,-3.1272,-3.136,-3.1596,-3.1522,-3.1535,-3.1609,-3.1743,-3.189,-3.189,-3.2109,-3.2182,-3.2182,-3.2182,-3.2182,-3.2182,-3.2182,-3.2182,-3.2182,-3.2903,-3.3241,-3.3297,-3.4832,-3.5578,0.0,0.0,0.0,-1.4921,0.0,0.0,0.0,-1.6872,-1.8235,-1.8892,-2.03,0.0,0.0,0.0,0.0,0.0,0.0,0.0,0.0,0.0,0.0,-2.8536,-2.8786,-2.9026,-2.9026,-2.9302,-2.9605,-3.0095,-3.0277,-3.0418,-3.0559,-3.0899,-3.1267,-3.1564,-3.2019,-3.2182,-3.2182,-3.2182,-3.2182,-3.2036,-3.1963,-3.1743,-3.1434,-3.136,-3.1198,-3.0986,-3.0986,-3.0986,-3.0986,-3.0986,-3.0986,-3.0986,-3.0986,-3.0986,-3.0986,-3.0986,-3.0986,-3.0986,-3.0986,-3.0986,-3.0986,-3.0986,-3.0986,-3.0986,-3.0986,-3.0986,-3.0986,-3.0986,-3.0986,-3.0986,-3.0986,-3.0986,-3.0986,-3.0986,-3.0986,-3.0986,-3.0986,-3.0986,-3.0986,-3.0986,-3.0986,-3.0986,-3.0986,-3.0986,-3.0986,-3.0986,-3.0986,-3.1061,-3.1272,-3.136,-3.1522,-3.1609,-3.1683,-3.1743,-3.1743,-3.1817,-3.1963,-3.2036,-3.2109,-3.2182,-3.2182,-3.2182,-3.2182,-3.2182,-3.2182,-3.2182,-3.2036,-3.2903,-3.3367,-3.3353,-3.4846,-3.5514,0.0,0.0,0.0,0.0,0.0,-1.4943,0.0,0.0,0.0,-1.8732,0.0,0.0,0.0,0.0,0.0,0.0,0.0,0.0,0.0,0.0,0.0,-2.676,-2.7564,-2.7968,-2.7745,-2.8323,-2.8907,-2.9395,-2.9564,-2.9727,-2.9969,-3.0537,-3.0902,-3.1034,-3.1663,-3.206,-3.2182,-3.2182,-3.2182,-3.2182,-3.2036,-3.1817,-3.1683,-3.1434,-3.1272,-3.1061,-3.0986,-3.0986,-3.0986,-3.0986,-3.0986,-3.0986,-3.0986,-3.0986,-3.0986,-3.0986,-3.0986,-3.0986,-3.0986,-3.0986,-3.0986,-3.0986,-3.0986,-3.0986,-3.0986,-3.0986,-3.0986,-3.0986,-3.0986,-3.0986,-3.0986,-3.0986,-3.0986,-3.0986,-3.0986,-3.0986,-3.0986,-3.0986,-3.0986,-3.0986,-3.0986,-3.0986,-3.0986,-3.0986,-3.0986,-3.0986,-3.0986,-3.1061,-3.1198,-3.1434,-3.1535,-3.1609,-3.1743,-3.189,-3.1963,-3.1963,-3.2036,-3.2182,-3.2182,-3.2182,-3.2182,-3.2182,-3.2182,-3.2182,-3.2182,-3.2109,-3.189,-3.2618,-3.3101,-3.3367,-3.4795,-3.5449,0.0,0.0,0.0,0.0,-1.4624,0.0,0.0,0.0,-1.4748,-1.4637,0.0,0.0,0.0,0.0,0.0,0.0,0.0,0.0,0.0,0.0,0.0,-2.2929,-2.5323,-2.6465,-2.5445,-2.6002,-2.6892,-2.8199,-2.7307,-2.7514,-2.9496,-2.9376,-2.9914,-3.1189,-3.1186,-3.1483,-3.2169,-3.2182,-3.2182,-3.2182,-3.2182,-3.2036,-3.189,-3.1669,-3.1447,-3.1272,-3.1061,-3.0986,-3.0986,-3.0986,-3.0986,-3.0986,-3.0986,-3.0986,-3.0986,-3.0986,-3.0986,-3.0986,-3.0986,-3.0986,-3.0986,-3.0986,-3.0986,-3.0986,-3.0986,-3.0986,-3.0986,-3.0986,-3.0986,-3.0986,-3.0986,-3.0986,-3.0986,-3.0986,-3.0986,-3.0986,-3.0986,-3.0986,-3.0986,-3.0986,-3.0986,-3.0986,-3.0986,-3.0986,-3.0986,-3.0986,-3.0986,-3.0986,-3.1061,-3.1211,-3.1434,-3.1596,-3.1743,-3.1963,-3.2182,-3.2182,-3.2182,-3.2182,-3.2182,-3.2182,-3.2182,-3.2182,-3.2182,-3.2182,-3.2182,-3.2109,-3.189,-3.2036,-3.2286,-3.2832,-3.4595,-3.532,0.0,0.0,0.0,0.0,0.0,0.0,-1.4699,0.0,-1.4365,0.0,0.0,0.0,0.0,0.0,0.0,0.0,-1.5591,0.0,0.0,0.0,0.0,0.0,0.0,0.0,-2.3903,-2.5201,-2.6466,-2.7493,-2.717,-2.7484,-2.8754,-2.9336,-2.9738,-2.9968,-3.0962,-3.1532,-3.1496,-3.1992,-3.2182,-3.2182,-3.2182,-3.2036,-3.1757,-3.1609,-3.1447,-3.1123,-3.1061,-3.0986,-3.0986,-3.0986,-3.0986,-3.0986,-3.0986,-3.0986,-3.0986,-3.0986,-3.0986,-3.0986,-3.0986,-3.0986,-3.0986,-3.0986,-3.0986,-3.0986,-3.0986,-3.0986,-3.0986,-3.0986,-3.0986,-3.0986,-3.0986,-3.0986,-3.0986,-3.0986,-3.0986,-3.0986,-3.0986,-3.0986,-3.0986,-3.0986,-3.0986,-3.0986,-3.0986,-3.0986,-3.0986,-3.0986,-3.0986,-3.0986,-3.0986,-3.1198,-3.1347,-3.1434,-3.1743,-3.1963,-3.2036,-3.2109,-3.2182,-3.2182,-3.2182,-3.2182,-3.2182,-3.2182,-3.2182,-3.2182,-3.2182,-3.2109,-3.189,-3.1743,-3.1803,-3.1909,-3.363,-3.4461,-1.8418,0.0,0.0,0.0,0.0,0.0,0.0,0.0,0.0,0.0,0.0,0.0,0.0,0.0,0.0,0.0,0.0,-1.5457,0.0,0.0,0.0,0.0,0.0,0.0,0.0,-2.3883,-2.5203,-2.6449,-2.6666,-2.7247,-2.8312,-2.9187,-2.9416,-2.9093,-3.0408,-3.1025,-3.0891,-3.155,-3.1933,-3.2109,-3.2182,-3.2036,-3.1683,-3.1609,-3.1447,-3.1061,-3.0986,-3.0986,-3.0986,-3.0986,-3.0986,-3.0986,-3.0986,-3.0986,-3.0986,-3.0986,-3.0986,-3.0986,-3.0986,-3.0986,-3.0986,-3.0986,-3.0986,-3.0986,-3.0986,-3.0986,-3.0986,-3.0986,-3.0986,-3.0986,-3.0986,-3.0986,-3.0986,-3.0986,-3.0986,-3.0986,-3.0986,-3.0986,-3.0986,-3.0986,-3.0986,-3.0986,-3.0986,-3.0986,-3.0986,-3.0986,-3.0986,-3.0986,-3.0986,-3.1123,-3.1272,-3.1272,-3.1582,-3.1817,-3.189,-3.2109,-3.2182,-3.2182,-3.2182,-3.2182,-3.2182,-3.2182,-3.2182,-3.2182,-3.2182,-3.2109,-3.189,-3.1743,-3.1596,-3.1434,-3.2818,-3.3506,0.0,0.0,0.0,-1.6619,0.0,0.0,0.0,0.0,-1.4203,0.0,0.0,0.0,0.0,0.0,0.0,0.0,0.0,0.0,0.0,0.0,0.0,0.0,0.0,0.0,0.0,-2.1106,-2.2218,0.0,-2.4886,-2.594,-2.8465,-2.8471,-2.861,-2.9201,-2.9147,-2.964,-3.0677,-3.0918,-3.1299,-3.189,-3.2109,-3.2109,-3.189,-3.1683,-3.1522,-3.1272,-3.1061,-3.0986,-3.0986,-3.0986,-3.0986,-3.0986,-3.0986,-3.0986,-3.0986,-3.0986,-3.0986,-3.0986,-3.0986,-3.0986,-3.0986,-3.0986,-3.0986,-3.0986,-3.0986,-3.0986,-3.0986,-3.0986,-3.0986,-3.0986,-3.0986,-3.0986,-3.0986,-3.0986,-3.0986,-3.0986,-3.0986,-3.0986,-3.0986,-3.0986,-3.0986,-3.0986,-3.0986,-3.0986,-3.0986,-3.0986,-3.0986,-3.0986,-3.0986,-3.0986,-3.1061,-3.1272,-3.1522,-3.1683,-3.189,-3.2109,-3.2182,-3.2182,-3.2182,-3.2182,-3.2182,-3.2182,-3.2182,-3.2182,-3.2182,-3.2109,-3.189,-3.189,-3.1817,-3.1596,-3.2187,-3.2861,0.0,0.0,-2.2665,-1.9443,0.0,0.0,0.0,0.0,0.0,0.0,0.0,0.0,0.0,0.0,0.0,0.0,0.0,0.0,0.0,0.0,0.0,0.0,0.0,0.0,0.0,0.0,0.0,0.0,-2.49,-2.6411,-2.7823,-2.8554,-2.8811,-2.861,-2.9186,-2.9531,-2.96,-3.0374,-3.1012,-3.1285,-3.1616,-3.1743,-3.1669,-3.1508,-3.1286,-3.1136,-3.1061,-3.0986,-3.0986,-3.0986,-3.0986,-3.0986,-3.0986,-3.0986,-3.0986,-3.0986,-3.0986,-3.0986,-3.0986,-3.0986,-3.0986,-3.0986,-3.0986,-3.0986,-3.0986,-3.0986,-3.0986,-3.0986,-3.0986,-3.0986,-3.0986,-3.0986,-3.0986,-3.0986,-3.0986,-3.0986,-3.0986,-3.0986,-3.0986,-3.0986,-3.0986,-3.0986,-3.0986,-3.0986,-3.0986,-3.0986,-3.0986,-3.0986,-3.0986,-3.0986,-3.1061,-3.1061,-3.1373,-3.1609,-3.1683,-3.2036,-3.2182,-3.2182,-3.2182,-3.2182,-3.2182,-3.2182,-3.2182,-3.2182,-3.2182,-3.2109,-3.189,-3.189,-3.1743,-3.1434,-3.2128,-3.2605,-2.5202,-2.5563,0.0,-2.209,-2.1852,0.0,-1.8064,0.0,-1.6082,0.0,0.0,0.0,0.0,0.0,0.0,0.0,0.0,0.0,0.0,-1.4065,0.0,0.0,0.0,0.0,0.0,0.0,0.0,-2.2737,-2.4216,-2.5741,0.0,-2.8179,-2.8489,-2.83,-2.8852,-2.9118,-2.889,-2.9834,-3.049,-3.0762,-3.1316,-3.1522,-3.1522,-3.1347,-3.1198,-3.0986,-3.0986,-3.0986,-3.0986,-3.0986,-3.0986,-3.0986,-3.0986,-3.0986,-3.0986,-3.0986,-3.0986,-3.0986,-3.0986,-3.0986,-3.0986,-3.0986,-3.0986,-3.0986,-3.0986,-3.0986,-3.1026,-3.1235,-3.1143,-3.1026,-3.1235,-3.1143,-3.0986,-3.0986,-3.0986,-3.0986,-3.0986,-3.0986,-3.0986,-3.0986,-3.0986,-3.0986,-3.0986,-3.0986,-3.0986,-3.0986,-3.0986,-3.0986,-3.0986,-3.0986,-3.0986,-3.0986,-3.1286,-3.1522,-3.1669,-3.2036,-3.2182,-3.2182,-3.2182,-3.2182,-3.2182,-3.2182,-3.2182,-3.2182,-3.2182,-3.2109,-3.189,-3.1963,-3.195,-3.185,-3.2273,-3.269]}]]